Wetterdaten: Sonntag, 29.05.2016
Datum Zeit Temp. A. Feuchte A. Luftdruck Regen Wind Richtung Richtung Sonnenschein ET UV Solar Taupunkt Windchill Windben Empfang
29.05.2016 00:00 15,0 C 96 % 1008,5 hPa 0,0 l/m 4,6 km/h (1 Bft) O-NO 57 0 min 0,000 mm 0,0 UV-I 0 W/m 14,4 C 15,0 C 4,8 km/h (1 Bft) 100,00 %
29.05.2016 00:02 15,0 C 95 % 1008,4 hPa 0,0 l/m 4,8 km/h (1 Bft) NO 45 0 min 0,000 mm 0,0 UV-I 0 W/m 14,2 C 15,0 C 6,4 km/h (2 Bft) 95,35 %
29.05.2016 00:03 15,0 C 96 % 1008,4 hPa 0,0 l/m 3,4 km/h (1 Bft) NO 45 0 min 0,000 mm 0,0 UV-I 0 W/m 14,4 C 15,0 C 4,8 km/h (1 Bft) 100,00 %
29.05.2016 00:04 15,0 C 96 % 1008,4 hPa 0,0 l/m 2,9 km/h (1 Bft) NO 50 0 min 0,000 mm 0,0 UV-I 0 W/m 14,4 C 15,0 C 3,2 km/h (1 Bft) 96,15 %
29.05.2016 00:05 15,0 C 96 % 1008,4 hPa 0,0 l/m 3,0 km/h (1 Bft) NO 50 0 min 0,000 mm 0,0 UV-I 0 W/m 14,4 C 15,0 C 3,2 km/h (1 Bft) 100,00 %
29.05.2016 00:06 14,9 C 96 % 1008,4 hPa 0,0 l/m 3,3 km/h (1 Bft) NO 55 0 min 0,000 mm 0,0 UV-I 0 W/m 14,3 C 14,9 C 4,8 km/h (1 Bft) 96,15 %
29.05.2016 00:07 14,9 C 95 % 1008,3 hPa 0,0 l/m 2,7 km/h (1 Bft) NO 55 0 min 0,000 mm 0,0 UV-I 0 W/m 14,1 C 14,9 C 3,2 km/h (1 Bft) 100,00 %
29.05.2016 00:08 14,9 C 96 % 1008,4 hPa 0,0 l/m 4,4 km/h (1 Bft) NO 55 0 min 0,000 mm 0,0 UV-I 0 W/m 14,3 C 14,9 C 6,4 km/h (2 Bft) 100,00 %
29.05.2016 00:09 14,9 C 96 % 1008,3 hPa 0,0 l/m 3,7 km/h (1 Bft) NO 55 0 min 0,000 mm 0,0 UV-I 0 W/m 14,3 C 14,9 C 4,8 km/h (1 Bft) 100,00 %
29.05.2016 00:10 14,9 C 96 % 1008,3 hPa 0,0 l/m 2,3 km/h (1 Bft) NO 51 0 min 0,000 mm 0,0 UV-I 0 W/m 14,3 C 14,9 C 3,2 km/h (1 Bft) 100,00 %
29.05.2016 00:11 14,9 C 96 % 1008,2 hPa 0,0 l/m 1,8 km/h (1 Bft) NO 51 0 min 0,000 mm 0,0 UV-I 0 W/m 14,3 C 14,9 C 3,2 km/h (1 Bft) 100,00 %
29.05.2016 00:12 14,9 C 96 % 1008,2 hPa 0,0 l/m 2,5 km/h (1 Bft) NO 51 0 min 0,000 mm 0,0 UV-I 0 W/m 14,3 C 14,9 C 3,2 km/h (1 Bft) 100,00 %
29.05.2016 00:13 14,9 C 96 % 1008,2 hPa 0,0 l/m 1,7 km/h (1 Bft) NO 51 0 min 0,000 mm 0,0 UV-I 0 W/m 14,3 C 14,9 C 3,2 km/h (1 Bft) 100,00 %
29.05.2016 00:14 14,9 C 96 % 1008,2 hPa 0,0 l/m 2,2 km/h (1 Bft) NO 51 0 min 0,000 mm 0,0 UV-I 0 W/m 14,3 C 14,9 C 3,2 km/h (1 Bft) 96,15 %
29.05.2016 00:15 15,0 C 96 % 1008,1 hPa 0,0 l/m 2,8 km/h (1 Bft) NO 51 0 min 0,000 mm 0,0 UV-I 0 W/m 14,4 C 15,0 C 4,8 km/h (1 Bft) 93,33 %
29.05.2016 00:16 15,0 C 96 % 1008,1 hPa 0,0 l/m 3,1 km/h (1 Bft) NO 51 0 min 0,000 mm 0,0 UV-I 0 W/m 14,4 C 15,0 C 4,8 km/h (1 Bft) 100,00 %
29.05.2016 00:17 15,1 C 96 % 1008,1 hPa 0,0 l/m 2,7 km/h (1 Bft) O-NO 63 0 min 0,000 mm 0,0 UV-I 0 W/m 14,5 C 15,1 C 3,2 km/h (1 Bft) 93,10 %
29.05.2016 00:18 15,1 C 96 % 1008,1 hPa 0,0 l/m 2,3 km/h (1 Bft) O-NO 63 0 min 0,000 mm 0,0 UV-I 0 W/m 14,5 C 15,1 C 3,2 km/h (1 Bft) 100,00 %
29.05.2016 00:19 15,1 C 96 % 1008,1 hPa 0,0 l/m 2,0 km/h (1 Bft) O-NO 63 0 min 0,000 mm 0,0 UV-I 0 W/m 14,5 C 15,1 C 3,2 km/h (1 Bft) 100,00 %
29.05.2016 00:20 15,0 C 96 % 1008,1 hPa 0,0 l/m 0,1 km/h (0 Bft) O-NO 63 0 min 0,000 mm 0,0 UV-I 0 W/m 14,4 C 15,0 C 1,6 km/h (1 Bft) 96,30 %
29.05.2016 00:21 15,1 C 96 % 1008,0 hPa 0,0 l/m 1,4 km/h (1 Bft) O-NO 66 0 min 0,000 mm 0,0 UV-I 0 W/m 14,5 C 15,1 C 3,2 km/h (1 Bft) 100,00 %
29.05.2016 00:22 15,0 C 96 % 1008,0 hPa 0,0 l/m 2,6 km/h (1 Bft) O-NO 66 0 min 0,000 mm 0,0 UV-I 0 W/m 14,4 C 15,0 C 3,2 km/h (1 Bft) 100,00 %
29.05.2016 00:23 14,9 C 96 % 1008,0 hPa 0,0 l/m 3,2 km/h (1 Bft) O-NO 66 0 min 0,000 mm 0,0 UV-I 0 W/m 14,3 C 14,9 C 4,8 km/h (1 Bft) 95,65 %
29.05.2016 00:24 14,9 C 95 % 1008,0 hPa 0,0 l/m 4,0 km/h (1 Bft) O-NO 67 0 min 0,000 mm 0,0 UV-I 0 W/m 14,1 C 14,9 C 4,8 km/h (1 Bft) 100,00 %
29.05.2016 00:25 14,8 C 95 % 1008,0 hPa 0,0 l/m 3,3 km/h (1 Bft) O-NO 67 0 min 0,000 mm 0,0 UV-I 0 W/m 14,0 C 14,8 C 4,8 km/h (1 Bft) 100,00 %
29.05.2016 00:26 14,7 C 95 % 1008,0 hPa 0,0 l/m 3,1 km/h (1 Bft) O-NO 67 0 min 0,000 mm 0,0 UV-I 0 W/m 13,9 C 14,7 C 3,2 km/h (1 Bft) 100,00 %
29.05.2016 00:27 14,6 C 95 % 1008,0 hPa 0,0 l/m 2,3 km/h (1 Bft) O-NO 67 0 min 0,000 mm 0,0 UV-I 0 W/m 13,8 C 14,6 C 4,8 km/h (1 Bft) 100,00 %
29.05.2016 00:28 14,6 C 95 % 1008,0 hPa 0,0 l/m 1,9 km/h (1 Bft) O-NO 67 0 min 0,000 mm 0,0 UV-I 0 W/m 13,8 C 14,6 C 3,2 km/h (1 Bft) 100,00 %
29.05.2016 00:29 14,6 C 96 % 1007,9 hPa 0,0 l/m 1,2 km/h (1 Bft) O-NO 67 0 min 0,000 mm 0,0 UV-I 0 W/m 14,0 C 14,6 C 3,2 km/h (1 Bft) 96,67 %
29.05.2016 00:30 14,6 C 96 % 1007,9 hPa 0,0 l/m 1,6 km/h (1 Bft) O-NO 67 0 min 0,000 mm 0,0 UV-I 0 W/m 14,0 C 14,6 C 3,2 km/h (1 Bft) 96,15 %
29.05.2016 00:31 14,6 C 96 % 1007,9 hPa 0,0 l/m 1,5 km/h (1 Bft) O-NO 67 0 min 0,000 mm 0,0 UV-I 0 W/m 14,0 C 14,6 C 3,2 km/h (1 Bft) 100,00 %
29.05.2016 00:32 14,7 C 96 % 1007,8 hPa 0,0 l/m 1,0 km/h (0 Bft) O-NO 67 0 min 0,000 mm 0,0 UV-I 0 W/m 14,1 C 14,7 C 1,6 km/h (1 Bft) 100,00 %
29.05.2016 00:33 14,7 C 96 % 1007,8 hPa 0,0 l/m 1,0 km/h (0 Bft) O-NO 67 0 min 0,000 mm 0,0 UV-I 0 W/m 14,1 C 14,7 C 1,6 km/h (1 Bft) 100,00 %
29.05.2016 00:34 14,7 C 96 % 1007,8 hPa 0,0 l/m 1,3 km/h (1 Bft) O-NO 67 0 min 0,000 mm 0,0 UV-I 0 W/m 14,1 C 14,7 C 1,6 km/h (1 Bft) 100,00 %
29.05.2016 00:35 14,7 C 96 % 1007,8 hPa 0,0 l/m 1,3 km/h (1 Bft) O-NO 67 0 min 0,000 mm 0,0 UV-I 0 W/m 14,1 C 14,7 C 1,6 km/h (1 Bft) 100,00 %
29.05.2016 00:36 14,7 C 96 % 1007,7 hPa 0,0 l/m 2,3 km/h (1 Bft) O-NO 67 0 min 0,000 mm 0,0 UV-I 0 W/m 14,1 C 14,7 C 4,8 km/h (1 Bft) 95,65 %
29.05.2016 00:37 14,7 C 96 % 1007,7 hPa 0,0 l/m 1,6 km/h (1 Bft) O-NO 67 0 min 0,000 mm 0,0 UV-I 0 W/m 14,1 C 14,7 C 3,2 km/h (1 Bft) 100,00 %
29.05.2016 00:38 14,7 C 96 % 1007,6 hPa 0,0 l/m 0,0 km/h (0 Bft) O-NO 67 0 min 0,000 mm 0,0 UV-I 0 W/m 14,1 C 14,7 C 0,0 km/h (0 Bft) 100,00 %
29.05.2016 00:39 14,7 C 96 % 1007,6 hPa 0,0 l/m 0,3 km/h (0 Bft) O-NO 67 0 min 0,000 mm 0,0 UV-I 0 W/m 14,1 C 14,7 C 1,6 km/h (1 Bft) 95,83 %
29.05.2016 00:40 14,7 C 96 % 1007,5 hPa 0,0 l/m 0,9 km/h (0 Bft) O-NO 67 0 min 0,000 mm 0,0 UV-I 0 W/m 14,1 C 14,7 C 1,6 km/h (1 Bft) 100,00 %
29.05.2016 00:41 14,7 C 96 % 1007,5 hPa 0,0 l/m 1,4 km/h (1 Bft) O-NO 67 0 min 0,000 mm 0,0 UV-I 0 W/m 14,1 C 14,7 C 3,2 km/h (1 Bft) 100,00 %
29.05.2016 00:42 14,7 C 96 % 1007,6 hPa 0,0 l/m 2,1 km/h (1 Bft) O-NO 67 0 min 0,000 mm 0,0 UV-I 0 W/m 14,1 C 14,7 C 3,2 km/h (1 Bft) 100,00 %
29.05.2016 00:43 14,6 C 96 % 1007,5 hPa 0,0 l/m 2,0 km/h (1 Bft) O-NO 67 0 min 0,000 mm 0,0 UV-I 0 W/m 14,0 C 14,6 C 3,2 km/h (1 Bft) 100,00 %
29.05.2016 00:44 14,6 C 96 % 1007,5 hPa 0,0 l/m 1,1 km/h (1 Bft) O-NO 67 0 min 0,000 mm 0,0 UV-I 0 W/m 14,0 C 14,6 C 3,2 km/h (1 Bft) 100,00 %
29.05.2016 00:45 14,6 C 96 % 1007,5 hPa 0,0 l/m 2,4 km/h (1 Bft) O-NO 67 0 min 0,000 mm 0,0 UV-I 0 W/m 14,0 C 14,6 C 3,2 km/h (1 Bft) 100,00 %
29.05.2016 00:46 14,6 C 96 % 1007,5 hPa 0,0 l/m 1,1 km/h (1 Bft) O-NO 67 0 min 0,000 mm 0,0 UV-I 0 W/m 14,0 C 14,6 C 1,6 km/h (1 Bft) 100,00 %
29.05.2016 00:47 14,6 C 96 % 1007,4 hPa 0,0 l/m 0,0 km/h (0 Bft) O-NO 67 0 min 0,000 mm 0,0 UV-I 0 W/m 14,0 C 14,6 C 0,0 km/h (0 Bft) 100,00 %
29.05.2016 00:48 14,5 C 96 % 1007,4 hPa 0,0 l/m 0,0 km/h (0 Bft) O-NO 67 0 min 0,000 mm 0,0 UV-I 0 W/m 13,9 C 14,5 C 0,0 km/h (0 Bft) 100,00 %
29.05.2016 00:49 14,5 C 96 % 1007,4 hPa 0,0 l/m 0,0 km/h (0 Bft) O-NO 67 0 min 0,000 mm 0,0 UV-I 0 W/m 13,9 C 14,5 C 0,0 km/h (0 Bft) 100,00 %
29.05.2016 00:50 14,5 C 96 % 1007,3 hPa 0,0 l/m 0,5 km/h (0 Bft) O-NO 67 0 min 0,000 mm 0,0 UV-I 0 W/m 13,9 C 14,5 C 1,6 km/h (1 Bft) 100,00 %
29.05.2016 00:51 14,4 C 96 % 1007,3 hPa 0,0 l/m 1,4 km/h (1 Bft) O-NO 67 0 min 0,000 mm 0,0 UV-I 0 W/m 13,8 C 14,4 C 1,6 km/h (1 Bft) 100,00 %
29.05.2016 00:52 14,5 C 97 % 1007,3 hPa 0,0 l/m 1,3 km/h (1 Bft) O-NO 67 0 min 0,000 mm 0,0 UV-I 0 W/m 14,0 C 14,5 C 3,2 km/h (1 Bft) 100,00 %
29.05.2016 00:53 14,4 C 97 % 1007,2 hPa 0,0 l/m 2,4 km/h (1 Bft) O-NO 67 0 min 0,000 mm 0,0 UV-I 0 W/m 13,9 C 14,4 C 3,2 km/h (1 Bft) 100,00 %
29.05.2016 00:54 14,4 C 97 % 1007,2 hPa 0,0 l/m 2,2 km/h (1 Bft) O-NO 67 0 min 0,000 mm 0,0 UV-I 0 W/m 13,9 C 14,4 C 3,2 km/h (1 Bft) 96,30 %
29.05.2016 00:55 14,4 C 97 % 1007,2 hPa 0,0 l/m 1,9 km/h (1 Bft) O-NO 67 0 min 0,000 mm 0,0 UV-I 0 W/m 13,9 C 14,4 C 3,2 km/h (1 Bft) 100,00 %
29.05.2016 00:56 14,4 C 97 % 1007,1 hPa 0,0 l/m 2,1 km/h (1 Bft) O-NO 67 0 min 0,000 mm 0,0 UV-I 0 W/m 13,9 C 14,4 C 3,2 km/h (1 Bft) 100,00 %
29.05.2016 00:57 14,4 C 97 % 1007,1 hPa 0,0 l/m 2,8 km/h (1 Bft) SO 143 0 min 0,000 mm 0,0 UV-I 0 W/m 13,9 C 14,4 C 4,8 km/h (1 Bft) 100,00 %
29.05.2016 00:58 14,4 C 97 % 1007,0 hPa 0,0 l/m 3,3 km/h (1 Bft) S 186 0 min 0,000 mm 0,0 UV-I 0 W/m 13,9 C 14,4 C 6,4 km/h (2 Bft) 100,00 %
29.05.2016 00:59 14,4 C 97 % 1007,0 hPa 0,0 l/m 3,8 km/h (1 Bft) S-SW 208 0 min 0,000 mm 0,0 UV-I 0 W/m 13,9 C 14,4 C 4,8 km/h (1 Bft) 100,00 %
29.05.2016 01:00 14,4 C 96 % 1007,0 hPa 0,0 l/m 4,1 km/h (1 Bft) SW 214 0 min 0,000 mm 0,0 UV-I 0 W/m 13,8 C 14,4 C 6,4 km/h (2 Bft) 100,00 %
29.05.2016 01:02 14,3 C 96 % 1006,9 hPa 0,0 l/m 3,0 km/h (1 Bft) SW 214 0 min 0,000 mm 0,0 UV-I 0 W/m 13,7 C 14,3 C 4,8 km/h (1 Bft) 100,00 %
29.05.2016 01:03 14,4 C 97 % 1006,9 hPa 0,0 l/m 2,0 km/h (1 Bft) SW 214 0 min 0,000 mm 0,0 UV-I 0 W/m 13,9 C 14,4 C 3,2 km/h (1 Bft) 100,00 %
29.05.2016 01:04 14,4 C 97 % 1006,9 hPa 0,0 l/m 2,1 km/h (1 Bft) SW 214 0 min 0,000 mm 0,0 UV-I 0 W/m 13,9 C 14,4 C 3,2 km/h (1 Bft) 100,00 %
29.05.2016 01:05 14,4 C 97 % 1006,9 hPa 0,0 l/m 2,2 km/h (1 Bft) SW 214 0 min 0,000 mm 0,0 UV-I 0 W/m 13,9 C 14,4 C 3,2 km/h (1 Bft) 100,00 %
29.05.2016 01:06 14,4 C 97 % 1006,9 hPa 0,0 l/m 2,1 km/h (1 Bft) SW 214 0 min 0,000 mm 0,0 UV-I 0 W/m 13,9 C 14,4 C 3,2 km/h (1 Bft) 100,00 %
29.05.2016 01:07 14,4 C 97 % 1006,9 hPa 0,0 l/m 1,3 km/h (1 Bft) SW 214 0 min 0,000 mm 0,0 UV-I 0 W/m 13,9 C 14,4 C 3,2 km/h (1 Bft) 100,00 %
29.05.2016 01:08 14,4 C 97 % 1006,9 hPa 0,2 l/m 0,4 km/h (0 Bft) SW 214 0 min 0,000 mm 0,0 UV-I 0 W/m 13,9 C 14,4 C 1,6 km/h (1 Bft) 100,00 %
29.05.2016 01:09 14,3 C 97 % 1006,8 hPa 0,0 l/m 0,5 km/h (0 Bft) SW 214 0 min 0,000 mm 0,0 UV-I 0 W/m 13,8 C 14,3 C 1,6 km/h (1 Bft) 100,00 %
29.05.2016 01:10 14,3 C 97 % 1006,9 hPa 0,0 l/m 1,7 km/h (1 Bft) SW 214 0 min 0,000 mm 0,0 UV-I 0 W/m 13,8 C 14,3 C 3,2 km/h (1 Bft) 100,00 %
29.05.2016 01:11 14,3 C 97 % 1006,8 hPa 0,0 l/m 3,1 km/h (1 Bft) SW 214 0 min 0,000 mm 0,0 UV-I 0 W/m 13,8 C 14,3 C 3,2 km/h (1 Bft) 100,00 %
29.05.2016 01:12 14,3 C 97 % 1006,8 hPa 0,0 l/m 2,7 km/h (1 Bft) SW 214 0 min 0,000 mm 0,0 UV-I 0 W/m 13,8 C 14,3 C 3,2 km/h (1 Bft) 100,00 %
29.05.2016 01:13 14,3 C 97 % 1006,8 hPa 0,0 l/m 2,7 km/h (1 Bft) SW 214 0 min 0,000 mm 0,0 UV-I 0 W/m 13,8 C 14,3 C 4,8 km/h (1 Bft) 100,00 %
29.05.2016 01:14 14,3 C 97 % 1006,8 hPa 0,0 l/m 1,1 km/h (1 Bft) SW 214 0 min 0,000 mm 0,0 UV-I 0 W/m 13,8 C 14,3 C 3,2 km/h (1 Bft) 100,00 %
29.05.2016 01:15 14,2 C 97 % 1006,8 hPa 0,0 l/m 0,4 km/h (0 Bft) SW 214 0 min 0,000 mm 0,0 UV-I 0 W/m 13,7 C 14,2 C 1,6 km/h (1 Bft) 100,00 %
29.05.2016 01:16 14,2 C 97 % 1006,8 hPa 0,0 l/m 0,1 km/h (0 Bft) SW 214 0 min 0,000 mm 0,0 UV-I 0 W/m 13,7 C 14,2 C 1,6 km/h (1 Bft) 100,00 %
29.05.2016 01:17 14,2 C 97 % 1006,8 hPa 0,0 l/m 0,2 km/h (0 Bft) SW 214 0 min 0,000 mm 0,0 UV-I 0 W/m 13,7 C 14,2 C 1,6 km/h (1 Bft) 83,33 %
29.05.2016 01:18 14,2 C 97 % 1006,7 hPa 0,0 l/m 1,2 km/h (1 Bft) SW 214 0 min 0,000 mm 0,0 UV-I 0 W/m 13,7 C 14,2 C 3,2 km/h (1 Bft) 100,00 %
29.05.2016 01:19 14,2 C 97 % 1006,7 hPa 0,0 l/m 2,4 km/h (1 Bft) SW 214 0 min 0,000 mm 0,0 UV-I 0 W/m 13,7 C 14,2 C 3,2 km/h (1 Bft) 100,00 %
29.05.2016 01:20 14,2 C 97 % 1006,7 hPa 0,0 l/m 2,8 km/h (1 Bft) SW 214 0 min 0,000 mm 0,0 UV-I 0 W/m 13,7 C 14,2 C 3,2 km/h (1 Bft) 100,00 %
29.05.2016 01:21 14,2 C 97 % 1006,6 hPa 0,0 l/m 2,1 km/h (1 Bft) SW 214 0 min 0,000 mm 0,0 UV-I 0 W/m 13,7 C 14,2 C 3,2 km/h (1 Bft) 100,00 %
29.05.2016 01:22 14,2 C 97 % 1006,6 hPa 0,0 l/m 1,0 km/h (0 Bft) SW 214 0 min 0,000 mm 0,0 UV-I 0 W/m 13,7 C 14,2 C 3,2 km/h (1 Bft) 100,00 %
29.05.2016 01:23 14,2 C 97 % 1006,6 hPa 0,0 l/m 0,0 km/h (0 Bft) SW 214 0 min 0,000 mm 0,0 UV-I 0 W/m 13,7 C 14,2 C 0,0 km/h (0 Bft) 100,00 %
29.05.2016 01:24 14,3 C 97 % 1006,5 hPa 0,0 l/m 0,0 km/h (0 Bft) SW 214 0 min 0,000 mm 0,0 UV-I 0 W/m 13,8 C 14,3 C 0,0 km/h (0 Bft) 100,00 %
29.05.2016 01:25 14,2 C 97 % 1006,5 hPa 0,0 l/m 0,0 km/h (0 Bft) SW 214 0 min 0,000 mm 0,0 UV-I 0 W/m 13,7 C 14,2 C 0,0 km/h (0 Bft) 100,00 %
29.05.2016 01:26 14,2 C 97 % 1006,5 hPa 0,0 l/m 0,0 km/h (0 Bft) SW 214 0 min 0,000 mm 0,0 UV-I 0 W/m 13,7 C 14,2 C 0,0 km/h (0 Bft) 100,00 %
29.05.2016 01:27 14,2 C 97 % 1006,4 hPa 0,0 l/m 0,0 km/h (0 Bft) SW 214 0 min 0,000 mm 0,0 UV-I 0 W/m 13,7 C 14,2 C 0,0 km/h (0 Bft) 100,00 %
29.05.2016 01:28 14,2 C 97 % 1006,4 hPa 0,0 l/m 0,1 km/h (0 Bft) SW 214 0 min 0,000 mm 0,0 UV-I 0 W/m 13,7 C 14,2 C 1,6 km/h (1 Bft) 100,00 %
29.05.2016 01:29 14,2 C 97 % 1006,4 hPa 0,0 l/m 1,4 km/h (1 Bft) SW 214 0 min 0,000 mm 0,0 UV-I 0 W/m 13,7 C 14,2 C 1,6 km/h (1 Bft) 100,00 %
29.05.2016 01:30 14,2 C 97 % 1006,4 hPa 0,0 l/m 1,6 km/h (1 Bft) SW 214 0 min 0,000 mm 0,0 UV-I 0 W/m 13,7 C 14,2 C 1,6 km/h (1 Bft) 100,00 %
29.05.2016 01:31 14,2 C 97 % 1006,4 hPa 0,0 l/m 1,0 km/h (0 Bft) SW 214 0 min 0,000 mm 0,0 UV-I 0 W/m 13,7 C 14,2 C 1,6 km/h (1 Bft) 100,00 %
29.05.2016 01:32 14,2 C 97 % 1006,4 hPa 0,0 l/m 0,6 km/h (0 Bft) SW 214 0 min 0,000 mm 0,0 UV-I 0 W/m 13,7 C 14,2 C 1,6 km/h (1 Bft) 91,67 %
29.05.2016 01:33 14,2 C 97 % 1006,4 hPa 0,0 l/m 1,0 km/h (0 Bft) SW 214 0 min 0,000 mm 0,0 UV-I 0 W/m 13,7 C 14,2 C 1,6 km/h (1 Bft) 100,00 %
29.05.2016 01:34 14,2 C 97 % 1006,4 hPa 0,0 l/m 0,4 km/h (0 Bft) SW 214 0 min 0,000 mm 0,0 UV-I 0 W/m 13,7 C 14,2 C 1,6 km/h (1 Bft) 95,83 %
29.05.2016 01:35 14,1 C 97 % 1006,4 hPa 0,0 l/m 0,2 km/h (0 Bft) SW 214 0 min 0,000 mm 0,0 UV-I 0 W/m 13,6 C 14,1 C 1,6 km/h (1 Bft) 100,00 %
29.05.2016 01:36 14,1 C 97 % 1006,3 hPa 0,0 l/m 0,0 km/h (0 Bft) SW 214 0 min 0,000 mm 0,0 UV-I 0 W/m 13,6 C 14,1 C 0,0 km/h (0 Bft) 95,83 %
29.05.2016 01:37 14,1 C 97 % 1006,4 hPa 0,0 l/m 0,1 km/h (0 Bft) SW 214 0 min 0,000 mm 0,0 UV-I 0 W/m 13,6 C 14,1 C 1,6 km/h (1 Bft) 96,15 %
29.05.2016 01:38 13,9 C 97 % 1006,3 hPa 0,0 l/m 1,4 km/h (1 Bft) SW 214 0 min 0,000 mm 0,0 UV-I 0 W/m 13,4 C 13,9 C 1,6 km/h (1 Bft) 96,30 %
29.05.2016 01:39 13,8 C 96 % 1006,3 hPa 0,0 l/m 1,0 km/h (0 Bft) SW 214 0 min 0,000 mm 0,0 UV-I 0 W/m 13,2 C 13,8 C 1,6 km/h (1 Bft) 95,65 %
29.05.2016 01:40 13,8 C 97 % 1006,3 hPa 0,0 l/m 1,3 km/h (1 Bft) SW 214 0 min 0,000 mm 0,0 UV-I 0 W/m 13,3 C 13,8 C 1,6 km/h (1 Bft) 100,00 %
29.05.2016 01:41 13,8 C 96 % 1006,3 hPa 0,0 l/m 1,4 km/h (1 Bft) SW 214 0 min 0,000 mm 0,0 UV-I 0 W/m 13,2 C 13,8 C 1,6 km/h (1 Bft) 95,65 %
29.05.2016 01:42 13,8 C 97 % 1006,3 hPa 0,0 l/m 1,6 km/h (1 Bft) SW 214 0 min 0,000 mm 0,0 UV-I 0 W/m 13,3 C 13,8 C 1,6 km/h (1 Bft) 100,00 %
29.05.2016 01:43 13,8 C 97 % 1006,3 hPa 0,0 l/m 1,6 km/h (1 Bft) SW 214 0 min 0,000 mm 0,0 UV-I 0 W/m 13,3 C 13,8 C 1,6 km/h (1 Bft) 90,91 %
29.05.2016 01:44 13,9 C 97 % 1006,3 hPa 0,0 l/m 0,6 km/h (0 Bft) SW 214 0 min 0,000 mm 0,0 UV-I 0 W/m 13,4 C 13,9 C 1,6 km/h (1 Bft) 100,00 %
29.05.2016 01:45 13,9 C 97 % 1006,3 hPa 0,0 l/m 0,0 km/h (0 Bft) SW 214 0 min 0,000 mm 0,0 UV-I 0 W/m 13,4 C 13,9 C 0,0 km/h (0 Bft) 83,33 %
29.05.2016 01:46 13,9 C 97 % 1006,3 hPa 0,0 l/m 0,0 km/h (0 Bft) SW 214 0 min 0,000 mm 0,0 UV-I 0 W/m 13,4 C 13,9 C 0,0 km/h (0 Bft) 97,56 %
29.05.2016 01:47 13,9 C 97 % 1006,3 hPa 0,0 l/m 0,0 km/h (0 Bft) SW 214 0 min 0,000 mm 0,0 UV-I 0 W/m 13,4 C 13,9 C 0,0 km/h (0 Bft) 100,00 %
29.05.2016 01:48 13,9 C 97 % 1006,2 hPa 0,0 l/m 0,0 km/h (0 Bft) SW 214 0 min 0,000 mm 0,0 UV-I 0 W/m 13,4 C 13,9 C 0,0 km/h (0 Bft) 95,83 %
29.05.2016 01:49 13,8 C 97 % 1006,3 hPa 0,0 l/m 0,0 km/h (0 Bft) SW 214 0 min 0,000 mm 0,0 UV-I 0 W/m 13,3 C 13,8 C 0,0 km/h (0 Bft) 100,00 %
29.05.2016 01:50 13,8 C 97 % 1006,2 hPa 0,0 l/m 0,0 km/h (0 Bft) SW 214 0 min 0,000 mm 0,0 UV-I 0 W/m 13,3 C 13,8 C 0,0 km/h (0 Bft) 96,15 %
29.05.2016 01:51 13,7 C 97 % 1006,2 hPa 0,0 l/m 0,1 km/h (0 Bft) SW 214 0 min 0,000 mm 0,0 UV-I 0 W/m 13,2 C 13,7 C 1,6 km/h (1 Bft) 100,00 %
29.05.2016 01:52 13,7 C 97 % 1006,2 hPa 0,0 l/m 0,5 km/h (0 Bft) SW 214 0 min 0,000 mm 0,0 UV-I 0 W/m 13,2 C 13,7 C 1,6 km/h (1 Bft) 91,30 %
29.05.2016 01:53 13,7 C 97 % 1006,2 hPa 0,0 l/m 0,3 km/h (0 Bft) SW 214 0 min 0,000 mm 0,0 UV-I 0 W/m 13,2 C 13,7 C 1,6 km/h (1 Bft) 100,00 %
29.05.2016 01:54 13,7 C 97 % 1006,2 hPa 0,0 l/m 0,0 km/h (0 Bft) SW 214 0 min 0,000 mm 0,0 UV-I 0 W/m 13,2 C 13,7 C 0,0 km/h (0 Bft) 95,65 %
29.05.2016 01:55 13,8 C 97 % 1006,2 hPa 0,0 l/m 0,0 km/h (0 Bft) SW 214 0 min 0,000 mm 0,0 UV-I 0 W/m 13,3 C 13,8 C 0,0 km/h (0 Bft) 100,00 %
29.05.2016 01:56 13,8 C 97 % 1006,2 hPa 0,0 l/m 0,0 km/h (0 Bft) SW 214 0 min 0,000 mm 0,0 UV-I 0 W/m 13,3 C 13,8 C 0,0 km/h (0 Bft) 95,65 %
29.05.2016 01:57 13,8 C 97 % 1006,2 hPa 0,0 l/m 0,0 km/h (0 Bft) SW 214 0 min 0,000 mm 0,0 UV-I 0 W/m 13,3 C 13,8 C 0,0 km/h (0 Bft) 95,83 %
29.05.2016 01:58 13,8 C 97 % 1006,1 hPa 0,0 l/m 0,2 km/h (0 Bft) SW 214 0 min 0,000 mm 0,0 UV-I 0 W/m 13,3 C 13,8 C 1,6 km/h (1 Bft) 96,15 %
29.05.2016 01:59 13,8 C 97 % 1006,1 hPa 0,0 l/m 0,3 km/h (0 Bft) SW 214 0 min 0,000 mm 0,0 UV-I 0 W/m 13,3 C 13,8 C 1,6 km/h (1 Bft) 95,83 %
29.05.2016 02:00 13,7 C 97 % 1006,1 hPa 0,0 l/m 0,3 km/h (0 Bft) SW 214 0 min 0,000 mm 0,0 UV-I 0 W/m 13,2 C 13,7 C 1,6 km/h (1 Bft) 100,00 %
29.05.2016 02:02 13,5 C 97 % 1006,1 hPa 0,0 l/m 1,1 km/h (1 Bft) SW 214 0 min 0,000 mm 0,0 UV-I 0 W/m 13,0 C 13,5 C 3,2 km/h (1 Bft) 96,00 %
29.05.2016 02:03 13,4 C 96 % 1006,1 hPa 0,0 l/m 0,0 km/h (0 Bft) SW 214 0 min 0,000 mm 0,0 UV-I 0 W/m 12,8 C 13,4 C 0,0 km/h (0 Bft) 95,83 %
29.05.2016 02:04 13,3 C 96 % 1006,2 hPa 0,0 l/m 0,0 km/h (0 Bft) SW 214 0 min 0,000 mm 0,0 UV-I 0 W/m 12,7 C 13,3 C 0,0 km/h (0 Bft) 95,65 %
29.05.2016 02:05 13,3 C 97 % 1006,2 hPa 0,0 l/m 0,4 km/h (0 Bft) SW 214 0 min 0,000 mm 0,0 UV-I 0 W/m 12,8 C 13,3 C 3,2 km/h (1 Bft) 100,00 %
29.05.2016 02:06 13,3 C 97 % 1006,2 hPa 0,0 l/m 2,0 km/h (1 Bft) SW 214 0 min 0,000 mm 0,0 UV-I 0 W/m 12,8 C 13,3 C 3,2 km/h (1 Bft) 100,00 %
29.05.2016 02:07 13,4 C 97 % 1006,2 hPa 0,0 l/m 3,0 km/h (1 Bft) SW 214 0 min 0,000 mm 0,0 UV-I 0 W/m 12,9 C 13,4 C 3,2 km/h (1 Bft) 100,00 %
29.05.2016 02:08 13,4 C 97 % 1006,2 hPa 0,0 l/m 3,1 km/h (1 Bft) SW 214 0 min 0,000 mm 0,0 UV-I 0 W/m 12,9 C 13,4 C 3,2 km/h (1 Bft) 100,00 %
29.05.2016 02:09 13,4 C 97 % 1006,2 hPa 0,0 l/m 3,3 km/h (1 Bft) O-SO 111 0 min 0,000 mm 0,0 UV-I 0 W/m 12,9 C 13,4 C 4,8 km/h (1 Bft) 100,00 %
29.05.2016 02:10 13,4 C 97 % 1006,3 hPa 0,0 l/m 4,4 km/h (1 Bft) O 82 0 min 0,000 mm 0,0 UV-I 0 W/m 12,9 C 13,4 C 4,8 km/h (1 Bft) 100,00 %
29.05.2016 02:11 13,5 C 97 % 1006,3 hPa 0,0 l/m 3,7 km/h (1 Bft) O 82 0 min 0,000 mm 0,0 UV-I 0 W/m 13,0 C 13,5 C 4,8 km/h (1 Bft) 95,83 %
29.05.2016 02:12 13,6 C 97 % 1006,2 hPa 0,0 l/m 5,2 km/h (1 Bft) O 82 0 min 0,000 mm 0,0 UV-I 0 W/m 13,1 C 13,6 C 6,4 km/h (2 Bft) 100,00 %
29.05.2016 02:13 13,6 C 97 % 1006,2 hPa 0,0 l/m 4,8 km/h (1 Bft) O 82 0 min 0,000 mm 0,0 UV-I 0 W/m 13,1 C 13,6 C 6,4 km/h (2 Bft) 95,83 %
29.05.2016 02:14 13,6 C 97 % 1006,2 hPa 0,0 l/m 3,8 km/h (1 Bft) O 82 0 min 0,000 mm 0,0 UV-I 0 W/m 13,1 C 13,6 C 4,8 km/h (1 Bft) 100,00 %
29.05.2016 02:15 13,6 C 97 % 1006,3 hPa 0,0 l/m 3,1 km/h (1 Bft) O 89 0 min 0,000 mm 0,0 UV-I 0 W/m 13,1 C 13,6 C 4,8 km/h (1 Bft) 90,91 %
29.05.2016 02:16 13,6 C 97 % 1006,3 hPa 0,0 l/m 2,3 km/h (1 Bft) O-SO 105 0 min 0,000 mm 0,0 UV-I 0 W/m 13,1 C 13,6 C 3,2 km/h (1 Bft) 100,00 %
29.05.2016 02:17 13,6 C 97 % 1006,3 hPa 0,0 l/m 2,7 km/h (1 Bft) O-SO 109 0 min 0,000 mm 0,0 UV-I 0 W/m 13,1 C 13,6 C 3,2 km/h (1 Bft) 100,00 %
29.05.2016 02:18 13,6 C 97 % 1006,3 hPa 0,0 l/m 3,1 km/h (1 Bft) O-SO 109 0 min 0,000 mm 0,0 UV-I 0 W/m 13,1 C 13,6 C 4,8 km/h (1 Bft) 100,00 %
29.05.2016 02:19 13,5 C 97 % 1006,3 hPa 0,0 l/m 2,6 km/h (1 Bft) O-SO 109 0 min 0,000 mm 0,0 UV-I 0 W/m 13,0 C 13,5 C 3,2 km/h (1 Bft) 100,00 %
29.05.2016 02:20 13,5 C 97 % 1006,3 hPa 0,0 l/m 2,8 km/h (1 Bft) O 98 0 min 0,000 mm 0,0 UV-I 0 W/m 13,0 C 13,5 C 4,8 km/h (1 Bft) 100,00 %
29.05.2016 02:21 13,6 C 97 % 1006,3 hPa 0,0 l/m 2,8 km/h (1 Bft) O 98 0 min 0,000 mm 0,0 UV-I 0 W/m 13,1 C 13,6 C 3,2 km/h (1 Bft) 95,65 %
29.05.2016 02:22 13,7 C 97 % 1006,3 hPa 0,0 l/m 1,3 km/h (1 Bft) O 98 0 min 0,000 mm 0,0 UV-I 0 W/m 13,2 C 13,7 C 3,2 km/h (1 Bft) 100,00 %
29.05.2016 02:23 13,6 C 97 % 1006,3 hPa 0,0 l/m 4,1 km/h (1 Bft) O 98 0 min 0,000 mm 0,0 UV-I 0 W/m 13,1 C 13,6 C 4,8 km/h (1 Bft) 100,00 %
29.05.2016 02:24 13,6 C 97 % 1006,3 hPa 0,0 l/m 5,7 km/h (1 Bft) O-NO 66 0 min 0,000 mm 0,0 UV-I 0 W/m 13,1 C 13,6 C 6,4 km/h (2 Bft) 100,00 %
29.05.2016 02:25 13,6 C 97 % 1006,3 hPa 0,0 l/m 5,5 km/h (1 Bft) NO 53 0 min 0,000 mm 0,0 UV-I 0 W/m 13,1 C 13,6 C 6,4 km/h (2 Bft) 100,00 %
29.05.2016 02:26 13,7 C 97 % 1006,3 hPa 0,0 l/m 6,1 km/h (2 Bft) O-NO 58 0 min 0,000 mm 0,0 UV-I 0 W/m 13,2 C 13,7 C 8,0 km/h (2 Bft) 100,00 %
29.05.2016 02:27 13,8 C 97 % 1006,2 hPa 0,0 l/m 6,4 km/h (2 Bft) O-NO 57 0 min 0,000 mm 0,0 UV-I 0 W/m 13,3 C 13,8 C 8,0 km/h (2 Bft) 100,00 %
29.05.2016 02:28 13,9 C 98 % 1006,3 hPa 0,0 l/m 6,4 km/h (2 Bft) NO 52 0 min 0,000 mm 0,0 UV-I 0 W/m 13,6 C 13,9 C 8,0 km/h (2 Bft) 100,00 %
29.05.2016 02:29 13,9 C 98 % 1006,3 hPa 0,0 l/m 7,1 km/h (2 Bft) NO 51 0 min 0,000 mm 0,0 UV-I 0 W/m 13,6 C 13,5 C 8,0 km/h (2 Bft) 91,30 %
29.05.2016 02:30 14,0 C 98 % 1006,3 hPa 0,0 l/m 5,4 km/h (1 Bft) O-NO 69 0 min 0,000 mm 0,0 UV-I 0 W/m 13,7 C 14,0 C 8,0 km/h (2 Bft) 100,00 %
29.05.2016 02:31 14,0 C 98 % 1006,3 hPa 0,0 l/m 5,6 km/h (1 Bft) O-NO 73 0 min 0,000 mm 0,0 UV-I 0 W/m 13,7 C 14,0 C 6,4 km/h (2 Bft) 100,00 %
29.05.2016 02:32 14,0 C 98 % 1006,4 hPa 0,0 l/m 4,6 km/h (1 Bft) O 85 0 min 0,000 mm 0,0 UV-I 0 W/m 13,7 C 14,0 C 6,4 km/h (2 Bft) 100,00 %
29.05.2016 02:33 14,1 C 98 % 1006,4 hPa 0,0 l/m 4,6 km/h (1 Bft) O 79 0 min 0,000 mm 0,0 UV-I 0 W/m 13,8 C 14,1 C 4,8 km/h (1 Bft) 100,00 %
29.05.2016 02:34 14,1 C 98 % 1006,5 hPa 0,0 l/m 5,3 km/h (1 Bft) O-NO 65 0 min 0,000 mm 0,0 UV-I 0 W/m 13,8 C 14,1 C 8,0 km/h (2 Bft) 100,00 %
29.05.2016 02:35 14,1 C 98 % 1006,5 hPa 0,0 l/m 5,1 km/h (1 Bft) O-NO 63 0 min 0,000 mm 0,0 UV-I 0 W/m 13,8 C 14,1 C 6,4 km/h (2 Bft) 100,00 %
29.05.2016 02:36 14,1 C 98 % 1006,5 hPa 0,0 l/m 4,8 km/h (1 Bft) O-NO 62 0 min 0,000 mm 0,0 UV-I 0 W/m 13,8 C 14,1 C 6,4 km/h (2 Bft) 100,00 %
29.05.2016 02:37 14,1 C 98 % 1006,5 hPa 0,0 l/m 4,0 km/h (1 Bft) O-NO 62 0 min 0,000 mm 0,0 UV-I 0 W/m 13,8 C 14,1 C 4,8 km/h (1 Bft) 100,00 %
29.05.2016 02:38 14,1 C 98 % 1006,5 hPa 0,0 l/m 4,3 km/h (1 Bft) O-NO 69 0 min 0,000 mm 0,0 UV-I 0 W/m 13,8 C 14,1 C 6,4 km/h (2 Bft) 96,15 %
29.05.2016 02:39 14,2 C 98 % 1006,5 hPa 0,0 l/m 4,7 km/h (1 Bft) O-NO 69 0 min 0,000 mm 0,0 UV-I 0 W/m 13,9 C 14,2 C 6,4 km/h (2 Bft) 100,00 %
29.05.2016 02:40 14,2 C 98 % 1006,6 hPa 0,0 l/m 4,1 km/h (1 Bft) O-NO 69 0 min 0,000 mm 0,0 UV-I 0 W/m 13,9 C 14,2 C 4,8 km/h (1 Bft) 92,86 %
29.05.2016 02:41 14,1 C 98 % 1006,6 hPa 0,0 l/m 5,1 km/h (1 Bft) O 80 0 min 0,000 mm 0,0 UV-I 0 W/m 13,8 C 14,1 C 6,4 km/h (2 Bft) 100,00 %
29.05.2016 02:42 14,1 C 97 % 1006,7 hPa 0,0 l/m 6,4 km/h (2 Bft) O-NO 67 0 min 0,000 mm 0,0 UV-I 0 W/m 13,6 C 14,1 C 8,0 km/h (2 Bft) 100,00 %
29.05.2016 02:43 14,1 C 97 % 1006,7 hPa 0,0 l/m 5,4 km/h (1 Bft) O-NO 67 0 min 0,000 mm 0,0 UV-I 0 W/m 13,6 C 14,1 C 8,0 km/h (2 Bft) 100,00 %
29.05.2016 02:44 14,1 C 97 % 1006,6 hPa 0,0 l/m 7,9 km/h (2 Bft) O 82 0 min 0,000 mm 0,0 UV-I 0 W/m 13,6 C 13,2 C 11,3 km/h (2 Bft) 92,31 %
29.05.2016 02:45 14,1 C 97 % 1006,5 hPa 0,0 l/m 9,5 km/h (2 Bft) O-NO 77 0 min 0,000 mm 0,0 UV-I 0 W/m 13,6 C 12,4 C 12,9 km/h (3 Bft) 100,00 %
29.05.2016 02:46 14,1 C 97 % 1006,6 hPa 0,0 l/m 8,1 km/h (2 Bft) O-NO 74 0 min 0,000 mm 0,0 UV-I 0 W/m 13,6 C 13,1 C 12,9 km/h (3 Bft) 100,00 %
29.05.2016 02:47 14,1 C 97 % 1006,6 hPa 0,0 l/m 7,9 km/h (2 Bft) O-NO 67 0 min 0,000 mm 0,0 UV-I 0 W/m 13,6 C 13,2 C 12,9 km/h (3 Bft) 100,00 %
29.05.2016 02:48 14,1 C 97 % 1006,6 hPa 0,0 l/m 8,0 km/h (2 Bft) O 83 0 min 0,000 mm 0,0 UV-I 0 W/m 13,6 C 13,2 C 12,9 km/h (3 Bft) 96,15 %
29.05.2016 02:49 14,1 C 97 % 1006,6 hPa 0,0 l/m 10,0 km/h (2 Bft) O-NO 68 0 min 0,000 mm 0,0 UV-I 0 W/m 13,6 C 12,1 C 14,5 km/h (3 Bft) 100,00 %
29.05.2016 02:50 14,1 C 97 % 1006,7 hPa 0,0 l/m 8,5 km/h (2 Bft) O 86 0 min 0,000 mm 0,0 UV-I 0 W/m 13,6 C 12,9 C 12,9 km/h (3 Bft) 93,10 %
29.05.2016 02:51 14,1 C 97 % 1006,7 hPa 0,0 l/m 8,0 km/h (2 Bft) O-NO 75 0 min 0,000 mm 0,0 UV-I 0 W/m 13,6 C 13,2 C 12,9 km/h (3 Bft) 100,00 %
29.05.2016 02:52 14,2 C 97 % 1006,6 hPa 0,0 l/m 8,9 km/h (2 Bft) O-NO 65 0 min 0,000 mm 0,0 UV-I 0 W/m 13,7 C 12,8 C 12,9 km/h (3 Bft) 100,00 %
29.05.2016 02:53 14,2 C 97 % 1006,6 hPa 0,0 l/m 9,3 km/h (2 Bft) O-NO 77 0 min 0,000 mm 0,0 UV-I 0 W/m 13,7 C 12,6 C 12,9 km/h (3 Bft) 95,65 %
29.05.2016 02:54 14,2 C 97 % 1006,7 hPa 0,0 l/m 8,1 km/h (2 Bft) O-NO 65 0 min 0,000 mm 0,0 UV-I 0 W/m 13,7 C 13,2 C 11,3 km/h (2 Bft) 100,00 %
29.05.2016 02:55 14,2 C 97 % 1006,7 hPa 0,0 l/m 9,3 km/h (2 Bft) O-NO 68 0 min 0,000 mm 0,0 UV-I 0 W/m 13,7 C 12,6 C 12,9 km/h (3 Bft) 100,00 %
29.05.2016 02:56 14,1 C 97 % 1006,6 hPa 0,0 l/m 9,2 km/h (2 Bft) O-NO 69 0 min 0,000 mm 0,0 UV-I 0 W/m 13,6 C 12,5 C 12,9 km/h (3 Bft) 100,00 %
29.05.2016 02:57 14,1 C 97 % 1006,6 hPa 0,0 l/m 10,5 km/h (2 Bft) O 86 0 min 0,000 mm 0,0 UV-I 0 W/m 13,6 C 11,9 C 14,5 km/h (3 Bft) 100,00 %
29.05.2016 02:58 14,1 C 97 % 1006,7 hPa 0,0 l/m 10,4 km/h (2 Bft) O-NO 76 0 min 0,000 mm 0,0 UV-I 0 W/m 13,6 C 11,9 C 14,5 km/h (3 Bft) 100,00 %
29.05.2016 02:59 14,1 C 97 % 1006,7 hPa 0,0 l/m 9,4 km/h (2 Bft) O-NO 73 0 min 0,000 mm 0,0 UV-I 0 W/m 13,6 C 12,4 C 11,3 km/h (2 Bft) 93,10 %
29.05.2016 03:00 14,0 C 97 % 1006,8 hPa 0,0 l/m 8,9 km/h (2 Bft) O-NO 67 0 min 0,000 mm 0,0 UV-I 0 W/m 13,5 C 12,6 C 12,9 km/h (3 Bft) 100,00 %
29.05.2016 03:03 13,9 C 97 % 1006,8 hPa 0,0 l/m 9,0 km/h (2 Bft) O-NO 66 0 min 0,000 mm 0,0 UV-I 0 W/m 13,4 C 12,4 C 14,5 km/h (3 Bft) 98,36 %
29.05.2016 03:04 13,9 C 97 % 1006,8 hPa 0,0 l/m 9,4 km/h (2 Bft) O-NO 67 0 min 0,000 mm 0,0 UV-I 0 W/m 13,4 C 12,2 C 12,9 km/h (3 Bft) 100,00 %
29.05.2016 03:05 13,9 C 97 % 1006,8 hPa 0,0 l/m 9,9 km/h (2 Bft) O 84 0 min 0,000 mm 0,0 UV-I 0 W/m 13,4 C 12,0 C 12,9 km/h (3 Bft) 96,15 %
29.05.2016 03:06 14,0 C 97 % 1006,8 hPa 0,0 l/m 9,1 km/h (2 Bft) O 84 0 min 0,000 mm 0,0 UV-I 0 W/m 13,5 C 12,5 C 14,5 km/h (3 Bft) 91,67 %
29.05.2016 03:07 14,1 C 98 % 1006,8 hPa 0,0 l/m 8,2 km/h (2 Bft) O-NO 73 0 min 0,000 mm 0,0 UV-I 0 W/m 13,8 C 13,0 C 14,5 km/h (3 Bft) 100,00 %
29.05.2016 03:08 14,1 C 97 % 1006,7 hPa 0,0 l/m 8,0 km/h (2 Bft) O-NO 71 0 min 0,000 mm 0,0 UV-I 0 W/m 13,6 C 13,2 C 11,3 km/h (2 Bft) 100,00 %
29.05.2016 03:09 14,2 C 98 % 1006,8 hPa 0,0 l/m 8,7 km/h (2 Bft) O-NO 65 0 min 0,000 mm 0,0 UV-I 0 W/m 13,9 C 12,9 C 14,5 km/h (3 Bft) 96,15 %
29.05.2016 03:10 14,2 C 98 % 1006,7 hPa 0,0 l/m 9,6 km/h (2 Bft) O-NO 64 0 min 0,000 mm 0,0 UV-I 0 W/m 13,9 C 12,4 C 12,9 km/h (3 Bft) 100,00 %
29.05.2016 03:11 14,2 C 98 % 1006,7 hPa 0,0 l/m 10,6 km/h (2 Bft) O-NO 63 0 min 0,000 mm 0,0 UV-I 0 W/m 13,9 C 12,0 C 12,9 km/h (3 Bft) 100,00 %
29.05.2016 03:12 14,3 C 98 % 1006,7 hPa 0,0 l/m 9,8 km/h (2 Bft) O-NO 61 0 min 0,000 mm 0,0 UV-I 0 W/m 14,0 C 12,4 C 14,5 km/h (3 Bft) 100,00 %
29.05.2016 03:13 14,3 C 98 % 1006,7 hPa 0,0 l/m 10,8 km/h (2 Bft) O-NO 63 0 min 0,000 mm 0,0 UV-I 0 W/m 14,0 C 12,0 C 16,1 km/h (3 Bft) 100,00 %
29.05.2016 03:14 14,3 C 98 % 1006,7 hPa 0,0 l/m 9,3 km/h (2 Bft) O-NO 59 0 min 0,000 mm 0,0 UV-I 0 W/m 14,0 C 12,7 C 12,9 km/h (3 Bft) 100,00 %
29.05.2016 03:15 14,3 C 98 % 1006,8 hPa 0,0 l/m 9,7 km/h (2 Bft) O-NO 74 0 min 0,000 mm 0,0 UV-I 0 W/m 14,0 C 12,5 C 16,1 km/h (3 Bft) 100,00 %
29.05.2016 03:16 14,4 C 98 % 1006,7 hPa 0,0 l/m 13,2 km/h (3 Bft) O-NO 76 0 min 0,000 mm 0,0 UV-I 0 W/m 14,1 C 11,1 C 17,7 km/h (3 Bft) 100,00 %
29.05.2016 03:17 14,4 C 98 % 1006,7 hPa 0,0 l/m 9,7 km/h (2 Bft) O-SO 105 0 min 0,000 mm 0,0 UV-I 0 W/m 14,1 C 12,6 C 14,5 km/h (3 Bft) 100,00 %
29.05.2016 03:18 14,4 C 98 % 1006,7 hPa 0,0 l/m 10,0 km/h (2 Bft) O-NO 72 0 min 0,000 mm 0,0 UV-I 0 W/m 14,1 C 12,5 C 12,9 km/h (3 Bft) 100,00 %
29.05.2016 03:19 14,4 C 98 % 1006,7 hPa 0,0 l/m 10,1 km/h (2 Bft) O-SO 115 0 min 0,000 mm 0,0 UV-I 0 W/m 14,1 C 12,4 C 14,5 km/h (3 Bft) 100,00 %
29.05.2016 03:20 14,4 C 98 % 1006,7 hPa 0,0 l/m 11,1 km/h (2 Bft) O 92 0 min 0,000 mm 0,0 UV-I 0 W/m 14,1 C 12,0 C 19,3 km/h (3 Bft) 100,00 %
29.05.2016 03:21 14,4 C 98 % 1006,8 hPa 0,0 l/m 8,7 km/h (2 Bft) SO 146 0 min 0,000 mm 0,0 UV-I 0 W/m 14,1 C 13,1 C 16,1 km/h (3 Bft) 100,00 %
29.05.2016 03:22 14,5 C 98 % 1006,7 hPa 0,0 l/m 10,9 km/h (2 Bft) O-SO 122 0 min 0,000 mm 0,0 UV-I 0 W/m 14,2 C 12,2 C 17,7 km/h (3 Bft) 100,00 %
29.05.2016 03:23 14,5 C 98 % 1006,7 hPa 0,0 l/m 9,4 km/h (2 Bft) O-SO 114 0 min 0,000 mm 0,0 UV-I 0 W/m 14,2 C 12,9 C 12,9 km/h (3 Bft) 100,00 %
29.05.2016 03:24 14,5 C 98 % 1006,7 hPa 0,0 l/m 9,3 km/h (2 Bft) O-NO 75 0 min 0,000 mm 0,0 UV-I 0 W/m 14,2 C 12,9 C 12,9 km/h (3 Bft) 100,00 %
29.05.2016 03:25 14,5 C 98 % 1006,7 hPa 0,0 l/m 4,8 km/h (1 Bft) O 101 0 min 0,000 mm 0,0 UV-I 0 W/m 14,2 C 14,5 C 6,4 km/h (2 Bft) 100,00 %
29.05.2016 03:26 14,5 C 98 % 1006,7 hPa 0,0 l/m 8,1 km/h (2 Bft) O-SO 103 0 min 0,000 mm 0,0 UV-I 0 W/m 14,2 C 13,5 C 12,9 km/h (3 Bft) 100,00 %
29.05.2016 03:27 14,6 C 98 % 1006,7 hPa 0,0 l/m 5,5 km/h (1 Bft) O 88 0 min 0,000 mm 0,0 UV-I 0 W/m 14,3 C 14,6 C 8,0 km/h (2 Bft) 100,00 %
29.05.2016 03:28 14,6 C 98 % 1006,7 hPa 0,0 l/m 6,0 km/h (2 Bft) O-NO 65 0 min 0,000 mm 0,0 UV-I 0 W/m 14,3 C 14,6 C 9,7 km/h (2 Bft) 100,00 %
29.05.2016 03:29 14,6 C 98 % 1006,6 hPa 0,0 l/m 8,4 km/h (2 Bft) O-SO 109 0 min 0,000 mm 0,0 UV-I 0 W/m 14,3 C 13,5 C 12,9 km/h (3 Bft) 100,00 %
29.05.2016 03:30 14,6 C 98 % 1006,7 hPa 0,0 l/m 10,4 km/h (2 Bft) O 83 0 min 0,000 mm 0,0 UV-I 0 W/m 14,3 C 12,5 C 12,9 km/h (3 Bft) 100,00 %
29.05.2016 03:31 14,6 C 98 % 1006,7 hPa 0,0 l/m 11,0 km/h (2 Bft) O-SO 115 0 min 0,000 mm 0,0 UV-I 0 W/m 14,3 C 12,2 C 16,1 km/h (3 Bft) 100,00 %
29.05.2016 03:32 14,6 C 98 % 1006,7 hPa 0,0 l/m 11,8 km/h (2 Bft) O 84 0 min 0,000 mm 0,0 UV-I 0 W/m 14,3 C 11,9 C 16,1 km/h (3 Bft) 100,00 %
29.05.2016 03:33 14,6 C 98 % 1006,7 hPa 0,0 l/m 9,4 km/h (2 Bft) O 96 0 min 0,000 mm 0,0 UV-I 0 W/m 14,3 C 13,0 C 12,9 km/h (3 Bft) 100,00 %
29.05.2016 03:34 14,6 C 98 % 1006,7 hPa 0,0 l/m 4,2 km/h (1 Bft) O 89 0 min 0,000 mm 0,0 UV-I 0 W/m 14,3 C 14,6 C 4,8 km/h (1 Bft) 91,67 %
29.05.2016 03:35 14,6 C 98 % 1006,7 hPa 0,0 l/m 3,9 km/h (1 Bft) O 92 0 min 0,000 mm 0,0 UV-I 0 W/m 14,3 C 14,6 C 6,4 km/h (2 Bft) 100,00 %
29.05.2016 03:36 14,6 C 98 % 1006,7 hPa 0,0 l/m 6,2 km/h (2 Bft) O-NO 78 0 min 0,000 mm 0,0 UV-I 0 W/m 14,3 C 14,6 C 9,7 km/h (2 Bft) 96,30 %
29.05.2016 03:37 14,6 C 98 % 1006,7 hPa 0,0 l/m 3,5 km/h (1 Bft) O-SO 103 0 min 0,000 mm 0,0 UV-I 0 W/m 14,3 C 14,6 C 4,8 km/h (1 Bft) 100,00 %
29.05.2016 03:38 14,6 C 98 % 1006,7 hPa 0,0 l/m 6,7 km/h (2 Bft) O 82 0 min 0,000 mm 0,0 UV-I 0 W/m 14,3 C 14,4 C 12,9 km/h (3 Bft) 96,30 %
29.05.2016 03:39 14,7 C 98 % 1006,7 hPa 0,0 l/m 10,8 km/h (2 Bft) O-NO 75 0 min 0,000 mm 0,0 UV-I 0 W/m 14,4 C 12,4 C 14,5 km/h (3 Bft) 95,65 %
29.05.2016 03:40 14,7 C 98 % 1006,7 hPa 0,0 l/m 7,6 km/h (2 Bft) O-NO 77 0 min 0,000 mm 0,0 UV-I 0 W/m 14,4 C 14,0 C 11,3 km/h (2 Bft) 100,00 %
29.05.2016 03:41 14,7 C 98 % 1006,6 hPa 0,0 l/m 6,2 km/h (2 Bft) O-SO 103 0 min 0,000 mm 0,0 UV-I 0 W/m 14,4 C 14,7 C 11,3 km/h (2 Bft) 95,65 %
29.05.2016 03:42 14,7 C 98 % 1006,6 hPa 0,0 l/m 8,9 km/h (2 Bft) O 84 0 min 0,000 mm 0,0 UV-I 0 W/m 14,4 C 13,3 C 12,9 km/h (3 Bft) 100,00 %
29.05.2016 03:43 14,7 C 98 % 1006,6 hPa 0,0 l/m 4,7 km/h (1 Bft) O 98 0 min 0,000 mm 0,0 UV-I 0 W/m 14,4 C 14,7 C 9,7 km/h (2 Bft) 95,65 %
29.05.2016 03:44 14,7 C 98 % 1006,6 hPa 0,0 l/m 6,0 km/h (2 Bft) O 86 0 min 0,000 mm 0,0 UV-I 0 W/m 14,4 C 14,7 C 8,0 km/h (2 Bft) 100,00 %
29.05.2016 03:45 14,7 C 98 % 1006,6 hPa 0,0 l/m 7,5 km/h (2 Bft) O-SO 108 0 min 0,000 mm 0,0 UV-I 0 W/m 14,4 C 14,1 C 11,3 km/h (2 Bft) 95,65 %
29.05.2016 03:46 14,7 C 98 % 1006,6 hPa 0,0 l/m 7,0 km/h (2 Bft) O-SO 116 0 min 0,000 mm 0,0 UV-I 0 W/m 14,4 C 14,4 C 11,3 km/h (2 Bft) 100,00 %
29.05.2016 03:47 14,7 C 98 % 1006,7 hPa 0,0 l/m 5,5 km/h (1 Bft) O 86 0 min 0,000 mm 0,0 UV-I 0 W/m 14,4 C 14,7 C 8,0 km/h (2 Bft) 96,15 %
29.05.2016 03:48 14,7 C 98 % 1006,6 hPa 0,0 l/m 7,2 km/h (2 Bft) O 92 0 min 0,000 mm 0,0 UV-I 0 W/m 14,4 C 14,2 C 11,3 km/h (2 Bft) 96,30 %
29.05.2016 03:49 14,7 C 98 % 1006,6 hPa 0,0 l/m 7,6 km/h (2 Bft) O 90 0 min 0,000 mm 0,0 UV-I 0 W/m 14,4 C 14,0 C 12,9 km/h (3 Bft) 100,00 %
29.05.2016 03:50 14,8 C 98 % 1006,6 hPa 0,0 l/m 6,7 km/h (2 Bft) O-NO 71 0 min 0,000 mm 0,0 UV-I 0 W/m 14,5 C 14,6 C 9,7 km/h (2 Bft) 96,55 %
29.05.2016 03:51 14,8 C 98 % 1006,5 hPa 0,0 l/m 7,5 km/h (2 Bft) O-SO 110 0 min 0,000 mm 0,0 UV-I 0 W/m 14,5 C 14,2 C 11,3 km/h (2 Bft) 100,00 %
29.05.2016 03:52 14,8 C 98 % 1006,5 hPa 0,0 l/m 6,3 km/h (2 Bft) O-NO 59 0 min 0,000 mm 0,0 UV-I 0 W/m 14,5 C 14,8 C 9,7 km/h (2 Bft) 86,67 %
29.05.2016 03:53 14,8 C 98 % 1006,5 hPa 0,0 l/m 7,6 km/h (2 Bft) O-NO 67 0 min 0,000 mm 0,0 UV-I 0 W/m 14,5 C 14,1 C 11,3 km/h (2 Bft) 100,00 %
29.05.2016 03:54 14,8 C 98 % 1006,5 hPa 0,0 l/m 11,2 km/h (2 Bft) O 87 0 min 0,000 mm 0,0 UV-I 0 W/m 14,5 C 12,4 C 14,5 km/h (3 Bft) 94,12 %
29.05.2016 03:55 14,8 C 98 % 1006,5 hPa 0,0 l/m 8,5 km/h (2 Bft) O 86 0 min 0,000 mm 0,0 UV-I 0 W/m 14,5 C 13,6 C 12,9 km/h (3 Bft) 96,30 %
29.05.2016 03:56 14,9 C 98 % 1006,5 hPa 0,0 l/m 10,8 km/h (2 Bft) O 96 0 min 0,000 mm 0,0 UV-I 0 W/m 14,6 C 12,7 C 12,9 km/h (3 Bft) 95,65 %
29.05.2016 03:57 14,9 C 98 % 1006,5 hPa 0,0 l/m 7,6 km/h (2 Bft) O-NO 71 0 min 0,000 mm 0,0 UV-I 0 W/m 14,6 C 14,2 C 11,3 km/h (2 Bft) 96,30 %
29.05.2016 03:58 14,9 C 98 % 1006,4 hPa 0,0 l/m 7,9 km/h (2 Bft) SO 126 0 min 0,000 mm 0,0 UV-I 0 W/m 14,6 C 14,1 C 12,9 km/h (3 Bft) 96,15 %
29.05.2016 03:59 14,9 C 98 % 1006,4 hPa 0,0 l/m 10,0 km/h (2 Bft) O 86 0 min 0,000 mm 0,0 UV-I 0 W/m 14,6 C 13,0 C 12,9 km/h (3 Bft) 95,83 %
29.05.2016 04:00 14,9 C 98 % 1006,4 hPa 0,0 l/m 10,2 km/h (2 Bft) O-SO 103 0 min 0,000 mm 0,0 UV-I 0 W/m 14,6 C 12,9 C 12,9 km/h (3 Bft) 100,00 %
29.05.2016 04:03 14,9 C 98 % 1006,3 hPa 0,0 l/m 11,9 km/h (2 Bft) O 101 0 min 0,000 mm 0,0 UV-I 0 W/m 14,6 C 12,2 C 14,5 km/h (3 Bft) 97,37 %
29.05.2016 04:04 14,9 C 98 % 1006,3 hPa 0,0 l/m 9,7 km/h (2 Bft) O 101 0 min 0,000 mm 0,0 UV-I 0 W/m 14,6 C 13,1 C 12,9 km/h (3 Bft) 100,00 %
29.05.2016 04:05 14,9 C 98 % 1006,3 hPa 0,0 l/m 7,2 km/h (2 Bft) O-SO 109 0 min 0,000 mm 0,0 UV-I 0 W/m 14,6 C 14,4 C 11,3 km/h (2 Bft) 92,59 %
29.05.2016 04:06 14,9 C 98 % 1006,3 hPa 0,0 l/m 5,3 km/h (1 Bft) O-SO 116 0 min 0,000 mm 0,0 UV-I 0 W/m 14,6 C 14,9 C 9,7 km/h (2 Bft) 100,00 %
29.05.2016 04:07 14,9 C 98 % 1006,3 hPa 0,0 l/m 10,2 km/h (2 Bft) O-SO 122 0 min 0,000 mm 0,0 UV-I 0 W/m 14,6 C 12,9 C 14,5 km/h (3 Bft) 96,55 %
29.05.2016 04:08 14,9 C 98 % 1006,3 hPa 0,0 l/m 6,9 km/h (2 Bft) O 90 0 min 0,000 mm 0,0 UV-I 0 W/m 14,6 C 14,6 C 9,7 km/h (2 Bft) 96,15 %
29.05.2016 04:09 14,9 C 98 % 1006,3 hPa 0,0 l/m 3,1 km/h (1 Bft) O-SO 109 0 min 0,000 mm 0,0 UV-I 0 W/m 14,6 C 14,9 C 6,4 km/h (2 Bft) 100,00 %
29.05.2016 04:10 14,9 C 98 % 1006,3 hPa 0,0 l/m 3,2 km/h (1 Bft) SO 128 0 min 0,000 mm 0,0 UV-I 0 W/m 14,6 C 14,9 C 4,8 km/h (1 Bft) 97,34 %
29.05.2016 04:11 14,9 C 98 % 1006,3 hPa 0,0 l/m 4,8 km/h (1 Bft) O 99 0 min 0,000 mm 0,0 UV-I 0 W/m 14,6 C 14,9 C 6,4 km/h (2 Bft) 100,00 %
29.05.2016 04:12 14,9 C 98 % 1006,3 hPa 0,0 l/m 4,1 km/h (1 Bft) SO 146 0 min 0,000 mm 0,0 UV-I 0 W/m 14,6 C 14,9 C 6,4 km/h (2 Bft) 93,10 %
29.05.2016 04:13 14,9 C 98 % 1006,2 hPa 0,0 l/m 4,5 km/h (1 Bft) O 101 0 min 0,000 mm 0,0 UV-I 0 W/m 14,6 C 14,9 C 6,4 km/h (2 Bft) 100,00 %
29.05.2016 04:14 14,9 C 98 % 1006,2 hPa 0,0 l/m 8,9 km/h (2 Bft) O-SO 118 0 min 0,000 mm 0,0 UV-I 0 W/m 14,6 C 13,5 C 12,9 km/h (3 Bft) 100,00 %
29.05.2016 04:15 14,9 C 98 % 1006,2 hPa 0,0 l/m 4,3 km/h (1 Bft) SO 136 0 min 0,000 mm 0,0 UV-I 0 W/m 14,6 C 14,9 C 6,4 km/h (2 Bft) 100,00 %
29.05.2016 04:16 14,9 C 98 % 1006,1 hPa 0,0 l/m 5,7 km/h (1 Bft) SO 143 0 min 0,000 mm 0,0 UV-I 0 W/m 14,6 C 14,9 C 9,7 km/h (2 Bft) 100,00 %
29.05.2016 04:17 14,9 C 98 % 1006,2 hPa 0,0 l/m 6,8 km/h (2 Bft) O 82 0 min 0,000 mm 0,0 UV-I 0 W/m 14,6 C 14,7 C 11,3 km/h (2 Bft) 95,65 %
29.05.2016 04:18 14,9 C 98 % 1006,2 hPa 0,0 l/m 6,0 km/h (2 Bft) O-SO 111 0 min 0,000 mm 0,0 UV-I 0 W/m 14,6 C 14,9 C 8,0 km/h (2 Bft) 100,00 %
29.05.2016 04:19 14,9 C 98 % 1006,1 hPa 0,0 l/m 6,8 km/h (2 Bft) O-NO 63 0 min 0,000 mm 0,0 UV-I 0 W/m 14,6 C 14,7 C 14,5 km/h (3 Bft) 100,00 %
29.05.2016 04:20 14,9 C 98 % 1006,1 hPa 0,0 l/m 5,7 km/h (1 Bft) O 86 0 min 0,000 mm 0,0 UV-I 0 W/m 14,6 C 14,9 C 8,0 km/h (2 Bft) 100,00 %
29.05.2016 04:21 14,9 C 98 % 1006,1 hPa 0,0 l/m 4,5 km/h (1 Bft) O-NO 66 0 min 0,000 mm 0,0 UV-I 0 W/m 14,6 C 14,9 C 6,4 km/h (2 Bft) 100,00 %
29.05.2016 04:22 14,9 C 98 % 1006,0 hPa 0,0 l/m 6,4 km/h (2 Bft) O-NO 71 0 min 0,000 mm 0,0 UV-I 0 W/m 14,6 C 14,9 C 9,7 km/h (2 Bft) 100,00 %
29.05.2016 04:23 14,9 C 98 % 1006,0 hPa 0,0 l/m 8,0 km/h (2 Bft) NO 56 0 min 0,000 mm 0,0 UV-I 0 W/m 14,6 C 14,0 C 12,9 km/h (3 Bft) 100,00 %
29.05.2016 04:24 14,9 C 98 % 1006,0 hPa 0,0 l/m 6,3 km/h (2 Bft) O 92 0 min 0,000 mm 0,0 UV-I 0 W/m 14,6 C 14,9 C 9,7 km/h (2 Bft) 100,00 %
29.05.2016 04:25 14,9 C 98 % 1006,0 hPa 0,0 l/m 5,9 km/h (2 Bft) O-NO 71 0 min 0,000 mm 0,0 UV-I 0 W/m 14,6 C 14,9 C 12,9 km/h (3 Bft) 93,33 %
29.05.2016 04:26 14,9 C 98 % 1005,9 hPa 0,0 l/m 8,0 km/h (2 Bft) O 84 0 min 0,000 mm 0,0 UV-I 0 W/m 14,6 C 14,0 C 11,3 km/h (2 Bft) 100,00 %
29.05.2016 04:27 14,9 C 98 % 1006,0 hPa 0,0 l/m 7,2 km/h (2 Bft) O-NO 77 0 min 0,000 mm 0,0 UV-I 0 W/m 14,6 C 14,4 C 11,3 km/h (2 Bft) 100,00 %
29.05.2016 04:28 14,9 C 98 % 1006,0 hPa 0,0 l/m 4,8 km/h (1 Bft) O 80 0 min 0,000 mm 0,0 UV-I 0 W/m 14,6 C 14,9 C 6,4 km/h (2 Bft) 93,33 %
29.05.2016 04:29 14,9 C 98 % 1006,0 hPa 0,0 l/m 3,7 km/h (1 Bft) O-NO 77 0 min 0,000 mm 0,0 UV-I 0 W/m 14,6 C 14,9 C 4,8 km/h (1 Bft) 100,00 %
29.05.2016 04:30 14,9 C 98 % 1006,0 hPa 0,0 l/m 4,0 km/h (1 Bft) O-NO 68 0 min 0,000 mm 0,0 UV-I 0 W/m 14,6 C 14,9 C 4,8 km/h (1 Bft) 95,65 %
29.05.2016 04:31 14,9 C 98 % 1006,1 hPa 0,0 l/m 3,6 km/h (1 Bft) O-NO 68 0 min 0,000 mm 0,0 UV-I 0 W/m 14,6 C 14,9 C 4,8 km/h (1 Bft) 100,00 %
29.05.2016 04:32 14,8 C 98 % 1006,0 hPa 0,0 l/m 3,0 km/h (1 Bft) O-NO 59 0 min 0,000 mm 0,0 UV-I 0 W/m 14,5 C 14,8 C 4,8 km/h (1 Bft) 100,00 %
29.05.2016 04:33 14,7 C 97 % 1006,0 hPa 0,0 l/m 4,1 km/h (1 Bft) O-NO 57 0 min 0,000 mm 0,0 UV-I 0 W/m 14,2 C 14,7 C 4,8 km/h (1 Bft) 100,00 %
29.05.2016 04:34 14,6 C 97 % 1006,0 hPa 0,0 l/m 3,5 km/h (1 Bft) NO 38 0 min 0,000 mm 0,0 UV-I 0 W/m 14,1 C 14,6 C 4,8 km/h (1 Bft) 100,00 %
29.05.2016 04:35 14,6 C 97 % 1006,0 hPa 0,0 l/m 4,7 km/h (1 Bft) NO 37 0 min 0,000 mm 0,0 UV-I 0 W/m 14,1 C 14,6 C 6,4 km/h (2 Bft) 100,00 %
29.05.2016 04:36 14,5 C 97 % 1006,0 hPa 0,0 l/m 4,5 km/h (1 Bft) N-NO 20 0 min 0,000 mm 0,0 UV-I 0 W/m 14,0 C 14,5 C 6,4 km/h (2 Bft) 90,91 %
29.05.2016 04:37 14,4 C 97 % 1006,0 hPa 0,0 l/m 2,5 km/h (1 Bft) N-NO 20 0 min 0,000 mm 0,0 UV-I 0 W/m 13,9 C 14,4 C 4,8 km/h (1 Bft) 100,00 %
29.05.2016 04:38 14,3 C 97 % 1006,0 hPa 0,0 l/m 3,0 km/h (1 Bft) N-NO 20 0 min 0,000 mm 0,0 UV-I 0 W/m 13,8 C 14,3 C 4,8 km/h (1 Bft) 100,00 %
29.05.2016 04:39 14,3 C 97 % 1006,0 hPa 0,0 l/m 4,4 km/h (1 Bft) N-NO 19 0 min 0,000 mm 0,0 UV-I 0 W/m 13,8 C 14,3 C 6,4 km/h (2 Bft) 100,00 %
29.05.2016 04:40 14,3 C 97 % 1006,0 hPa 0,0 l/m 5,6 km/h (1 Bft) N-NO 33 0 min 0,000 mm 0,0 UV-I 0 W/m 13,8 C 14,3 C 8,0 km/h (2 Bft) 100,00 %
29.05.2016 04:41 14,2 C 97 % 1005,9 hPa 0,0 l/m 5,2 km/h (1 Bft) N-NO 29 0 min 0,000 mm 0,0 UV-I 0 W/m 13,7 C 14,2 C 6,4 km/h (2 Bft) 100,00 %
29.05.2016 04:42 14,2 C 97 % 1005,9 hPa 0,0 l/m 5,0 km/h (1 Bft) NO 34 0 min 0,000 mm 0,0 UV-I 0 W/m 13,7 C 14,2 C 6,4 km/h (2 Bft) 100,00 %
29.05.2016 04:43 14,2 C 97 % 1005,9 hPa 0,0 l/m 5,2 km/h (1 Bft) N-NO 24 0 min 0,000 mm 0,0 UV-I 0 W/m 13,7 C 14,2 C 6,4 km/h (2 Bft) 100,00 %
29.05.2016 04:44 14,2 C 97 % 1005,9 hPa 0,0 l/m 5,6 km/h (1 Bft) N-NO 32 0 min 0,000 mm 0,0 UV-I 0 W/m 13,7 C 14,2 C 8,0 km/h (2 Bft) 100,00 %
29.05.2016 04:45 14,2 C 97 % 1005,9 hPa 0,0 l/m 5,5 km/h (1 Bft) NO 41 0 min 0,000 mm 0,0 UV-I 0 W/m 13,7 C 14,2 C 8,0 km/h (2 Bft) 95,83 %
29.05.2016 04:46 14,2 C 97 % 1005,9 hPa 0,0 l/m 5,0 km/h (1 Bft) N-NO 30 0 min 0,000 mm 0,0 UV-I 0 W/m 13,7 C 14,2 C 6,4 km/h (2 Bft) 95,65 %
29.05.2016 04:47 14,1 C 97 % 1005,8 hPa 0,0 l/m 5,7 km/h (1 Bft) O-NO 61 0 min 0,000 mm 0,0 UV-I 0 W/m 13,6 C 14,1 C 6,4 km/h (2 Bft) 100,00 %
29.05.2016 04:48 14,1 C 97 % 1005,8 hPa 0,0 l/m 6,1 km/h (2 Bft) NO 48 0 min 0,000 mm 0,0 UV-I 0 W/m 13,6 C 14,1 C 8,0 km/h (2 Bft) 100,00 %
29.05.2016 04:49 14,1 C 97 % 1005,8 hPa 0,0 l/m 7,0 km/h (2 Bft) NO 39 0 min 0,000 mm 0,0 UV-I 0 W/m 13,6 C 13,7 C 9,7 km/h (2 Bft) 100,00 %
29.05.2016 04:50 14,1 C 97 % 1005,8 hPa 0,0 l/m 6,3 km/h (2 Bft) NO 48 0 min 0,000 mm 0,0 UV-I 0 W/m 13,6 C 14,1 C 8,0 km/h (2 Bft) 95,83 %
29.05.2016 04:51 14,1 C 97 % 1005,8 hPa 0,0 l/m 6,6 km/h (2 Bft) NO 49 0 min 0,000 mm 0,0 UV-I 0 W/m 13,6 C 14,0 C 9,7 km/h (2 Bft) 100,00 %
29.05.2016 04:52 14,1 C 97 % 1005,7 hPa 0,0 l/m 6,1 km/h (2 Bft) NO 37 0 min 0,000 mm 0,0 UV-I 0 W/m 13,6 C 14,1 C 8,0 km/h (2 Bft) 100,00 %
29.05.2016 04:53 14,1 C 98 % 1005,7 hPa 0,0 l/m 6,1 km/h (2 Bft) NO 36 0 min 0,000 mm 0,0 UV-I 0 W/m 13,8 C 14,1 C 6,4 km/h (2 Bft) 92,86 %
29.05.2016 04:54 14,0 C 98 % 1005,7 hPa 0,0 l/m 6,1 km/h (2 Bft) N-NO 26 0 min 0,000 mm 0,0 UV-I 0 W/m 13,7 C 14,0 C 8,0 km/h (2 Bft) 100,00 %
29.05.2016 04:55 14,1 C 98 % 1005,7 hPa 0,0 l/m 4,5 km/h (1 Bft) NO 37 0 min 0,000 mm 0,0 UV-I 0 W/m 13,8 C 14,1 C 6,4 km/h (2 Bft) 100,00 %
29.05.2016 04:56 14,0 C 98 % 1005,6 hPa 0,0 l/m 5,1 km/h (1 Bft) N-NO 17 0 min 0,000 mm 0,0 UV-I 0 W/m 13,7 C 14,0 C 6,4 km/h (2 Bft) 100,00 %
29.05.2016 04:57 14,0 C 98 % 1005,6 hPa 0,0 l/m 7,4 km/h (2 Bft) NO 34 0 min 0,000 mm 0,0 UV-I 0 W/m 13,7 C 13,4 C 9,7 km/h (2 Bft) 100,00 %
29.05.2016 04:58 14,0 C 98 % 1005,6 hPa 0,0 l/m 5,8 km/h (2 Bft) N-NO 15 0 min 0,000 mm 0,0 UV-I 0 W/m 13,7 C 14,0 C 8,0 km/h (2 Bft) 95,83 %
29.05.2016 04:59 13,9 C 98 % 1005,6 hPa 0,0 l/m 5,3 km/h (1 Bft) NO 34 0 min 0,000 mm 0,0 UV-I 0 W/m 13,6 C 13,9 C 9,7 km/h (2 Bft) 100,00 %
29.05.2016 05:00 13,9 C 98 % 1005,6 hPa 0,0 l/m 4,8 km/h (1 Bft) N-NO 30 0 min 0,000 mm 0,0 UV-I 0 W/m 13,6 C 13,9 C 6,4 km/h (2 Bft) 100,00 %
29.05.2016 05:02 14,0 C 98 % 1005,6 hPa 0,0 l/m 5,1 km/h (1 Bft) NO 41 0 min 0,000 mm 0,0 UV-I 0 W/m 13,7 C 14,0 C 8,0 km/h (2 Bft) 100,00 %
29.05.2016 05:03 14,0 C 98 % 1005,6 hPa 0,0 l/m 4,7 km/h (1 Bft) NO 54 0 min 0,000 mm 0,0 UV-I 0 W/m 13,7 C 14,0 C 6,4 km/h (2 Bft) 100,00 %
29.05.2016 05:04 14,0 C 98 % 1005,6 hPa 0,0 l/m 4,4 km/h (1 Bft) NO 40 0 min 0,000 mm 0,0 UV-I 0 W/m 13,7 C 14,0 C 6,4 km/h (2 Bft) 100,00 %
29.05.2016 05:05 14,0 C 98 % 1005,6 hPa 0,0 l/m 4,8 km/h (1 Bft) NO 35 0 min 0,000 mm 0,0 UV-I 0 W/m 13,7 C 14,0 C 6,4 km/h (2 Bft) 100,00 %
29.05.2016 05:06 14,0 C 98 % 1005,6 hPa 0,0 l/m 4,6 km/h (1 Bft) NO 44 0 min 0,000 mm 0,0 UV-I 0 W/m 13,7 C 14,0 C 6,4 km/h (2 Bft) 100,00 %
29.05.2016 05:07 14,1 C 98 % 1005,6 hPa 0,0 l/m 4,0 km/h (1 Bft) NO 44 0 min 0,000 mm 0,0 UV-I 0 W/m 13,8 C 14,1 C 4,8 km/h (1 Bft) 100,00 %
29.05.2016 05:08 14,1 C 98 % 1005,6 hPa 0,0 l/m 3,5 km/h (1 Bft) NO 44 0 min 0,000 mm 0,0 UV-I 5 W/m 13,8 C 14,1 C 4,8 km/h (1 Bft) 100,00 %
29.05.2016 05:09 14,1 C 98 % 1005,6 hPa 0,0 l/m 4,5 km/h (1 Bft) NO 42 0 min 0,000 mm 0,0 UV-I 6 W/m 13,8 C 14,1 C 6,4 km/h (2 Bft) 100,00 %
29.05.2016 05:10 14,1 C 98 % 1005,5 hPa 0,0 l/m 4,8 km/h (1 Bft) NO 42 0 min 0,000 mm 0,0 UV-I 7 W/m 13,8 C 14,1 C 6,4 km/h (2 Bft) 100,00 %
29.05.2016 05:11 14,1 C 98 % 1005,5 hPa 0,0 l/m 3,1 km/h (1 Bft) NO 42 0 min 0,000 mm 0,0 UV-I 7 W/m 13,8 C 14,1 C 4,8 km/h (1 Bft) 95,83 %
29.05.2016 05:12 14,1 C 98 % 1005,5 hPa 0,0 l/m 2,8 km/h (1 Bft) NO 42 0 min 0,000 mm 0,0 UV-I 7 W/m 13,8 C 14,1 C 4,8 km/h (1 Bft) 100,00 %
29.05.2016 05:13 14,2 C 98 % 1005,5 hPa 0,0 l/m 2,9 km/h (1 Bft) NO 40 0 min 0,000 mm 0,0 UV-I 9 W/m 13,9 C 14,2 C 4,8 km/h (1 Bft) 100,00 %
29.05.2016 05:14 14,2 C 98 % 1005,5 hPa 0,0 l/m 3,3 km/h (1 Bft) NO 51 0 min 0,000 mm 0,0 UV-I 9 W/m 13,9 C 14,2 C 4,8 km/h (1 Bft) 100,00 %
29.05.2016 05:15 14,2 C 98 % 1005,4 hPa 0,0 l/m 3,1 km/h (1 Bft) O-NO 58 0 min 0,000 mm 0,0 UV-I 9 W/m 13,9 C 14,2 C 6,4 km/h (2 Bft) 95,83 %
29.05.2016 05:16 14,3 C 98 % 1005,5 hPa 0,0 l/m 3,9 km/h (1 Bft) O-NO 58 0 min 0,000 mm 0,0 UV-I 9 W/m 14,0 C 14,3 C 4,8 km/h (1 Bft) 100,00 %
29.05.2016 05:17 14,3 C 98 % 1005,5 hPa 0,0 l/m 2,5 km/h (1 Bft) O-NO 58 0 min 0,000 mm 0,0 UV-I 9 W/m 14,0 C 14,3 C 3,2 km/h (1 Bft) 100,00 %
29.05.2016 05:18 14,3 C 98 % 1005,5 hPa 0,0 l/m 2,1 km/h (1 Bft) O-NO 58 0 min 0,000 mm 0,0 UV-I 9 W/m 14,0 C 14,3 C 3,2 km/h (1 Bft) 100,00 %
29.05.2016 05:19 14,4 C 98 % 1005,5 hPa 0,0 l/m 1,8 km/h (1 Bft) O-NO 58 0 min 0,000 mm 0,0 UV-I 9 W/m 14,1 C 14,4 C 3,2 km/h (1 Bft) 100,00 %
29.05.2016 05:20 14,4 C 98 % 1005,5 hPa 0,0 l/m 2,8 km/h (1 Bft) O-NO 58 0 min 0,000 mm 0,0 UV-I 9 W/m 14,1 C 14,4 C 4,8 km/h (1 Bft) 100,00 %
29.05.2016 05:21 14,4 C 98 % 1005,5 hPa 0,0 l/m 4,2 km/h (1 Bft) NO 34 0 min 0,000 mm 0,0 UV-I 9 W/m 14,1 C 14,4 C 4,8 km/h (1 Bft) 100,00 %
29.05.2016 05:22 14,5 C 98 % 1005,5 hPa 0,0 l/m 4,3 km/h (1 Bft) NO 51 1 min 0,000 mm 0,0 UV-I 10 W/m 14,2 C 14,5 C 6,4 km/h (2 Bft) 100,00 %
29.05.2016 05:23 14,5 C 98 % 1005,4 hPa 0,0 l/m 4,3 km/h (1 Bft) O-NO 76 1 min 0,000 mm 0,0 UV-I 11 W/m 14,2 C 14,5 C 6,4 km/h (2 Bft) 100,00 %
29.05.2016 05:24 14,5 C 98 % 1005,5 hPa 0,0 l/m 2,7 km/h (1 Bft) O-NO 76 1 min 0,000 mm 0,0 UV-I 11 W/m 14,2 C 14,5 C 3,2 km/h (1 Bft) 100,00 %
29.05.2016 05:25 14,5 C 98 % 1005,5 hPa 0,0 l/m 2,2 km/h (1 Bft) NO 48 0 min 0,000 mm 0,0 UV-I 11 W/m 14,2 C 14,5 C 3,2 km/h (1 Bft) 100,00 %
29.05.2016 05:26 14,6 C 98 % 1005,5 hPa 0,0 l/m 2,3 km/h (1 Bft) NO 48 0 min 0,000 mm 0,0 UV-I 11 W/m 14,3 C 14,6 C 4,8 km/h (1 Bft) 96,67 %
29.05.2016 05:27 14,5 C 98 % 1005,5 hPa 0,0 l/m 5,2 km/h (1 Bft) NO 55 0 min 0,000 mm 0,0 UV-I 11 W/m 14,2 C 14,5 C 8,0 km/h (2 Bft) 95,83 %
29.05.2016 05:28 14,5 C 98 % 1005,5 hPa 0,0 l/m 5,6 km/h (1 Bft) NO 56 0 min 0,000 mm 0,0 UV-I 11 W/m 14,2 C 14,5 C 8,0 km/h (2 Bft) 100,00 %
29.05.2016 05:29 14,5 C 98 % 1005,5 hPa 0,0 l/m 6,4 km/h (2 Bft) NO 50 0 min 0,000 mm 0,0 UV-I 12 W/m 14,2 C 14,5 C 8,0 km/h (2 Bft) 100,00 %
29.05.2016 05:30 14,5 C 98 % 1005,6 hPa 0,0 l/m 7,1 km/h (2 Bft) NO 47 0 min 0,000 mm 0,0 UV-I 12 W/m 14,2 C 14,1 C 9,7 km/h (2 Bft) 100,00 %
29.05.2016 05:31 14,4 C 98 % 1005,6 hPa 0,0 l/m 5,9 km/h (2 Bft) NO 38 0 min 0,000 mm 0,0 UV-I 12 W/m 14,1 C 14,4 C 8,0 km/h (2 Bft) 91,67 %
29.05.2016 05:32 14,4 C 98 % 1005,5 hPa 0,0 l/m 4,9 km/h (1 Bft) N-NO 30 0 min 0,000 mm 0,0 UV-I 12 W/m 14,1 C 14,4 C 6,4 km/h (2 Bft) 100,00 %
29.05.2016 05:33 14,4 C 98 % 1005,6 hPa 0,0 l/m 3,7 km/h (1 Bft) N-NO 30 0 min 0,000 mm 0,0 UV-I 12 W/m 14,1 C 14,4 C 6,4 km/h (2 Bft) 96,15 %
29.05.2016 05:34 14,4 C 98 % 1005,5 hPa 0,0 l/m 5,4 km/h (1 Bft) NO 43 0 min 0,000 mm 0,0 UV-I 12 W/m 14,1 C 14,4 C 8,0 km/h (2 Bft) 95,83 %
29.05.2016 05:35 14,4 C 98 % 1005,5 hPa 0,0 l/m 6,5 km/h (2 Bft) NO 40 0 min 0,000 mm 0,0 UV-I 12 W/m 14,1 C 14,4 C 9,7 km/h (2 Bft) 100,00 %
29.05.2016 05:36 14,4 C 98 % 1005,5 hPa 0,0 l/m 7,1 km/h (2 Bft) NO 55 0 min 0,000 mm 0,0 UV-I 14 W/m 14,1 C 14,0 C 9,7 km/h (2 Bft) 96,30 %
29.05.2016 05:37 14,4 C 98 % 1005,5 hPa 0,0 l/m 5,2 km/h (1 Bft) NO 40 0 min 0,000 mm 0,0 UV-I 14 W/m 14,1 C 14,4 C 8,0 km/h (2 Bft) 96,15 %
29.05.2016 05:38 14,4 C 98 % 1005,5 hPa 0,0 l/m 6,4 km/h (2 Bft) O-NO 59 0 min 0,000 mm 0,0 UV-I 14 W/m 14,1 C 14,4 C 8,0 km/h (2 Bft) 91,67 %
29.05.2016 05:39 14,4 C 98 % 1005,5 hPa 0,0 l/m 6,0 km/h (2 Bft) O-NO 61 0 min 0,000 mm 0,0 UV-I 14 W/m 14,1 C 14,4 C 6,4 km/h (2 Bft) 96,15 %
29.05.2016 05:40 14,4 C 98 % 1005,5 hPa 0,0 l/m 6,3 km/h (2 Bft) O-NO 62 0 min 0,000 mm 0,0 UV-I 14 W/m 14,1 C 14,4 C 8,0 km/h (2 Bft) 93,33 %
29.05.2016 05:41 14,4 C 98 % 1005,5 hPa 0,0 l/m 7,2 km/h (2 Bft) O-NO 62 0 min 0,000 mm 0,0 UV-I 14 W/m 14,1 C 13,9 C 8,0 km/h (2 Bft) 96,88 %
29.05.2016 05:42 14,4 C 98 % 1005,6 hPa 0,0 l/m 5,3 km/h (1 Bft) NO 52 0 min 0,000 mm 0,0 UV-I 14 W/m 14,1 C 14,4 C 8,0 km/h (2 Bft) 100,00 %
29.05.2016 05:43 14,4 C 98 % 1005,6 hPa 0,0 l/m 3,8 km/h (1 Bft) O-NO 61 0 min 0,000 mm 0,0 UV-I 14 W/m 14,1 C 14,4 C 6,4 km/h (2 Bft) 95,65 %
29.05.2016 05:44 14,4 C 98 % 1005,6 hPa 0,0 l/m 4,3 km/h (1 Bft) O-NO 60 0 min 0,000 mm 0,0 UV-I 14 W/m 14,1 C 14,4 C 6,4 km/h (2 Bft) 100,00 %
29.05.2016 05:45 14,4 C 98 % 1005,6 hPa 0,0 l/m 4,9 km/h (1 Bft) NO 47 0 min 0,000 mm 0,0 UV-I 14 W/m 14,1 C 14,4 C 8,0 km/h (2 Bft) 95,65 %
29.05.2016 05:46 14,4 C 98 % 1005,6 hPa 0,0 l/m 5,1 km/h (1 Bft) O-NO 67 0 min 0,000 mm 0,0 UV-I 14 W/m 14,1 C 14,4 C 6,4 km/h (2 Bft) 100,00 %
29.05.2016 05:47 14,4 C 98 % 1005,6 hPa 0,0 l/m 3,9 km/h (1 Bft) N 11 0 min 0,000 mm 0,0 UV-I 16 W/m 14,1 C 14,4 C 4,8 km/h (1 Bft) 96,15 %
29.05.2016 05:48 14,4 C 98 % 1005,6 hPa 0,0 l/m 6,2 km/h (2 Bft) O-NO 61 0 min 0,000 mm 0,0 UV-I 18 W/m 14,1 C 14,4 C 8,0 km/h (2 Bft) 100,00 %
29.05.2016 05:49 14,4 C 98 % 1005,6 hPa 0,0 l/m 4,9 km/h (1 Bft) O-NO 60 0 min 0,000 mm 0,0 UV-I 18 W/m 14,1 C 14,4 C 6,4 km/h (2 Bft) 96,30 %
29.05.2016 05:50 14,4 C 98 % 1005,6 hPa 0,0 l/m 5,2 km/h (1 Bft) NO 37 0 min 0,000 mm 0,0 UV-I 18 W/m 14,1 C 14,4 C 9,7 km/h (2 Bft) 95,65 %
29.05.2016 05:51 14,5 C 98 % 1005,6 hPa 0,0 l/m 6,7 km/h (2 Bft) NO 42 0 min 0,000 mm 0,0 UV-I 19 W/m 14,2 C 14,3 C 8,0 km/h (2 Bft) 100,00 %
29.05.2016 05:52 14,5 C 98 % 1005,6 hPa 0,0 l/m 6,7 km/h (2 Bft) NO 43 0 min 0,000 mm 0,0 UV-I 20 W/m 14,2 C 14,3 C 8,0 km/h (2 Bft) 95,65 %
29.05.2016 05:53 14,5 C 98 % 1005,6 hPa 0,0 l/m 6,0 km/h (2 Bft) NO 34 0 min 0,000 mm 0,0 UV-I 21 W/m 14,2 C 14,5 C 8,0 km/h (2 Bft) 100,00 %
29.05.2016 05:54 14,5 C 98 % 1005,6 hPa 0,0 l/m 6,4 km/h (2 Bft) N-NO 31 0 min 0,000 mm 0,0 UV-I 21 W/m 14,2 C 14,5 C 8,0 km/h (2 Bft) 96,15 %
29.05.2016 05:55 14,5 C 98 % 1005,6 hPa 0,0 l/m 5,5 km/h (1 Bft) N-NO 28 0 min 0,000 mm 0,0 UV-I 22 W/m 14,2 C 14,5 C 6,4 km/h (2 Bft) 100,00 %
29.05.2016 05:56 14,5 C 98 % 1005,5 hPa 0,0 l/m 3,3 km/h (1 Bft) N-NO 24 0 min 0,000 mm 0,0 UV-I 26 W/m 14,2 C 14,5 C 6,4 km/h (2 Bft) 95,65 %
29.05.2016 05:57 14,5 C 98 % 1005,5 hPa 0,0 l/m 3,4 km/h (1 Bft) N-NO 32 0 min 0,000 mm 0,0 UV-I 28 W/m 14,2 C 14,5 C 4,8 km/h (1 Bft) 95,83 %
29.05.2016 05:58 14,6 C 98 % 1005,5 hPa 0,0 l/m 1,4 km/h (1 Bft) N-NO 32 0 min 0,000 mm 0,0 UV-I 27 W/m 14,3 C 14,6 C 3,2 km/h (1 Bft) 100,00 %
29.05.2016 05:59 14,6 C 98 % 1005,5 hPa 0,0 l/m 2,7 km/h (1 Bft) N-NO 30 0 min 0,000 mm 0,0 UV-I 26 W/m 14,3 C 14,6 C 6,4 km/h (2 Bft) 95,83 %
29.05.2016 06:00 14,6 C 98 % 1005,5 hPa 0,0 l/m 2,5 km/h (1 Bft) N-NO 30 0 min 0,000 mm 0,0 UV-I 28 W/m 14,3 C 14,6 C 6,4 km/h (2 Bft) 100,00 %
29.05.2016 06:02 14,6 C 98 % 1005,6 hPa 0,0 l/m 2,3 km/h (1 Bft) N-NO 30 0 min 0,000 mm 0,0 UV-I 24 W/m 14,3 C 14,6 C 4,8 km/h (1 Bft) 98,00 %
29.05.2016 06:03 14,6 C 98 % 1005,6 hPa 0,0 l/m 2,3 km/h (1 Bft) N-NO 30 0 min 0,000 mm 0,0 UV-I 23 W/m 14,3 C 14,6 C 3,2 km/h (1 Bft) 95,83 %
29.05.2016 06:04 14,6 C 98 % 1005,6 hPa 0,0 l/m 2,8 km/h (1 Bft) N-NO 30 0 min 0,000 mm 0,0 UV-I 22 W/m 14,3 C 14,6 C 4,8 km/h (1 Bft) 95,65 %
29.05.2016 06:05 14,6 C 98 % 1005,6 hPa 0,0 l/m 5,0 km/h (1 Bft) N-NO 22 0 min 0,000 mm 0,0 UV-I 19 W/m 14,3 C 14,6 C 6,4 km/h (2 Bft) 96,67 %
29.05.2016 06:06 14,6 C 98 % 1005,5 hPa 0,0 l/m 6,7 km/h (2 Bft) N-NO 19 0 min 0,000 mm 0,0 UV-I 18 W/m 14,3 C 14,4 C 8,0 km/h (2 Bft) 100,00 %
29.05.2016 06:07 14,6 C 98 % 1005,5 hPa 0,0 l/m 5,8 km/h (2 Bft) N-NO 24 0 min 0,000 mm 0,0 UV-I 18 W/m 14,3 C 14,6 C 8,0 km/h (2 Bft) 100,00 %
29.05.2016 06:08 14,6 C 98 % 1005,5 hPa 0,0 l/m 5,7 km/h (1 Bft) NO 34 0 min 0,000 mm 0,0 UV-I 17 W/m 14,3 C 14,6 C 8,0 km/h (2 Bft) 100,00 %
29.05.2016 06:09 14,6 C 98 % 1005,5 hPa 0,0 l/m 4,9 km/h (1 Bft) NO 34 0 min 0,000 mm 0,0 UV-I 16 W/m 14,3 C 14,6 C 6,4 km/h (2 Bft) 100,00 %
29.05.2016 06:10 14,6 C 98 % 1005,4 hPa 0,0 l/m 3,6 km/h (1 Bft) NO 34 0 min 0,000 mm 0,0 UV-I 16 W/m 14,3 C 14,6 C 4,8 km/h (1 Bft) 100,00 %
29.05.2016 06:11 14,5 C 98 % 1005,4 hPa 0,0 l/m 2,0 km/h (1 Bft) NO 34 0 min 0,000 mm 0,0 UV-I 16 W/m 14,2 C 14,5 C 3,2 km/h (1 Bft) 91,30 %
29.05.2016 06:12 14,5 C 98 % 1005,4 hPa 0,0 l/m 2,3 km/h (1 Bft) N-NO 32 0 min 0,000 mm 0,0 UV-I 18 W/m 14,2 C 14,5 C 3,2 km/h (1 Bft) 100,00 %
29.05.2016 06:13 14,5 C 98 % 1005,4 hPa 0,0 l/m 3,9 km/h (1 Bft) N 11 0 min 0,000 mm 0,0 UV-I 18 W/m 14,2 C 14,5 C 6,4 km/h (2 Bft) 100,00 %
29.05.2016 06:14 14,5 C 98 % 1005,4 hPa 0,0 l/m 5,6 km/h (1 Bft) N-NO 31 0 min 0,000 mm 0,0 UV-I 18 W/m 14,2 C 14,5 C 8,0 km/h (2 Bft) 95,83 %
29.05.2016 06:15 14,5 C 98 % 1005,4 hPa 0,0 l/m 4,6 km/h (1 Bft) N 11 0 min 0,000 mm 0,0 UV-I 19 W/m 14,2 C 14,5 C 8,0 km/h (2 Bft) 100,00 %
29.05.2016 06:16 14,6 C 98 % 1005,4 hPa 0,0 l/m 3,4 km/h (1 Bft) N-NO 25 0 min 0,000 mm 0,0 UV-I 20 W/m 14,3 C 14,6 C 6,4 km/h (2 Bft) 100,00 %
29.05.2016 06:17 14,6 C 98 % 1005,4 hPa 0,0 l/m 5,2 km/h (1 Bft) NO 41 0 min 0,000 mm 0,0 UV-I 23 W/m 14,3 C 14,6 C 6,4 km/h (2 Bft) 96,15 %
29.05.2016 06:18 14,6 C 98 % 1005,3 hPa 0,0 l/m 5,6 km/h (1 Bft) N-NO 28 0 min 0,000 mm 0,0 UV-I 26 W/m 14,3 C 14,6 C 6,4 km/h (2 Bft) 100,00 %
29.05.2016 06:19 14,6 C 98 % 1005,3 hPa 0,0 l/m 3,2 km/h (1 Bft) N-NO 16 0 min 0,000 mm 0,0 UV-I 26 W/m 14,3 C 14,6 C 6,4 km/h (2 Bft) 100,00 %
29.05.2016 06:20 14,6 C 98 % 1005,3 hPa 0,0 l/m 6,9 km/h (2 Bft) N-NO 24 0 min 0,000 mm 0,0 UV-I 25 W/m 14,3 C 14,3 C 9,7 km/h (2 Bft) 100,00 %
29.05.2016 06:21 14,6 C 98 % 1005,3 hPa 0,0 l/m 6,4 km/h (2 Bft) N-NO 26 0 min 0,000 mm 0,0 UV-I 27 W/m 14,3 C 14,6 C 9,7 km/h (2 Bft) 100,00 %
29.05.2016 06:22 14,6 C 98 % 1005,3 hPa 0,0 l/m 7,1 km/h (2 Bft) N-NO 29 0 min 0,000 mm 0,0 UV-I 30 W/m 14,3 C 14,2 C 9,7 km/h (2 Bft) 96,67 %
29.05.2016 06:23 14,6 C 98 % 1005,3 hPa 0,0 l/m 4,6 km/h (1 Bft) N-NO 21 0 min 0,000 mm 0,0 UV-I 32 W/m 14,3 C 14,6 C 8,0 km/h (2 Bft) 96,15 %
29.05.2016 06:24 14,6 C 98 % 1005,3 hPa 0,0 l/m 7,1 km/h (2 Bft) N-NO 24 0 min 0,000 mm 0,0 UV-I 33 W/m 14,3 C 14,2 C 9,7 km/h (2 Bft) 100,00 %
29.05.2016 06:25 14,6 C 98 % 1005,3 hPa 0,0 l/m 5,8 km/h (2 Bft) N-NO 28 0 min 0,000 mm 0,0 UV-I 31 W/m 14,3 C 14,6 C 8,0 km/h (2 Bft) 100,00 %
29.05.2016 06:26 14,6 C 98 % 1005,3 hPa 0,0 l/m 5,2 km/h (1 Bft) NO 35 0 min 0,000 mm 0,0 UV-I 31 W/m 14,3 C 14,6 C 6,4 km/h (2 Bft) 100,00 %
29.05.2016 06:27 14,6 C 98 % 1005,3 hPa 0,0 l/m 7,4 km/h (2 Bft) NO 45 0 min 0,000 mm 0,0 UV-I 36 W/m 14,3 C 14,0 C 9,7 km/h (2 Bft) 100,00 %
29.05.2016 06:28 14,6 C 98 % 1005,3 hPa 0,0 l/m 7,3 km/h (2 Bft) NO 44 0 min 0,000 mm 0,0 UV-I 41 W/m 14,3 C 14,1 C 8,0 km/h (2 Bft) 100,00 %
29.05.2016 06:29 14,6 C 98 % 1005,4 hPa 0,0 l/m 4,8 km/h (1 Bft) NO 49 0 min 0,000 mm 0,0 UV-I 44 W/m 14,3 C 14,6 C 6,4 km/h (2 Bft) 100,00 %
29.05.2016 06:30 14,6 C 98 % 1005,4 hPa 0,0 l/m 3,8 km/h (1 Bft) NO 38 0 min 0,000 mm 0,0 UV-I 47 W/m 14,3 C 14,6 C 6,4 km/h (2 Bft) 100,00 %
29.05.2016 06:31 14,6 C 98 % 1005,4 hPa 0,0 l/m 4,5 km/h (1 Bft) N-NO 18 0 min 0,000 mm 0,0 UV-I 48 W/m 14,3 C 14,6 C 8,0 km/h (2 Bft) 100,00 %
29.05.2016 06:32 14,6 C 98 % 1005,4 hPa 0,0 l/m 2,5 km/h (1 Bft) O-NO 63 0 min 0,000 mm 0,0 UV-I 50 W/m 14,3 C 14,6 C 4,8 km/h (1 Bft) 100,00 %
29.05.2016 06:33 14,6 C 98 % 1005,4 hPa 0,0 l/m 3,0 km/h (1 Bft) O-NO 71 0 min 0,000 mm 0,0 UV-I 50 W/m 14,3 C 14,6 C 4,8 km/h (1 Bft) 100,00 %
29.05.2016 06:34 14,6 C 98 % 1005,5 hPa 0,0 l/m 3,7 km/h (1 Bft) O-NO 69 0 min 0,000 mm 0,0 UV-I 48 W/m 14,3 C 14,6 C 6,4 km/h (2 Bft) 100,00 %
29.05.2016 06:35 14,6 C 98 % 1005,5 hPa 0,0 l/m 3,5 km/h (1 Bft) O-NO 69 0 min 0,000 mm 0,0 UV-I 42 W/m 14,3 C 14,6 C 4,8 km/h (1 Bft) 100,00 %
29.05.2016 06:36 14,6 C 98 % 1005,4 hPa 0,0 l/m 4,6 km/h (1 Bft) NO 53 0 min 0,000 mm 0,0 UV-I 45 W/m 14,3 C 14,6 C 6,4 km/h (2 Bft) 100,00 %
29.05.2016 06:37 14,6 C 98 % 1005,4 hPa 0,0 l/m 5,5 km/h (1 Bft) O-NO 63 0 min 0,000 mm 0,0 UV-I 51 W/m 14,3 C 14,6 C 8,0 km/h (2 Bft) 100,00 %
29.05.2016 06:38 14,6 C 98 % 1005,4 hPa 0,0 l/m 4,6 km/h (1 Bft) NO 56 0 min 0,000 mm 0,0 UV-I 58 W/m 14,3 C 14,6 C 6,4 km/h (2 Bft) 100,00 %
29.05.2016 06:39 14,6 C 98 % 1005,4 hPa 0,0 l/m 5,9 km/h (2 Bft) NO 51 0 min 0,000 mm 0,0 UV-I 67 W/m 14,3 C 14,6 C 8,0 km/h (2 Bft) 100,00 %
29.05.2016 06:40 14,6 C 98 % 1005,4 hPa 0,0 l/m 6,4 km/h (2 Bft) NO 55 0 min 0,000 mm 0,0 UV-I 72 W/m 14,3 C 14,6 C 8,0 km/h (2 Bft) 95,65 %
29.05.2016 06:41 14,6 C 98 % 1005,4 hPa 0,0 l/m 5,8 km/h (2 Bft) NO 43 0 min 0,000 mm 0,0 UV-I 69 W/m 14,3 C 14,6 C 8,0 km/h (2 Bft) 100,00 %
29.05.2016 06:42 14,6 C 98 % 1005,4 hPa 0,0 l/m 7,8 km/h (2 Bft) NO 34 0 min 0,000 mm 0,0 UV-I 62 W/m 14,3 C 13,8 C 12,9 km/h (3 Bft) 100,00 %
29.05.2016 06:43 14,7 C 98 % 1005,4 hPa 0,0 l/m 7,5 km/h (2 Bft) NO 41 0 min 0,000 mm 0,0 UV-I 64 W/m 14,4 C 14,1 C 9,7 km/h (2 Bft) 100,00 %
29.05.2016 06:44 14,7 C 98 % 1005,4 hPa 0,0 l/m 6,5 km/h (2 Bft) O-NO 58 0 min 0,000 mm 0,0 UV-I 70 W/m 14,4 C 14,7 C 8,0 km/h (2 Bft) 100,00 %
29.05.2016 06:45 14,7 C 98 % 1005,4 hPa 0,0 l/m 7,9 km/h (2 Bft) NO 35 0 min 0,000 mm 0,0 UV-I 73 W/m 14,4 C 13,8 C 9,7 km/h (2 Bft) 100,00 %
29.05.2016 06:46 14,7 C 98 % 1005,4 hPa 0,0 l/m 9,3 km/h (2 Bft) NO 45 0 min 0,000 mm 0,0 UV-I 76 W/m 14,4 C 13,1 C 14,5 km/h (3 Bft) 100,00 %
29.05.2016 06:47 14,7 C 98 % 1005,4 hPa 0,0 l/m 7,6 km/h (2 Bft) NO 42 0 min 0,000 mm 0,0 UV-I 75 W/m 14,4 C 14,0 C 9,7 km/h (2 Bft) 100,00 %
29.05.2016 06:48 14,7 C 98 % 1005,3 hPa 0,0 l/m 6,7 km/h (2 Bft) O-NO 63 0 min 0,000 mm 0,0 UV-I 67 W/m 14,4 C 14,5 C 8,0 km/h (2 Bft) 95,65 %
29.05.2016 06:49 14,6 C 98 % 1005,2 hPa 0,0 l/m 4,9 km/h (1 Bft) N-NO 26 0 min 0,000 mm 0,0 UV-I 63 W/m 14,3 C 14,6 C 6,4 km/h (2 Bft) 100,00 %
29.05.2016 06:50 14,7 C 98 % 1005,2 hPa 0,0 l/m 7,2 km/h (2 Bft) NO 36 0 min 0,000 mm 0,0 UV-I 65 W/m 14,4 C 14,2 C 11,3 km/h (2 Bft) 100,00 %
29.05.2016 06:51 14,7 C 98 % 1005,2 hPa 0,0 l/m 7,2 km/h (2 Bft) N-NO 28 0 min 0,000 mm 0,0 UV-I 74 W/m 14,4 C 14,2 C 11,3 km/h (2 Bft) 95,65 %
29.05.2016 06:52 14,7 C 98 % 1005,2 hPa 0,0 l/m 9,4 km/h (2 Bft) N-NO 15 0 min 0,000 mm 0,0 UV-I 79 W/m 14,4 C 13,1 C 12,9 km/h (3 Bft) 100,00 %
29.05.2016 06:53 14,7 C 98 % 1005,2 hPa 0,0 l/m 9,9 km/h (2 Bft) O-NO 60 0 min 0,000 mm 0,0 UV-I 78 W/m 14,4 C 12,8 C 12,9 km/h (3 Bft) 100,00 %
29.05.2016 06:54 14,7 C 98 % 1005,1 hPa 0,0 l/m 7,2 km/h (2 Bft) N-NO 16 0 min 0,000 mm 0,0 UV-I 82 W/m 14,4 C 14,2 C 11,3 km/h (2 Bft) 100,00 %
29.05.2016 06:55 14,7 C 98 % 1005,1 hPa 0,0 l/m 7,7 km/h (2 Bft) NO 38 0 min 0,000 mm 0,0 UV-I 82 W/m 14,4 C 14,0 C 9,7 km/h (2 Bft) 100,00 %
29.05.2016 06:56 14,7 C 98 % 1005,1 hPa 0,0 l/m 9,1 km/h (2 Bft) NO 45 0 min 0,000 mm 0,0 UV-I 76 W/m 14,4 C 13,2 C 14,5 km/h (3 Bft) 100,00 %
29.05.2016 06:57 14,7 C 98 % 1005,1 hPa 0,0 l/m 8,2 km/h (2 Bft) NO 49 0 min 0,000 mm 0,0 UV-I 69 W/m 14,4 C 13,7 C 11,3 km/h (2 Bft) 100,00 %
29.05.2016 06:58 14,7 C 98 % 1005,1 hPa 0,0 l/m 8,1 km/h (2 Bft) NO 42 0 min 0,000 mm 0,0 UV-I 71 W/m 14,4 C 13,7 C 12,9 km/h (3 Bft) 100,00 %
29.05.2016 06:59 14,7 C 98 % 1005,1 hPa 0,0 l/m 7,4 km/h (2 Bft) NO 49 0 min 0,000 mm 0,0 UV-I 73 W/m 14,4 C 14,1 C 12,9 km/h (3 Bft) 100,00 %
29.05.2016 07:00 14,7 C 98 % 1005,1 hPa 0,0 l/m 11,2 km/h (2 Bft) NO 55 0 min 0,025 mm 0,0 UV-I 81 W/m 14,4 C 12,3 C 16,1 km/h (3 Bft) 100,00 %
29.05.2016 07:02 14,6 C 98 % 1005,1 hPa 0,0 l/m 10,6 km/h (2 Bft) O-NO 63 0 min 0,000 mm 0,0 UV-I 81 W/m 14,3 C 12,4 C 16,1 km/h (3 Bft) 100,00 %
29.05.2016 07:03 14,6 C 98 % 1005,1 hPa 0,0 l/m 10,8 km/h (2 Bft) O-NO 58 0 min 0,000 mm 0,0 UV-I 70 W/m 14,3 C 12,3 C 16,1 km/h (3 Bft) 100,00 %
29.05.2016 07:04 14,6 C 98 % 1005,0 hPa 0,0 l/m 7,4 km/h (2 Bft) NO 47 0 min 0,000 mm 0,0 UV-I 72 W/m 14,3 C 14,0 C 12,9 km/h (3 Bft) 95,83 %
29.05.2016 07:05 14,6 C 98 % 1005,0 hPa 0,0 l/m 11,8 km/h (2 Bft) NO 51 0 min 0,000 mm 0,0 UV-I 70 W/m 14,3 C 11,9 C 14,5 km/h (3 Bft) 100,00 %
29.05.2016 07:06 14,6 C 98 % 1005,1 hPa 0,0 l/m 9,5 km/h (2 Bft) NO 53 0 min 0,000 mm 0,0 UV-I 64 W/m 14,3 C 12,9 C 16,1 km/h (3 Bft) 100,00 %
29.05.2016 07:07 14,6 C 98 % 1005,0 hPa 0,0 l/m 6,8 km/h (2 Bft) O-NO 59 0 min 0,000 mm 0,0 UV-I 65 W/m 14,3 C 14,4 C 9,7 km/h (2 Bft) 100,00 %
29.05.2016 07:08 14,6 C 98 % 1005,0 hPa 0,0 l/m 10,2 km/h (2 Bft) O-NO 69 0 min 0,000 mm 0,0 UV-I 61 W/m 14,3 C 12,6 C 17,7 km/h (3 Bft) 95,83 %
29.05.2016 07:09 14,7 C 98 % 1005,0 hPa 0,0 l/m 9,1 km/h (2 Bft) N-NO 32 0 min 0,000 mm 0,0 UV-I 62 W/m 14,4 C 13,2 C 14,5 km/h (3 Bft) 100,00 %
29.05.2016 07:10 14,7 C 98 % 1005,0 hPa 0,0 l/m 8,2 km/h (2 Bft) NO 38 0 min 0,000 mm 0,0 UV-I 59 W/m 14,4 C 13,7 C 9,7 km/h (2 Bft) 100,00 %
29.05.2016 07:11 14,7 C 98 % 1005,0 hPa 0,0 l/m 12,5 km/h (3 Bft) NO 39 0 min 0,000 mm 0,0 UV-I 62 W/m 14,4 C 11,7 C 16,1 km/h (3 Bft) 100,00 %
29.05.2016 07:12 14,7 C 98 % 1005,0 hPa 0,0 l/m 8,1 km/h (2 Bft) O-NO 61 0 min 0,000 mm 0,0 UV-I 64 W/m 14,4 C 13,7 C 14,5 km/h (3 Bft) 100,00 %
29.05.2016 07:13 14,7 C 98 % 1004,9 hPa 0,0 l/m 7,7 km/h (2 Bft) O-NO 67 0 min 0,000 mm 0,0 UV-I 66 W/m 14,4 C 14,0 C 8,0 km/h (2 Bft) 100,00 %
29.05.2016 07:14 14,7 C 98 % 1004,9 hPa 0,0 l/m 9,9 km/h (2 Bft) O-NO 62 0 min 0,000 mm 0,0 UV-I 65 W/m 14,4 C 12,8 C 16,1 km/h (3 Bft) 100,00 %
29.05.2016 07:15 14,8 C 98 % 1004,9 hPa 0,0 l/m 11,7 km/h (2 Bft) NO 55 0 min 0,000 mm 0,0 UV-I 63 W/m 14,5 C 12,2 C 16,1 km/h (3 Bft) 100,00 %
29.05.2016 07:16 14,8 C 98 % 1004,9 hPa 0,0 l/m 13,4 km/h (3 Bft) NO 51 0 min 0,000 mm 0,0 UV-I 63 W/m 14,5 C 11,5 C 17,7 km/h (3 Bft) 100,00 %
29.05.2016 07:17 14,8 C 98 % 1004,9 hPa 0,0 l/m 12,3 km/h (3 Bft) O-NO 67 0 min 0,000 mm 0,0 UV-I 66 W/m 14,5 C 11,9 C 16,1 km/h (3 Bft) 100,00 %
29.05.2016 07:18 14,8 C 98 % 1004,9 hPa 0,0 l/m 9,3 km/h (2 Bft) O-NO 76 0 min 0,000 mm 0,0 UV-I 63 W/m 14,5 C 13,2 C 12,9 km/h (3 Bft) 100,00 %
29.05.2016 07:19 14,8 C 98 % 1004,8 hPa 0,0 l/m 9,0 km/h (2 Bft) NO 52 0 min 0,000 mm 0,0 UV-I 62 W/m 14,5 C 13,4 C 14,5 km/h (3 Bft) 100,00 %
29.05.2016 07:20 14,8 C 98 % 1004,9 hPa 0,0 l/m 6,4 km/h (2 Bft) NO 45 0 min 0,000 mm 0,0 UV-I 62 W/m 14,5 C 14,8 C 9,7 km/h (2 Bft) 100,00 %
29.05.2016 07:21 14,8 C 98 % 1004,8 hPa 0,0 l/m 6,5 km/h (2 Bft) NO 55 0 min 0,000 mm 0,0 UV-I 62 W/m 14,5 C 14,8 C 8,0 km/h (2 Bft) 100,00 %
29.05.2016 07:22 14,9 C 98 % 1004,8 hPa 0,0 l/m 4,8 km/h (1 Bft) NO 50 0 min 0,000 mm 0,0 UV-I 55 W/m 14,6 C 14,9 C 6,4 km/h (2 Bft) 100,00 %
29.05.2016 07:23 14,9 C 98 % 1004,8 hPa 0,0 l/m 5,3 km/h (1 Bft) O-NO 64 0 min 0,000 mm 0,0 UV-I 63 W/m 14,6 C 14,9 C 8,0 km/h (2 Bft) 100,00 %
29.05.2016 07:24 14,9 C 98 % 1004,8 hPa 0,0 l/m 6,1 km/h (2 Bft) O 80 0 min 0,000 mm 0,0 UV-I 66 W/m 14,6 C 14,9 C 11,3 km/h (2 Bft) 100,00 %
29.05.2016 07:25 14,9 C 98 % 1004,8 hPa 0,0 l/m 10,8 km/h (2 Bft) O-NO 72 0 min 0,000 mm 0,0 UV-I 71 W/m 14,6 C 12,7 C 16,1 km/h (3 Bft) 100,00 %
29.05.2016 07:26 14,9 C 98 % 1004,8 hPa 0,0 l/m 9,6 km/h (2 Bft) O-NO 67 0 min 0,000 mm 0,0 UV-I 73 W/m 14,6 C 13,2 C 14,5 km/h (3 Bft) 100,00 %
29.05.2016 07:27 15,0 C 98 % 1004,8 hPa 0,0 l/m 10,6 km/h (2 Bft) NO 53 0 min 0,000 mm 0,0 UV-I 68 W/m 14,7 C 12,9 C 16,1 km/h (3 Bft) 100,00 %
29.05.2016 07:28 15,0 C 98 % 1004,8 hPa 0,0 l/m 10,1 km/h (2 Bft) O-NO 66 0 min 0,000 mm 0,0 UV-I 66 W/m 14,7 C 13,1 C 14,5 km/h (3 Bft) 100,00 %
29.05.2016 07:29 15,0 C 98 % 1004,8 hPa 0,0 l/m 11,3 km/h (2 Bft) O-NO 57 0 min 0,000 mm 0,0 UV-I 68 W/m 14,7 C 12,6 C 16,1 km/h (3 Bft) 100,00 %
29.05.2016 07:30 15,1 C 98 % 1004,8 hPa 0,0 l/m 10,5 km/h (2 Bft) O-NO 57 0 min 0,000 mm 0,0 UV-I 67 W/m 14,8 C 13,0 C 14,5 km/h (3 Bft) 100,00 %
29.05.2016 07:31 15,1 C 98 % 1004,8 hPa 0,0 l/m 8,0 km/h (2 Bft) O-NO 61 0 min 0,000 mm 0,0 UV-I 65 W/m 14,8 C 14,2 C 12,9 km/h (3 Bft) 100,00 %
29.05.2016 07:32 15,1 C 98 % 1004,8 hPa 0,0 l/m 8,3 km/h (2 Bft) O-NO 63 0 min 0,000 mm 0,0 UV-I 66 W/m 14,8 C 14,0 C 12,9 km/h (3 Bft) 100,00 %
29.05.2016 07:33 15,1 C 98 % 1004,8 hPa 0,0 l/m 7,9 km/h (2 Bft) O-NO 63 0 min 0,000 mm 0,0 UV-I 70 W/m 14,8 C 14,3 C 9,7 km/h (2 Bft) 95,65 %
29.05.2016 07:34 15,1 C 98 % 1004,8 hPa 0,0 l/m 9,5 km/h (2 Bft) O-NO 66 0 min 0,000 mm 0,0 UV-I 76 W/m 14,8 C 13,5 C 11,3 km/h (2 Bft) 91,67 %
29.05.2016 07:35 15,1 C 98 % 1004,8 hPa 0,0 l/m 6,8 km/h (2 Bft) NO 40 0 min 0,000 mm 0,0 UV-I 74 W/m 14,8 C 14,9 C 11,3 km/h (2 Bft) 95,65 %
29.05.2016 07:36 15,1 C 98 % 1004,8 hPa 0,0 l/m 6,9 km/h (2 Bft) O-NO 61 0 min 0,000 mm 0,0 UV-I 70 W/m 14,8 C 14,8 C 9,7 km/h (2 Bft) 95,83 %
29.05.2016 07:37 15,2 C 98 % 1004,8 hPa 0,0 l/m 5,1 km/h (1 Bft) NO 55 0 min 0,000 mm 0,0 UV-I 70 W/m 14,9 C 15,2 C 6,4 km/h (2 Bft) 100,00 %
29.05.2016 07:38 15,1 C 98 % 1004,8 hPa 0,0 l/m 4,6 km/h (1 Bft) O-NO 76 0 min 0,000 mm 0,0 UV-I 70 W/m 14,8 C 15,1 C 8,0 km/h (2 Bft) 95,83 %
29.05.2016 07:39 15,2 C 98 % 1004,8 hPa 0,0 l/m 6,6 km/h (2 Bft) O-NO 57 0 min 0,000 mm 0,0 UV-I 75 W/m 14,9 C 15,1 C 8,0 km/h (2 Bft) 100,00 %
29.05.2016 07:40 15,2 C 98 % 1004,8 hPa 0,0 l/m 7,7 km/h (2 Bft) NO 55 0 min 0,000 mm 0,0 UV-I 78 W/m 14,9 C 14,5 C 9,7 km/h (2 Bft) 95,83 %
29.05.2016 07:41 15,2 C 98 % 1004,8 hPa 0,0 l/m 6,4 km/h (2 Bft) NO 49 0 min 0,000 mm 0,0 UV-I 85 W/m 14,9 C 15,2 C 8,0 km/h (2 Bft) 100,00 %
29.05.2016 07:42 15,2 C 98 % 1004,8 hPa 0,0 l/m 7,7 km/h (2 Bft) O 93 0 min 0,000 mm 0,0 UV-I 87 W/m 14,9 C 14,5 C 11,3 km/h (2 Bft) 95,83 %
29.05.2016 07:43 15,2 C 98 % 1004,8 hPa 0,0 l/m 4,6 km/h (1 Bft) O-SO 109 0 min 0,000 mm 0,0 UV-I 90 W/m 14,9 C 15,2 C 6,4 km/h (2 Bft) 91,30 %
29.05.2016 07:44 15,2 C 98 % 1004,8 hPa 0,0 l/m 7,6 km/h (2 Bft) O-NO 63 0 min 0,000 mm 0,0 UV-I 83 W/m 14,9 C 14,5 C 9,7 km/h (2 Bft) 100,00 %
29.05.2016 07:45 15,2 C 98 % 1004,8 hPa 0,0 l/m 8,9 km/h (2 Bft) O-SO 114 0 min 0,000 mm 0,0 UV-I 71 W/m 14,9 C 13,9 C 12,9 km/h (3 Bft) 95,65 %
29.05.2016 07:46 15,3 C 98 % 1004,8 hPa 0,0 l/m 9,3 km/h (2 Bft) O 82 0 min 0,000 mm 0,0 UV-I 72 W/m 15,0 C 13,8 C 12,9 km/h (3 Bft) 95,83 %
29.05.2016 07:47 15,2 C 98 % 1004,8 hPa 0,0 l/m 7,1 km/h (2 Bft) O-NO 70 0 min 0,000 mm 0,0 UV-I 84 W/m 14,9 C 14,8 C 9,7 km/h (2 Bft) 91,67 %
29.05.2016 07:48 15,2 C 98 % 1004,8 hPa 0,0 l/m 6,6 km/h (2 Bft) O-SO 115 0 min 0,000 mm 0,0 UV-I 81 W/m 14,9 C 15,1 C 12,9 km/h (3 Bft) 97,37 %
29.05.2016 07:49 15,2 C 98 % 1004,9 hPa 0,0 l/m 7,2 km/h (2 Bft) O 96 0 min 0,000 mm 0,0 UV-I 75 W/m 14,9 C 14,8 C 11,3 km/h (2 Bft) 95,83 %
29.05.2016 07:50 15,2 C 98 % 1004,9 hPa 0,0 l/m 9,4 km/h (2 Bft) SO 130 0 min 0,000 mm 0,0 UV-I 76 W/m 14,9 C 13,6 C 11,3 km/h (2 Bft) 95,65 %
29.05.2016 07:51 15,3 C 98 % 1004,9 hPa 0,0 l/m 4,3 km/h (1 Bft) O-SO 120 0 min 0,000 mm 0,0 UV-I 78 W/m 15,0 C 15,3 C 11,3 km/h (2 Bft) 100,00 %
29.05.2016 07:52 15,3 C 98 % 1004,9 hPa 0,0 l/m 9,7 km/h (2 Bft) O 96 0 min 0,000 mm 0,0 UV-I 82 W/m 15,0 C 13,6 C 12,9 km/h (3 Bft) 95,65 %
29.05.2016 07:53 15,3 C 98 % 1005,0 hPa 0,0 l/m 6,5 km/h (2 Bft) O 97 0 min 0,000 mm 0,0 UV-I 77 W/m 15,0 C 15,3 C 9,7 km/h (2 Bft) 95,83 %
29.05.2016 07:54 15,2 C 98 % 1005,0 hPa 0,0 l/m 4,1 km/h (1 Bft) O 80 0 min 0,000 mm 0,0 UV-I 73 W/m 14,9 C 15,2 C 6,4 km/h (2 Bft) 95,65 %
29.05.2016 07:55 15,2 C 98 % 1005,0 hPa 0,0 l/m 4,0 km/h (1 Bft) O 79 0 min 0,000 mm 0,0 UV-I 80 W/m 14,9 C 15,2 C 8,0 km/h (2 Bft) 100,00 %
29.05.2016 07:56 15,3 C 98 % 1005,0 hPa 0,0 l/m 8,3 km/h (2 Bft) O-NO 71 0 min 0,000 mm 0,0 UV-I 92 W/m 15,0 C 14,3 C 11,3 km/h (2 Bft) 92,86 %
29.05.2016 07:57 15,3 C 98 % 1005,0 hPa 0,0 l/m 5,7 km/h (1 Bft) O-NO 76 0 min 0,000 mm 0,0 UV-I 104 W/m 15,0 C 15,3 C 11,3 km/h (2 Bft) 100,00 %
29.05.2016 07:58 15,3 C 98 % 1005,0 hPa 0,0 l/m 7,2 km/h (2 Bft) O 80 0 min 0,000 mm 0,0 UV-I 100 W/m 15,0 C 14,9 C 11,3 km/h (2 Bft) 95,65 %
29.05.2016 07:59 15,3 C 98 % 1004,9 hPa 0,0 l/m 10,9 km/h (2 Bft) O-NO 67 0 min 0,000 mm 0,0 UV-I 90 W/m 15,0 C 13,1 C 17,7 km/h (3 Bft) 95,83 %
29.05.2016 08:00 15,3 C 98 % 1004,9 hPa 0,0 l/m 16,8 km/h (3 Bft) O 83 0 min 0,051 mm 0,0 UV-I 104 W/m 15,0 C 11,0 C 20,9 km/h (4 Bft) 100,00 %
29.05.2016 08:02 15,3 C 98 % 1004,9 hPa 0,0 l/m 11,0 km/h (2 Bft) O-NO 67 0 min 0,000 mm 0,0 UV-I 120 W/m 15,0 C 13,0 C 16,1 km/h (3 Bft) 97,87 %
29.05.2016 08:03 15,3 C 98 % 1004,9 hPa 0,0 l/m 9,0 km/h (2 Bft) O-NO 67 0 min 0,000 mm 0,0 UV-I 123 W/m 15,0 C 13,9 C 12,9 km/h (3 Bft) 100,00 %
29.05.2016 08:04 15,3 C 98 % 1004,9 hPa 0,0 l/m 10,3 km/h (2 Bft) O 83 0 min 0,000 mm 0,0 UV-I 127 W/m 15,0 C 13,3 C 14,5 km/h (3 Bft) 91,30 %
29.05.2016 08:05 15,3 C 98 % 1004,8 hPa 0,0 l/m 11,4 km/h (2 Bft) O-NO 62 0 min 0,000 mm 0,5 UV-I 132 W/m 15,0 C 12,9 C 16,1 km/h (3 Bft) 95,83 %
29.05.2016 08:06 15,3 C 98 % 1004,8 hPa 0,0 l/m 11,5 km/h (2 Bft) O 93 0 min 0,000 mm 0,5 UV-I 137 W/m 15,0 C 12,8 C 17,7 km/h (3 Bft) 100,00 %
29.05.2016 08:07 15,3 C 98 % 1004,8 hPa 0,0 l/m 8,1 km/h (2 Bft) O-SO 122 0 min 0,000 mm 0,5 UV-I 148 W/m 15,0 C 14,4 C 11,3 km/h (2 Bft) 100,00 %
29.05.2016 08:08 15,3 C 98 % 1004,9 hPa 0,0 l/m 7,7 km/h (2 Bft) O-NO 71 0 min 0,000 mm 0,6 UV-I 167 W/m 15,0 C 14,6 C 12,9 km/h (3 Bft) 100,00 %
29.05.2016 08:09 15,4 C 98 % 1004,9 hPa 0,0 l/m 7,7 km/h (2 Bft) O-NO 76 0 min 0,000 mm 0,7 UV-I 180 W/m 15,1 C 14,7 C 12,9 km/h (3 Bft) 100,00 %
29.05.2016 08:10 15,5 C 98 % 1004,9 hPa 0,0 l/m 11,9 km/h (2 Bft) O-NO 65 0 min 0,000 mm 0,7 UV-I 198 W/m 15,2 C 12,9 C 16,1 km/h (3 Bft) 95,83 %
29.05.2016 08:11 15,5 C 98 % 1004,9 hPa 0,0 l/m 10,6 km/h (2 Bft) O 84 0 min 0,000 mm 0,8 UV-I 210 W/m 15,2 C 13,4 C 14,5 km/h (3 Bft) 95,65 %
29.05.2016 08:12 15,6 C 98 % 1004,9 hPa 0,0 l/m 11,0 km/h (2 Bft) O-NO 62 0 min 0,000 mm 0,8 UV-I 234 W/m 15,3 C 13,4 C 14,5 km/h (3 Bft) 95,83 %
29.05.2016 08:13 15,6 C 98 % 1004,9 hPa 0,0 l/m 10,2 km/h (2 Bft) O-NO 74 1 min 0,000 mm 0,9 UV-I 266 W/m 15,3 C 13,7 C 12,9 km/h (3 Bft) 100,00 %
29.05.2016 08:14 15,7 C 98 % 1004,9 hPa 0,0 l/m 9,5 km/h (2 Bft) O-NO 72 1 min 0,000 mm 1,0 UV-I 276 W/m 15,4 C 14,1 C 14,5 km/h (3 Bft) 100,00 %
29.05.2016 08:15 15,7 C 98 % 1004,9 hPa 0,0 l/m 12,9 km/h (3 Bft) O-NO 74 1 min 0,000 mm 1,0 UV-I 268 W/m 15,4 C 12,7 C 17,7 km/h (3 Bft) 100,00 %
29.05.2016 08:16 15,7 C 98 % 1004,8 hPa 0,0 l/m 9,6 km/h (2 Bft) O-NO 71 0 min 0,000 mm 1,0 UV-I 221 W/m 15,4 C 14,1 C 16,1 km/h (3 Bft) 95,83 %
29.05.2016 08:17 15,8 C 98 % 1004,9 hPa 0,0 l/m 7,8 km/h (2 Bft) O-NO 76 1 min 0,000 mm 1,0 UV-I 261 W/m 15,5 C 15,0 C 14,5 km/h (3 Bft) 86,96 %
29.05.2016 08:18 15,8 C 98 % 1004,8 hPa 0,0 l/m 13,2 km/h (3 Bft) O-NO 59 0 min 0,000 mm 1,0 UV-I 253 W/m 15,5 C 12,8 C 19,3 km/h (3 Bft) 100,00 %
29.05.2016 08:19 15,8 C 98 % 1004,8 hPa 0,0 l/m 9,7 km/h (2 Bft) O 92 0 min 0,000 mm 0,9 UV-I 216 W/m 15,5 C 14,1 C 14,5 km/h (3 Bft) 100,00 %
29.05.2016 08:20 15,8 C 98 % 1004,8 hPa 0,0 l/m 10,5 km/h (2 Bft) O 86 0 min 0,000 mm 0,8 UV-I 200 W/m 15,5 C 13,8 C 14,5 km/h (3 Bft) 100,00 %
29.05.2016 08:21 15,8 C 98 % 1004,8 hPa 0,0 l/m 9,0 km/h (2 Bft) O-NO 57 0 min 0,000 mm 0,7 UV-I 188 W/m 15,5 C 14,5 C 12,9 km/h (3 Bft) 95,83 %
29.05.2016 08:22 15,8 C 98 % 1004,8 hPa 0,0 l/m 8,6 km/h (2 Bft) O-NO 71 0 min 0,000 mm 0,6 UV-I 178 W/m 15,5 C 14,6 C 9,7 km/h (2 Bft) 100,00 %
29.05.2016 08:23 15,9 C 98 % 1004,9 hPa 0,0 l/m 4,8 km/h (1 Bft) O-NO 78 0 min 0,000 mm 0,6 UV-I 182 W/m 15,6 C 15,9 C 6,4 km/h (2 Bft) 95,65 %
29.05.2016 08:24 15,9 C 98 % 1004,9 hPa 0,0 l/m 7,2 km/h (2 Bft) O-SO 113 0 min 0,000 mm 0,7 UV-I 186 W/m 15,6 C 15,5 C 11,3 km/h (2 Bft) 100,00 %
29.05.2016 08:25 15,9 C 98 % 1004,9 hPa 0,0 l/m 7,8 km/h (2 Bft) O 80 0 min 0,000 mm 0,8 UV-I 164 W/m 15,6 C 15,1 C 12,9 km/h (3 Bft) 100,00 %
29.05.2016 08:26 15,9 C 98 % 1004,8 hPa 0,0 l/m 5,0 km/h (1 Bft) O 80 0 min 0,000 mm 0,8 UV-I 157 W/m 15,6 C 15,9 C 6,4 km/h (2 Bft) 100,00 %
29.05.2016 08:27 15,9 C 97 % 1004,8 hPa 0,0 l/m 5,4 km/h (1 Bft) SO 134 0 min 0,000 mm 0,9 UV-I 191 W/m 15,4 C 15,9 C 8,0 km/h (2 Bft) 100,00 %
29.05.2016 08:28 15,8 C 97 % 1004,8 hPa 0,0 l/m 6,0 km/h (2 Bft) O-NO 64 0 min 0,000 mm 0,9 UV-I 234 W/m 15,3 C 15,8 C 9,7 km/h (2 Bft) 91,30 %
29.05.2016 08:29 15,8 C 97 % 1004,8 hPa 0,0 l/m 5,9 km/h (2 Bft) O 81 0 min 0,000 mm 0,9 UV-I 254 W/m 15,3 C 15,8 C 9,7 km/h (2 Bft) 95,83 %
29.05.2016 08:30 15,8 C 97 % 1004,8 hPa 0,0 l/m 7,0 km/h (2 Bft) O-NO 77 0 min 0,000 mm 1,0 UV-I 249 W/m 15,3 C 15,5 C 9,7 km/h (2 Bft) 100,00 %
29.05.2016 08:31 15,9 C 97 % 1004,8 hPa 0,0 l/m 9,7 km/h (2 Bft) O-NO 74 0 min 0,000 mm 0,9 UV-I 216 W/m 15,4 C 14,2 C 12,9 km/h (3 Bft) 100,00 %
29.05.2016 08:32 15,8 C 97 % 1004,8 hPa 0,0 l/m 8,0 km/h (2 Bft) NO 48 0 min 0,000 mm 0,9 UV-I 209 W/m 15,3 C 14,9 C 12,9 km/h (3 Bft) 95,65 %
29.05.2016 08:33 15,9 C 97 % 1004,8 hPa 0,0 l/m 6,6 km/h (2 Bft) O-NO 69 0 min 0,000 mm 0,8 UV-I 210 W/m 15,4 C 15,8 C 11,3 km/h (2 Bft) 100,00 %
29.05.2016 08:34 15,9 C 97 % 1004,9 hPa 0,0 l/m 7,2 km/h (2 Bft) O 96 0 min 0,000 mm 0,8 UV-I 223 W/m 15,4 C 15,5 C 9,7 km/h (2 Bft) 91,30 %
29.05.2016 08:35 16,0 C 97 % 1004,9 hPa 0,0 l/m 2,2 km/h (1 Bft) S-SO 163 0 min 0,000 mm 0,9 UV-I 234 W/m 15,5 C 16,0 C 6,4 km/h (2 Bft) 100,00 %
29.05.2016 08:36 16,0 C 97 % 1004,9 hPa 0,0 l/m 2,4 km/h (1 Bft) O-SO 111 0 min 0,000 mm 0,9 UV-I 229 W/m 15,5 C 16,0 C 3,2 km/h (1 Bft) 100,00 %
29.05.2016 08:37 16,1 C 97 % 1004,9 hPa 0,0 l/m 2,7 km/h (1 Bft) O-SO 111 0 min 0,000 mm 0,9 UV-I 237 W/m 15,6 C 16,1 C 4,8 km/h (1 Bft) 100,00 %
29.05.2016 08:38 16,1 C 97 % 1004,9 hPa 0,0 l/m 3,7 km/h (1 Bft) O 88 0 min 0,000 mm 0,8 UV-I 219 W/m 15,6 C 16,1 C 8,0 km/h (2 Bft) 100,00 %
29.05.2016 08:39 16,2 C 97 % 1004,9 hPa 0,0 l/m 7,2 km/h (2 Bft) NO 39 0 min 0,000 mm 0,9 UV-I 229 W/m 15,7 C 15,8 C 11,3 km/h (2 Bft) 100,00 %
29.05.2016 08:40 16,3 C 97 % 1004,9 hPa 0,0 l/m 6,8 km/h (2 Bft) O-NO 59 0 min 0,000 mm 0,9 UV-I 229 W/m 15,8 C 16,1 C 9,7 km/h (2 Bft) 100,00 %
29.05.2016 08:41 16,3 C 97 % 1005,0 hPa 0,0 l/m 5,0 km/h (1 Bft) O-NO 58 0 min 0,000 mm 0,9 UV-I 212 W/m 15,8 C 16,3 C 9,7 km/h (2 Bft) 95,83 %
29.05.2016 08:42 16,3 C 96 % 1005,0 hPa 0,0 l/m 6,4 km/h (2 Bft) O-SO 109 0 min 0,000 mm 0,8 UV-I 198 W/m 15,7 C 16,3 C 11,3 km/h (2 Bft) 95,65 %
29.05.2016 08:43 16,3 C 96 % 1004,9 hPa 0,0 l/m 7,2 km/h (2 Bft) O 92 0 min 0,000 mm 0,7 UV-I 189 W/m 15,7 C 15,9 C 11,3 km/h (2 Bft) 100,00 %
29.05.2016 08:44 16,3 C 96 % 1004,9 hPa 0,0 l/m 5,2 km/h (1 Bft) O-NO 62 0 min 0,000 mm 0,7 UV-I 188 W/m 15,7 C 16,3 C 8,0 km/h (2 Bft) 95,65 %
29.05.2016 08:45 16,3 C 96 % 1004,9 hPa 0,0 l/m 5,2 km/h (1 Bft) O-NO 72 0 min 0,000 mm 0,7 UV-I 182 W/m 15,7 C 16,3 C 8,0 km/h (2 Bft) 100,00 %
29.05.2016 08:46 16,3 C 96 % 1004,9 hPa 0,0 l/m 5,6 km/h (1 Bft) O-SO 109 0 min 0,000 mm 0,7 UV-I 179 W/m 15,7 C 16,3 C 8,0 km/h (2 Bft) 100,00 %
29.05.2016 08:47 16,3 C 96 % 1004,9 hPa 0,0 l/m 4,3 km/h (1 Bft) O 97 0 min 0,000 mm 0,7 UV-I 172 W/m 15,7 C 16,3 C 6,4 km/h (2 Bft) 100,00 %
29.05.2016 08:48 16,3 C 96 % 1004,9 hPa 0,0 l/m 7,1 km/h (2 Bft) O-NO 78 0 min 0,000 mm 0,7 UV-I 168 W/m 15,7 C 15,9 C 12,9 km/h (3 Bft) 100,00 %
29.05.2016 08:49 16,3 C 95 % 1005,0 hPa 0,0 l/m 5,2 km/h (1 Bft) O 95 0 min 0,000 mm 0,7 UV-I 167 W/m 15,5 C 16,3 C 11,3 km/h (2 Bft) 91,30 %
29.05.2016 08:50 16,3 C 95 % 1005,0 hPa 0,0 l/m 4,8 km/h (1 Bft) O-NO 64 0 min 0,000 mm 0,7 UV-I 183 W/m 15,5 C 16,3 C 9,7 km/h (2 Bft) 100,00 %
29.05.2016 08:51 16,3 C 96 % 1005,0 hPa 0,0 l/m 5,5 km/h (1 Bft) O-SO 121 0 min 0,000 mm 0,8 UV-I 205 W/m 15,7 C 16,3 C 8,0 km/h (2 Bft) 100,00 %
29.05.2016 08:52 16,3 C 95 % 1005,0 hPa 0,0 l/m 6,2 km/h (2 Bft) O 84 0 min 0,000 mm 0,8 UV-I 216 W/m 15,5 C 16,3 C 9,7 km/h (2 Bft) 100,00 %
29.05.2016 08:53 16,3 C 95 % 1005,1 hPa 0,0 l/m 5,1 km/h (1 Bft) O-NO 67 0 min 0,000 mm 0,8 UV-I 214 W/m 15,5 C 16,3 C 8,0 km/h (2 Bft) 95,65 %
29.05.2016 08:54 16,3 C 95 % 1005,1 hPa 0,0 l/m 6,2 km/h (2 Bft) O 91 0 min 0,000 mm 0,8 UV-I 201 W/m 15,5 C 16,3 C 11,3 km/h (2 Bft) 100,00 %
29.05.2016 08:55 16,3 C 95 % 1005,1 hPa 0,0 l/m 8,6 km/h (2 Bft) O 89 0 min 0,000 mm 0,8 UV-I 193 W/m 15,5 C 15,2 C 11,3 km/h (2 Bft) 100,00 %
29.05.2016 08:56 16,3 C 95 % 1005,1 hPa 0,0 l/m 6,5 km/h (2 Bft) O 93 0 min 0,000 mm 0,8 UV-I 190 W/m 15,5 C 16,3 C 9,7 km/h (2 Bft) 96,30 %
29.05.2016 08:57 16,3 C 95 % 1005,1 hPa 0,0 l/m 6,0 km/h (2 Bft) O 90 0 min 0,000 mm 0,7 UV-I 174 W/m 15,5 C 16,3 C 9,7 km/h (2 Bft) 100,00 %
29.05.2016 08:58 16,3 C 94 % 1005,1 hPa 0,0 l/m 5,6 km/h (1 Bft) O 93 0 min 0,000 mm 0,7 UV-I 157 W/m 15,3 C 16,3 C 6,4 km/h (2 Bft) 100,00 %
29.05.2016 08:59 16,3 C 95 % 1005,1 hPa 0,0 l/m 4,2 km/h (1 Bft) O 86 0 min 0,000 mm 0,7 UV-I 155 W/m 15,5 C 16,3 C 6,4 km/h (2 Bft) 100,00 %
29.05.2016 09:00 16,3 C 95 % 1005,1 hPa 0,0 l/m 9,0 km/h (2 Bft) O-NO 58 0 min 0,102 mm 0,8 UV-I 154 W/m 15,5 C 15,0 C 14,5 km/h (3 Bft) 100,00 %
29.05.2016 09:02 16,3 C 94 % 1005,2 hPa 0,0 l/m 9,9 km/h (2 Bft) O-NO 69 0 min 0,000 mm 0,8 UV-I 137 W/m 15,3 C 14,6 C 16,1 km/h (3 Bft) 100,00 %
29.05.2016 09:03 16,3 C 94 % 1005,1 hPa 0,0 l/m 11,5 km/h (2 Bft) O-NO 68 0 min 0,000 mm 0,7 UV-I 135 W/m 15,3 C 14,0 C 16,1 km/h (3 Bft) 95,65 %
29.05.2016 09:04 16,3 C 94 % 1005,1 hPa 0,0 l/m 13,3 km/h (3 Bft) O 81 0 min 0,000 mm 0,8 UV-I 155 W/m 15,3 C 13,3 C 17,7 km/h (3 Bft) 100,00 %
29.05.2016 09:05 16,3 C 94 % 1005,1 hPa 0,0 l/m 10,6 km/h (2 Bft) O 87 0 min 0,000 mm 1,0 UV-I 212 W/m 15,3 C 14,3 C 17,7 km/h (3 Bft) 100,00 %
29.05.2016 09:06 16,3 C 94 % 1005,1 hPa 0,0 l/m 9,1 km/h (2 Bft) O 93 0 min 0,000 mm 1,3 UV-I 302 W/m 15,3 C 14,9 C 12,9 km/h (3 Bft) 100,00 %
29.05.2016 09:07 16,3 C 94 % 1005,1 hPa 0,0 l/m 12,3 km/h (3 Bft) O-NO 58 1 min 0,000 mm 1,5 UV-I 350 W/m 15,3 C 13,7 C 17,7 km/h (3 Bft) 100,00 %
29.05.2016 09:08 16,4 C 94 % 1005,1 hPa 0,0 l/m 10,1 km/h (2 Bft) O-NO 72 1 min 0,000 mm 1,5 UV-I 328 W/m 15,4 C 14,6 C 14,5 km/h (3 Bft) 100,00 %
29.05.2016 09:09 16,4 C 93 % 1005,1 hPa 0,0 l/m 6,8 km/h (2 Bft) O-NO 74 1 min 0,000 mm 1,5 UV-I 366 W/m 15,3 C 16,2 C 11,3 km/h (2 Bft) 100,00 %
29.05.2016 09:10 16,4 C 93 % 1005,1 hPa 0,0 l/m 8,4 km/h (2 Bft) O-NO 67 1 min 0,000 mm 1,6 UV-I 410 W/m 15,3 C 15,4 C 12,9 km/h (3 Bft) 100,00 %
29.05.2016 09:11 16,5 C 93 % 1005,2 hPa 0,0 l/m 7,7 km/h (2 Bft) O-SO 121 1 min 0,000 mm 1,6 UV-I 404 W/m 15,4 C 15,8 C 12,9 km/h (3 Bft) 100,00 %
29.05.2016 09:12 16,6 C 93 % 1005,2 hPa 0,0 l/m 8,1 km/h (2 Bft) O-SO 103 1 min 0,000 mm 1,6 UV-I 380 W/m 15,5 C 15,7 C 11,3 km/h (2 Bft) 100,00 %
29.05.2016 09:13 16,6 C 94 % 1005,2 hPa 0,0 l/m 9,3 km/h (2 Bft) O-SO 121 1 min 0,000 mm 1,5 UV-I 337 W/m 15,6 C 15,2 C 14,5 km/h (3 Bft) 100,00 %
29.05.2016 09:14 16,7 C 93 % 1005,2 hPa 0,0 l/m 7,2 km/h (2 Bft) O-NO 78 1 min 0,000 mm 1,5 UV-I 340 W/m 15,6 C 16,3 C 11,3 km/h (2 Bft) 100,00 %
29.05.2016 09:15 16,6 C 93 % 1005,2 hPa 0,0 l/m 3,6 km/h (1 Bft) O-NO 78 1 min 0,000 mm 1,6 UV-I 395 W/m 15,5 C 16,6 C 8,0 km/h (2 Bft) 100,00 %
29.05.2016 09:16 16,6 C 92 % 1005,2 hPa 0,0 l/m 9,7 km/h (2 Bft) O-NO 74 1 min 0,000 mm 1,8 UV-I 407 W/m 15,3 C 15,0 C 14,5 km/h (3 Bft) 100,00 %
29.05.2016 09:17 16,7 C 92 % 1005,1 hPa 0,0 l/m 7,0 km/h (2 Bft) O-NO 68 1 min 0,000 mm 1,7 UV-I 379 W/m 15,4 C 16,4 C 11,3 km/h (2 Bft) 100,00 %
29.05.2016 09:18 16,7 C 92 % 1005,1 hPa 0,0 l/m 9,3 km/h (2 Bft) O-NO 69 1 min 0,000 mm 1,8 UV-I 375 W/m 15,4 C 15,3 C 12,9 km/h (3 Bft) 100,00 %
29.05.2016 09:19 16,7 C 92 % 1005,1 hPa 0,0 l/m 7,3 km/h (2 Bft) O-NO 68 1 min 0,000 mm 1,7 UV-I 389 W/m 15,4 C 16,2 C 11,3 km/h (2 Bft) 100,00 %
29.05.2016 09:20 16,8 C 92 % 1005,2 hPa 0,0 l/m 4,8 km/h (1 Bft) O-NO 67 1 min 0,000 mm 1,7 UV-I 396 W/m 15,5 C 16,8 C 8,0 km/h (2 Bft) 100,00 %
29.05.2016 09:21 16,8 C 93 % 1005,1 hPa 0,0 l/m 3,1 km/h (1 Bft) N-NO 33 1 min 0,000 mm 1,7 UV-I 389 W/m 15,7 C 16,8 C 4,8 km/h (1 Bft) 100,00 %
29.05.2016 09:22 16,9 C 93 % 1005,1 hPa 0,0 l/m 7,1 km/h (2 Bft) O-NO 67 1 min 0,000 mm 1,7 UV-I 391 W/m 15,8 C 16,5 C 9,7 km/h (2 Bft) 100,00 %
29.05.2016 09:23 16,9 C 91 % 1005,1 hPa 0,0 l/m 9,0 km/h (2 Bft) NO 55 1 min 0,000 mm 1,8 UV-I 409 W/m 15,4 C 15,6 C 14,5 km/h (3 Bft) 100,00 %
29.05.2016 09:24 16,9 C 90 % 1005,1 hPa 0,0 l/m 6,8 km/h (2 Bft) O-NO 63 1 min 0,000 mm 1,9 UV-I 414 W/m 15,2 C 16,7 C 9,7 km/h (2 Bft) 95,83 %
29.05.2016 09:25 16,9 C 91 % 1005,0 hPa 0,0 l/m 4,4 km/h (1 Bft) O-NO 63 1 min 0,000 mm 1,9 UV-I 408 W/m 15,4 C 16,9 C 4,8 km/h (1 Bft) 100,00 %
29.05.2016 09:26 16,9 C 91 % 1005,0 hPa 0,0 l/m 2,8 km/h (1 Bft) O-NO 63 1 min 0,000 mm 1,9 UV-I 397 W/m 15,4 C 16,9 C 4,8 km/h (1 Bft) 95,83 %
29.05.2016 09:27 17,0 C 91 % 1005,1 hPa 0,0 l/m 3,0 km/h (1 Bft) O-NO 63 1 min 0,000 mm 1,9 UV-I 385 W/m 15,5 C 17,0 C 4,8 km/h (1 Bft) 100,00 %
29.05.2016 09:28 17,1 C 91 % 1005,0 hPa 0,0 l/m 5,9 km/h (2 Bft) O-NO 66 1 min 0,000 mm 1,9 UV-I 386 W/m 15,6 C 17,1 C 9,7 km/h (2 Bft) 100,00 %
29.05.2016 09:29 17,1 C 91 % 1005,0 hPa 0,0 l/m 8,9 km/h (2 Bft) O-NO 57 1 min 0,000 mm 1,9 UV-I 410 W/m 15,6 C 15,9 C 12,9 km/h (3 Bft) 100,00 %
29.05.2016 09:30 17,2 C 91 % 1005,0 hPa 0,0 l/m 9,6 km/h (2 Bft) O-NO 63 1 min 0,000 mm 2,0 UV-I 450 W/m 15,7 C 15,7 C 14,5 km/h (3 Bft) 95,83 %
29.05.2016 09:31 17,3 C 90 % 1005,1 hPa 0,0 l/m 9,6 km/h (2 Bft) O 80 1 min 0,000 mm 1,9 UV-I 414 W/m 15,6 C 15,8 C 16,1 km/h (3 Bft) 95,65 %
29.05.2016 09:32 17,3 C 90 % 1005,0 hPa 0,0 l/m 9,2 km/h (2 Bft) NO 34 1 min 0,000 mm 1,9 UV-I 372 W/m 15,6 C 16,0 C 12,9 km/h (3 Bft) 95,83 %
29.05.2016 09:33 17,3 C 89 % 1005,0 hPa 0,0 l/m 7,7 km/h (2 Bft) O-NO 67 1 min 0,000 mm 1,8 UV-I 372 W/m 15,5 C 16,7 C 9,7 km/h (2 Bft) 95,65 %
29.05.2016 09:34 17,3 C 89 % 1005,0 hPa 0,0 l/m 7,4 km/h (2 Bft) O-NO 61 1 min 0,000 mm 1,8 UV-I 379 W/m 15,5 C 16,8 C 12,9 km/h (3 Bft) 100,00 %
29.05.2016 09:35 17,3 C 89 % 1005,0 hPa 0,0 l/m 5,0 km/h (1 Bft) O-NO 70 1 min 0,000 mm 1,9 UV-I 381 W/m 15,5 C 17,3 C 6,4 km/h (2 Bft) 96,15 %
29.05.2016 09:36 17,3 C 90 % 1005,0 hPa 0,0 l/m 6,6 km/h (2 Bft) NO 34 1 min 0,000 mm 1,8 UV-I 367 W/m 15,6 C 17,2 C 9,7 km/h (2 Bft) 95,83 %
29.05.2016 09:37 17,3 C 90 % 1005,0 hPa 0,0 l/m 5,8 km/h (2 Bft) NO 44 1 min 0,000 mm 1,9 UV-I 374 W/m 15,6 C 17,3 C 9,7 km/h (2 Bft) 100,00 %
29.05.2016 09:38 17,4 C 92 % 1005,0 hPa 0,0 l/m 5,7 km/h (1 Bft) NO 39 1 min 0,000 mm 1,9 UV-I 378 W/m 16,1 C 17,4 C 8,0 km/h (2 Bft) 95,83 %
29.05.2016 09:39 17,6 C 91 % 1004,9 hPa 0,0 l/m 12,5 km/h (3 Bft) NO 47 1 min 0,000 mm 1,9 UV-I 382 W/m 16,1 C 15,1 C 17,7 km/h (3 Bft) 100,00 %
29.05.2016 09:40 17,6 C 91 % 1004,9 hPa 0,0 l/m 10,5 km/h (2 Bft) O-NO 65 1 min 0,000 mm 2,1 UV-I 414 W/m 16,1 C 15,8 C 14,5 km/h (3 Bft) 95,83 %
29.05.2016 09:41 17,7 C 90 % 1004,9 hPa 0,0 l/m 8,6 km/h (2 Bft) O-NO 66 1 min 0,000 mm 2,2 UV-I 434 W/m 16,0 C 16,7 C 12,9 km/h (3 Bft) 100,00 %
29.05.2016 09:42 17,6 C 89 % 1004,9 hPa 0,0 l/m 8,7 km/h (2 Bft) O 79 1 min 0,000 mm 2,1 UV-I 377 W/m 15,8 C 16,5 C 14,5 km/h (3 Bft) 96,30 %
29.05.2016 09:43 17,6 C 89 % 1004,9 hPa 0,0 l/m 7,4 km/h (2 Bft) NO 56 0 min 0,000 mm 2,1 UV-I 355 W/m 15,8 C 17,1 C 11,3 km/h (2 Bft) 95,65 %
29.05.2016 09:44 17,6 C 89 % 1004,8 hPa 0,0 l/m 7,4 km/h (2 Bft) NO 38 1 min 0,000 mm 2,1 UV-I 401 W/m 15,8 C 17,1 C 14,5 km/h (3 Bft) 100,00 %
29.05.2016 09:45 17,6 C 89 % 1004,8 hPa 0,0 l/m 5,2 km/h (1 Bft) O-NO 67 1 min 0,000 mm 2,3 UV-I 401 W/m 15,8 C 17,6 C 8,0 km/h (2 Bft) 87,50 %
29.05.2016 09:46 17,6 C 89 % 1004,8 hPa 0,0 l/m 7,4 km/h (2 Bft) O-NO 73 1 min 0,000 mm 2,6 UV-I 401 W/m 15,8 C 17,1 C 11,3 km/h (2 Bft) 100,00 %
29.05.2016 09:47 17,7 C 89 % 1004,8 hPa 0,0 l/m 8,6 km/h (2 Bft) O-NO 78 1 min 0,000 mm 2,8 UV-I 401 W/m 15,9 C 16,7 C 12,9 km/h (3 Bft) 95,65 %
29.05.2016 09:48 17,7 C 89 % 1004,7 hPa 0,0 l/m 6,9 km/h (2 Bft) O-NO 68 1 min 0,000 mm 2,9 UV-I 401 W/m 15,9 C 17,5 C 9,7 km/h (2 Bft) 100,00 %
29.05.2016 09:49 17,7 C 89 % 1004,8 hPa 0,0 l/m 5,9 km/h (2 Bft) O-NO 58 1 min 0,000 mm 2,3 UV-I 407 W/m 15,9 C 17,7 C 8,0 km/h (2 Bft) 96,30 %
29.05.2016 09:50 17,8 C 89 % 1004,8 hPa 0,0 l/m 11,3 km/h (2 Bft) O-NO 67 1 min 0,000 mm 2,4 UV-I 429 W/m 16,0 C 15,7 C 17,7 km/h (3 Bft) 95,65 %
29.05.2016 09:51 17,8 C 89 % 1004,8 hPa 0,0 l/m 9,7 km/h (2 Bft) O 81 1 min 0,000 mm 2,9 UV-I 532 W/m 16,0 C 16,3 C 14,5 km/h (3 Bft) 95,83 %
29.05.2016 09:52 17,8 C 88 % 1004,8 hPa 0,0 l/m 5,1 km/h (1 Bft) O 92 1 min 0,000 mm 2,5 UV-I 645 W/m 15,8 C 17,8 C 8,0 km/h (2 Bft) 88,46 %
29.05.2016 09:53 17,8 C 89 % 1004,8 hPa 0,0 l/m 9,4 km/h (2 Bft) O-NO 71 1 min 0,000 mm 2,5 UV-I 499 W/m 16,0 C 16,4 C 14,5 km/h (3 Bft) 100,00 %
29.05.2016 09:54 17,9 C 89 % 1004,8 hPa 0,0 l/m 9,1 km/h (2 Bft) O-NO 58 1 min 0,000 mm 2,4 UV-I 379 W/m 16,1 C 16,7 C 14,5 km/h (3 Bft) 96,15 %
29.05.2016 09:55 17,9 C 88 % 1004,7 hPa 0,0 l/m 7,0 km/h (2 Bft) NO 45 0 min 0,000 mm 2,2 UV-I 337 W/m 15,9 C 17,6 C 9,7 km/h (2 Bft) 100,00 %
29.05.2016 09:56 18,0 C 89 % 1004,8 hPa 0,0 l/m 7,6 km/h (2 Bft) O-NO 67 0 min 0,000 mm 2,1 UV-I 332 W/m 16,2 C 17,4 C 9,7 km/h (2 Bft) 91,30 %
29.05.2016 09:57 17,9 C 88 % 1004,8 hPa 0,0 l/m 5,2 km/h (1 Bft) O-NO 63 1 min 0,000 mm 2,2 UV-I 393 W/m 15,9 C 17,9 C 6,4 km/h (2 Bft) 100,00 %
29.05.2016 09:58 18,0 C 88 % 1004,9 hPa 0,0 l/m 2,9 km/h (1 Bft) O-NO 63 1 min 0,000 mm 2,3 UV-I 427 W/m 16,0 C 18,0 C 4,8 km/h (1 Bft) 95,65 %
29.05.2016 09:59 18,1 C 91 % 1004,9 hPa 0,0 l/m 3,0 km/h (1 Bft) O-NO 62 1 min 0,000 mm 2,3 UV-I 440 W/m 16,6 C 18,1 C 4,8 km/h (1 Bft) 95,83 %
29.05.2016 10:00 18,1 C 89 % 1004,9 hPa 0,0 l/m 3,0 km/h (1 Bft) O-NO 70 1 min 0,000 mm 2,3 UV-I 442 W/m 16,3 C 18,1 C 4,8 km/h (1 Bft) 95,65 %
29.05.2016 10:02 18,2 C 89 % 1004,8 hPa 0,0 l/m 3,8 km/h (1 Bft) O-SO 119 2 min 0,228 mm 2,2 UV-I 406 W/m 16,4 C 18,2 C 9,7 km/h (2 Bft) 94,87 %
29.05.2016 10:03 18,2 C 90 % 1004,8 hPa 0,0 l/m 6,0 km/h (2 Bft) NO 55 1 min 0,000 mm 2,2 UV-I 400 W/m 16,5 C 18,2 C 8,0 km/h (2 Bft) 95,65 %
29.05.2016 10:04 18,2 C 90 % 1004,8 hPa 0,0 l/m 5,6 km/h (1 Bft) O-NO 72 1 min 0,000 mm 2,1 UV-I 398 W/m 16,5 C 18,2 C 9,7 km/h (2 Bft) 100,00 %
29.05.2016 10:05 18,2 C 89 % 1004,8 hPa 0,0 l/m 8,1 km/h (2 Bft) O-NO 78 0 min 0,000 mm 2,1 UV-I 375 W/m 16,4 C 17,4 C 11,3 km/h (2 Bft) 95,65 %
29.05.2016 10:06 18,2 C 89 % 1004,9 hPa 0,0 l/m 9,3 km/h (2 Bft) O-SO 116 0 min 0,000 mm 2,0 UV-I 358 W/m 16,4 C 16,9 C 12,9 km/h (3 Bft) 100,00 %
29.05.2016 10:07 18,2 C 88 % 1004,8 hPa 0,0 l/m 6,8 km/h (2 Bft) SO 134 0 min 0,000 mm 2,0 UV-I 345 W/m 16,2 C 18,0 C 11,3 km/h (2 Bft) 96,15 %
29.05.2016 10:08 18,1 C 88 % 1004,8 hPa 0,0 l/m 4,1 km/h (1 Bft) SO 134 0 min 0,000 mm 2,0 UV-I 345 W/m 16,1 C 18,1 C 6,4 km/h (2 Bft) 100,00 %
29.05.2016 10:09 18,1 C 89 % 1004,8 hPa 0,0 l/m 7,0 km/h (2 Bft) O-NO 57 0 min 0,000 mm 2,0 UV-I 341 W/m 16,3 C 17,8 C 9,7 km/h (2 Bft) 100,00 %
29.05.2016 10:10 18,2 C 89 % 1004,8 hPa 0,0 l/m 8,1 km/h (2 Bft) NO 46 0 min 0,000 mm 1,9 UV-I 332 W/m 16,4 C 17,4 C 11,3 km/h (2 Bft) 100,00 %
29.05.2016 10:11 18,2 C 89 % 1004,8 hPa 0,0 l/m 7,8 km/h (2 Bft) N-NO 32 0 min 0,000 mm 2,0 UV-I 336 W/m 16,4 C 17,6 C 11,3 km/h (2 Bft) 100,00 %
29.05.2016 10:12 18,2 C 89 % 1004,7 hPa 0,0 l/m 8,1 km/h (2 Bft) NO 40 0 min 0,000 mm 2,0 UV-I 347 W/m 16,4 C 17,4 C 11,3 km/h (2 Bft) 100,00 %
29.05.2016 10:13 18,3 C 88 % 1004,7 hPa 0,0 l/m 5,8 km/h (2 Bft) NO 43 0 min 0,000 mm 2,0 UV-I 346 W/m 16,3 C 18,3 C 8,0 km/h (2 Bft) 100,00 %
29.05.2016 10:14 18,2 C 88 % 1004,7 hPa 0,0 l/m 4,2 km/h (1 Bft) NO 53 0 min 0,000 mm 2,0 UV-I 351 W/m 16,2 C 18,2 C 6,4 km/h (2 Bft) 100,00 %
29.05.2016 10:15 18,2 C 88 % 1004,6 hPa 0,0 l/m 3,1 km/h (1 Bft) N-NO 23 0 min 0,000 mm 2,1 UV-I 357 W/m 16,2 C 18,2 C 6,4 km/h (2 Bft) 100,00 %
29.05.2016 10:16 18,3 C 89 % 1004,7 hPa 0,0 l/m 3,8 km/h (1 Bft) NO 35 0 min 0,000 mm 2,2 UV-I 354 W/m 16,5 C 18,3 C 8,0 km/h (2 Bft) 95,83 %
29.05.2016 10:17 18,3 C 89 % 1004,7 hPa 0,0 l/m 6,7 km/h (2 Bft) NO 43 0 min 0,000 mm 2,2 UV-I 337 W/m 16,5 C 18,2 C 8,0 km/h (2 Bft) 96,15 %
29.05.2016 10:18 18,5 C 90 % 1004,7 hPa 0,0 l/m 7,6 km/h (2 Bft) NO 47 0 min 0,000 mm 2,2 UV-I 324 W/m 16,8 C 18,0 C 9,7 km/h (2 Bft) 100,00 %
29.05.2016 10:19 18,5 C 88 % 1004,7 hPa 0,0 l/m 4,7 km/h (1 Bft) O-NO 60 0 min 0,000 mm 2,2 UV-I 338 W/m 16,5 C 18,5 C 8,0 km/h (2 Bft) 100,00 %
29.05.2016 10:20 18,5 C 87 % 1004,7 hPa 0,0 l/m 4,8 km/h (1 Bft) NO 56 0 min 0,000 mm 2,4 UV-I 385 W/m 16,3 C 18,5 C 8,0 km/h (2 Bft) 100,00 %
29.05.2016 10:21 18,5 C 88 % 1004,7 hPa 0,0 l/m 8,1 km/h (2 Bft) O-NO 63 1 min 0,000 mm 2,7 UV-I 457 W/m 16,5 C 17,7 C 9,7 km/h (2 Bft) 100,00 %
29.05.2016 10:22 18,6 C 88 % 1004,7 hPa 0,0 l/m 6,4 km/h (2 Bft) O-NO 78 1 min 0,000 mm 3,2 UV-I 494 W/m 16,6 C 18,6 C 9,7 km/h (2 Bft) 100,00 %
29.05.2016 10:23 18,7 C 89 % 1004,6 hPa 0,0 l/m 9,6 km/h (2 Bft) O 92 1 min 0,000 mm 3,1 UV-I 579 W/m 16,8 C 17,4 C 16,1 km/h (3 Bft) 100,00 %
29.05.2016 10:24 18,8 C 88 % 1004,6 hPa 0,0 l/m 3,8 km/h (1 Bft) O 101 1 min 0,000 mm 3,0 UV-I 573 W/m 16,8 C 18,8 C 6,4 km/h (2 Bft) 100,00 %
29.05.2016 10:25 18,7 C 86 % 1004,6 hPa 0,0 l/m 4,5 km/h (1 Bft) O-NO 66 1 min 0,000 mm 3,0 UV-I 455 W/m 16,3 C 18,7 C 6,4 km/h (2 Bft) 100,00 %
29.05.2016 10:26 18,7 C 86 % 1004,6 hPa 0,0 l/m 4,7 km/h (1 Bft) NO 55 0 min 0,000 mm 2,6 UV-I 390 W/m 16,3 C 18,7 C 8,0 km/h (2 Bft) 100,00 %
29.05.2016 10:27 18,7 C 87 % 1004,6 hPa 0,0 l/m 7,2 km/h (2 Bft) N-NO 28 0 min 0,000 mm 2,6 UV-I 397 W/m 16,5 C 18,3 C 9,7 km/h (2 Bft) 100,00 %
29.05.2016 10:28 18,8 C 87 % 1004,6 hPa 0,0 l/m 8,4 km/h (2 Bft) NO 48 1 min 0,000 mm 2,6 UV-I 422 W/m 16,6 C 17,9 C 12,9 km/h (3 Bft) 100,00 %
29.05.2016 10:29 18,8 C 87 % 1004,6 hPa 0,0 l/m 10,1 km/h (2 Bft) NO 38 1 min 0,000 mm 2,5 UV-I 431 W/m 16,6 C 17,3 C 12,9 km/h (3 Bft) 95,83 %
29.05.2016 10:30 18,8 C 89 % 1004,5 hPa 0,0 l/m 6,0 km/h (2 Bft) NO 38 0 min 0,000 mm 2,4 UV-I 388 W/m 16,9 C 18,8 C 9,7 km/h (2 Bft) 100,00 %
29.05.2016 10:31 18,8 C 87 % 1004,5 hPa 0,0 l/m 5,8 km/h (2 Bft) NO 51 0 min 0,000 mm 2,2 UV-I 356 W/m 16,6 C 18,8 C 9,7 km/h (2 Bft) 100,00 %
29.05.2016 10:32 18,8 C 87 % 1004,5 hPa 0,0 l/m 5,1 km/h (1 Bft) NO 35 0 min 0,000 mm 2,1 UV-I 334 W/m 16,6 C 18,8 C 8,0 km/h (2 Bft) 100,00 %
29.05.2016 10:33 18,8 C 87 % 1004,5 hPa 0,0 l/m 7,0 km/h (2 Bft) N-NO 32 0 min 0,000 mm 2,0 UV-I 319 W/m 16,6 C 18,5 C 8,0 km/h (2 Bft) 100,00 %
29.05.2016 10:34 18,8 C 87 % 1004,5 hPa 0,0 l/m 5,1 km/h (1 Bft) NO 34 0 min 0,000 mm 1,8 UV-I 308 W/m 16,6 C 18,8 C 8,0 km/h (2 Bft) 100,00 %
29.05.2016 10:35 18,8 C 88 % 1004,5 hPa 0,0 l/m 5,0 km/h (1 Bft) NO 40 0 min 0,000 mm 1,7 UV-I 290 W/m 16,8 C 18,8 C 8,0 km/h (2 Bft) 100,00 %
29.05.2016 10:36 18,8 C 88 % 1004,5 hPa 0,0 l/m 6,8 km/h (2 Bft) NO 34 0 min 0,000 mm 1,6 UV-I 270 W/m 16,8 C 18,6 C 8,0 km/h (2 Bft) 95,65 %
29.05.2016 10:37 18,8 C 88 % 1004,5 hPa 0,0 l/m 4,7 km/h (1 Bft) NO 53 0 min 0,000 mm 1,5 UV-I 255 W/m 16,8 C 18,8 C 8,0 km/h (2 Bft) 100,00 %
29.05.2016 10:38 18,7 C 88 % 1004,6 hPa 0,0 l/m 5,0 km/h (1 Bft) NO 42 0 min 0,000 mm 1,5 UV-I 252 W/m 16,7 C 18,7 C 6,4 km/h (2 Bft) 91,30 %
29.05.2016 10:39 18,7 C 88 % 1004,6 hPa 0,0 l/m 4,0 km/h (1 Bft) N-NO 15 0 min 0,000 mm 1,5 UV-I 260 W/m 16,7 C 18,7 C 6,4 km/h (2 Bft) 95,83 %
29.05.2016 10:40 18,7 C 88 % 1004,5 hPa 0,0 l/m 4,5 km/h (1 Bft) N-NO 17 0 min 0,000 mm 1,7 UV-I 272 W/m 16,7 C 18,7 C 11,3 km/h (2 Bft) 95,65 %
29.05.2016 10:41 18,7 C 89 % 1004,5 hPa 0,0 l/m 6,3 km/h (2 Bft) N-NO 13 0 min 0,000 mm 1,7 UV-I 282 W/m 16,8 C 18,7 C 8,0 km/h (2 Bft) 100,00 %
29.05.2016 10:42 18,7 C 88 % 1004,5 hPa 0,0 l/m 4,8 km/h (1 Bft) NO 42 0 min 0,000 mm 1,8 UV-I 293 W/m 16,7 C 18,7 C 6,4 km/h (2 Bft) 100,00 %
29.05.2016 10:43 18,7 C 89 % 1004,4 hPa 0,0 l/m 3,6 km/h (1 Bft) NO 36 0 min 0,000 mm 1,9 UV-I 310 W/m 16,8 C 18,7 C 6,4 km/h (2 Bft) 95,65 %
29.05.2016 10:44 18,7 C 90 % 1004,4 hPa 0,0 l/m 6,2 km/h (2 Bft) NO 46 0 min 0,000 mm 2,1 UV-I 330 W/m 17,0 C 18,7 C 8,0 km/h (2 Bft) 100,00 %
29.05.2016 10:45 18,8 C 89 % 1004,4 hPa 0,0 l/m 4,7 km/h (1 Bft) NO 40 0 min 0,000 mm 2,2 UV-I 354 W/m 16,9 C 18,8 C 6,4 km/h (2 Bft) 95,65 %
29.05.2016 10:46 18,9 C 90 % 1004,4 hPa 0,0 l/m 3,3 km/h (1 Bft) N-NO 19 0 min 0,000 mm 2,5 UV-I 396 W/m 17,2 C 18,9 C 6,4 km/h (2 Bft) 100,00 %
29.05.2016 10:47 19,0 C 90 % 1004,4 hPa 0,0 l/m 3,0 km/h (1 Bft) N 5 1 min 0,000 mm 2,8 UV-I 464 W/m 17,3 C 19,0 C 8,0 km/h (2 Bft) 91,30 %
29.05.2016 10:48 19,1 C 89 % 1004,3 hPa 0,0 l/m 5,5 km/h (1 Bft) N 5 1 min 0,000 mm 3,2 UV-I 516 W/m 17,2 C 19,1 C 12,9 km/h (3 Bft) 100,00 %
29.05.2016 10:49 19,1 C 90 % 1004,3 hPa 0,0 l/m 6,5 km/h (2 Bft) N 11 0 min 0,000 mm 2,9 UV-I 430 W/m 17,4 C 19,1 C 11,3 km/h (2 Bft) 96,15 %
29.05.2016 10:50 19,1 C 87 % 1004,3 hPa 0,0 l/m 4,1 km/h (1 Bft) NO 38 0 min 0,000 mm 2,6 UV-I 380 W/m 16,9 C 19,1 C 8,0 km/h (2 Bft) 100,00 %
29.05.2016 10:51 19,1 C 85 % 1004,3 hPa 0,0 l/m 2,9 km/h (1 Bft) NO 46 0 min 0,000 mm 2,5 UV-I 366 W/m 16,5 C 19,1 C 6,4 km/h (2 Bft) 95,65 %
29.05.2016 10:52 19,1 C 86 % 1004,3 hPa 0,0 l/m 3,1 km/h (1 Bft) NO 46 0 min 0,000 mm 2,3 UV-I 366 W/m 16,7 C 19,1 C 4,8 km/h (1 Bft) 100,00 %
29.05.2016 10:53 19,1 C 86 % 1004,4 hPa 0,0 l/m 2,7 km/h (1 Bft) NO 40 0 min 0,000 mm 2,3 UV-I 363 W/m 16,7 C 19,1 C 6,4 km/h (2 Bft) 100,00 %
29.05.2016 10:54 19,1 C 87 % 1004,4 hPa 0,0 l/m 1,8 km/h (1 Bft) NO 40 0 min 0,000 mm 2,2 UV-I 350 W/m 16,9 C 19,1 C 6,4 km/h (2 Bft) 100,00 %
29.05.2016 10:55 19,2 C 89 % 1004,4 hPa 0,0 l/m 3,5 km/h (1 Bft) N 11 0 min 0,000 mm 2,2 UV-I 334 W/m 17,3 C 19,2 C 4,8 km/h (1 Bft) 95,65 %
29.05.2016 10:56 19,2 C 88 % 1004,4 hPa 0,0 l/m 2,2 km/h (1 Bft) N 10 0 min 0,000 mm 2,1 UV-I 319 W/m 17,2 C 19,2 C 4,8 km/h (1 Bft) 100,00 %
29.05.2016 10:57 19,3 C 88 % 1004,3 hPa 0,0 l/m 5,8 km/h (2 Bft) N-NO 28 0 min 0,000 mm 2,0 UV-I 298 W/m 17,3 C 19,3 C 8,0 km/h (2 Bft) 100,00 %
29.05.2016 10:58 19,2 C 86 % 1004,4 hPa 0,0 l/m 5,9 km/h (2 Bft) NO 47 0 min 0,000 mm 1,8 UV-I 270 W/m 16,8 C 19,2 C 9,7 km/h (2 Bft) 100,00 %
29.05.2016 10:59 19,2 C 86 % 1004,4 hPa 0,0 l/m 7,6 km/h (2 Bft) NO 42 0 min 0,000 mm 1,7 UV-I 257 W/m 16,8 C 18,7 C 9,7 km/h (2 Bft) 100,00 %
29.05.2016 11:00 19,1 C 86 % 1004,4 hPa 0,0 l/m 6,4 km/h (2 Bft) O-NO 68 0 min 0,204 mm 1,6 UV-I 250 W/m 16,7 C 19,1 C 9,7 km/h (2 Bft) 100,00 %
29.05.2016 11:02 19,0 C 87 % 1004,4 hPa 0,0 l/m 6,4 km/h (2 Bft) O-NO 64 0 min 0,000 mm 1,7 UV-I 256 W/m 16,8 C 19,0 C 11,3 km/h (2 Bft) 100,00 %
29.05.2016 11:03 19,0 C 86 % 1004,4 hPa 0,0 l/m 2,8 km/h (1 Bft) O-NO 64 0 min 0,000 mm 1,8 UV-I 277 W/m 16,6 C 19,0 C 4,8 km/h (1 Bft) 95,83 %
29.05.2016 11:04 19,0 C 87 % 1004,4 hPa 0,0 l/m 0,8 km/h (0 Bft) NO 55 0 min 0,000 mm 2,0 UV-I 290 W/m 16,8 C 19,0 C 1,6 km/h (1 Bft) 92,31 %
29.05.2016 11:05 18,9 C 86 % 1004,4 hPa 0,0 l/m 2,5 km/h (1 Bft) N-NO 19 0 min 0,000 mm 2,0 UV-I 299 W/m 16,5 C 18,9 C 4,8 km/h (1 Bft) 100,00 %
29.05.2016 11:06 18,9 C 88 % 1004,4 hPa 0,0 l/m 2,1 km/h (1 Bft) N-NO 16 0 min 0,000 mm 2,0 UV-I 297 W/m 16,9 C 18,9 C 4,8 km/h (1 Bft) 100,00 %
29.05.2016 11:07 18,9 C 87 % 1004,4 hPa 0,0 l/m 6,0 km/h (2 Bft) N-NO 32 0 min 0,000 mm 1,9 UV-I 288 W/m 16,7 C 18,9 C 9,7 km/h (2 Bft) 100,00 %
29.05.2016 11:08 19,0 C 86 % 1004,4 hPa 0,0 l/m 7,3 km/h (2 Bft) NO 50 0 min 0,000 mm 1,9 UV-I 282 W/m 16,6 C 18,6 C 9,7 km/h (2 Bft) 100,00 %
29.05.2016 11:09 19,1 C 88 % 1004,4 hPa 0,0 l/m 6,0 km/h (2 Bft) NO 44 0 min 0,000 mm 1,9 UV-I 286 W/m 17,1 C 19,1 C 8,0 km/h (2 Bft) 100,00 %
29.05.2016 11:10 19,1 C 88 % 1004,4 hPa 0,0 l/m 6,6 km/h (2 Bft) NO 39 0 min 0,000 mm 2,0 UV-I 299 W/m 17,1 C 19,0 C 9,7 km/h (2 Bft) 100,00 %
29.05.2016 11:11 19,2 C 87 % 1004,4 hPa 0,0 l/m 7,5 km/h (2 Bft) NO 55 0 min 0,000 mm 2,2 UV-I 322 W/m 17,0 C 18,7 C 9,7 km/h (2 Bft) 100,00 %
29.05.2016 11:12 19,2 C 85 % 1004,4 hPa 0,0 l/m 5,6 km/h (1 Bft) NO 38 0 min 0,000 mm 2,3 UV-I 342 W/m 16,6 C 19,2 C 6,4 km/h (2 Bft) 95,65 %
29.05.2016 11:13 19,2 C 86 % 1004,4 hPa 0,0 l/m 6,5 km/h (2 Bft) NO 40 0 min 0,000 mm 2,3 UV-I 352 W/m 16,8 C 19,2 C 9,7 km/h (2 Bft) 100,00 %
29.05.2016 11:14 19,2 C 85 % 1004,4 hPa 0,0 l/m 7,5 km/h (2 Bft) O-NO 57 0 min 0,000 mm 2,4 UV-I 363 W/m 16,6 C 18,7 C 9,7 km/h (2 Bft) 100,00 %
29.05.2016 11:15 19,3 C 85 % 1004,4 hPa 0,0 l/m 7,1 km/h (2 Bft) NO 41 0 min 0,000 mm 2,5 UV-I 374 W/m 16,7 C 19,0 C 9,7 km/h (2 Bft) 100,00 %
29.05.2016 11:16 19,3 C 86 % 1004,4 hPa 0,0 l/m 7,8 km/h (2 Bft) N-NO 32 0 min 0,000 mm 2,6 UV-I 374 W/m 16,9 C 18,7 C 9,7 km/h (2 Bft) 100,00 %
29.05.2016 11:17 19,3 C 84 % 1004,4 hPa 0,0 l/m 8,7 km/h (2 Bft) O-NO 67 0 min 0,000 mm 2,5 UV-I 366 W/m 16,5 C 18,3 C 12,9 km/h (3 Bft) 100,00 %
29.05.2016 11:18 19,3 C 85 % 1004,4 hPa 0,0 l/m 6,0 km/h (2 Bft) O-NO 59 0 min 0,000 mm 2,5 UV-I 357 W/m 16,7 C 19,3 C 12,9 km/h (3 Bft) 100,00 %
29.05.2016 11:19 19,3 C 84 % 1004,4 hPa 0,0 l/m 8,0 km/h (2 Bft) O 86 0 min 0,000 mm 2,4 UV-I 350 W/m 16,5 C 18,6 C 12,9 km/h (3 Bft) 100,00 %
29.05.2016 11:20 19,3 C 85 % 1004,4 hPa 0,0 l/m 6,2 km/h (2 Bft) NO 52 0 min 0,000 mm 2,4 UV-I 351 W/m 16,7 C 19,3 C 8,0 km/h (2 Bft) 100,00 %
29.05.2016 11:21 19,3 C 84 % 1004,4 hPa 0,0 l/m 4,4 km/h (1 Bft) O-NO 76 0 min 0,000 mm 2,5 UV-I 361 W/m 16,5 C 19,3 C 6,4 km/h (2 Bft) 100,00 %
29.05.2016 11:22 19,3 C 86 % 1004,4 hPa 0,0 l/m 4,3 km/h (1 Bft) O-NO 65 0 min 0,000 mm 2,7 UV-I 376 W/m 16,9 C 19,3 C 6,4 km/h (2 Bft) 100,00 %
29.05.2016 11:23 19,3 C 85 % 1004,3 hPa 0,0 l/m 4,3 km/h (1 Bft) NO 48 0 min 0,000 mm 2,8 UV-I 399 W/m 16,7 C 19,3 C 8,0 km/h (2 Bft) 100,00 %
29.05.2016 11:24 19,3 C 86 % 1004,3 hPa 0,0 l/m 5,9 km/h (2 Bft) NO 51 0 min 0,000 mm 3,0 UV-I 413 W/m 16,9 C 19,3 C 8,0 km/h (2 Bft) 100,00 %
29.05.2016 11:25 19,3 C 86 % 1004,4 hPa 0,0 l/m 2,7 km/h (1 Bft) NO 51 0 min 0,000 mm 3,0 UV-I 405 W/m 16,9 C 19,3 C 4,8 km/h (1 Bft) 100,00 %
29.05.2016 11:26 19,3 C 85 % 1004,3 hPa 0,0 l/m 2,3 km/h (1 Bft) NO 51 0 min 0,000 mm 3,0 UV-I 384 W/m 16,7 C 19,3 C 3,2 km/h (1 Bft) 100,00 %
29.05.2016 11:27 19,4 C 87 % 1004,3 hPa 0,0 l/m 3,4 km/h (1 Bft) O 90 0 min 0,000 mm 3,0 UV-I 381 W/m 17,2 C 19,4 C 4,8 km/h (1 Bft) 100,00 %
29.05.2016 11:28 19,4 C 85 % 1004,3 hPa 0,0 l/m 4,2 km/h (1 Bft) SO 131 0 min 0,000 mm 3,2 UV-I 435 W/m 16,8 C 19,4 C 6,4 km/h (2 Bft) 100,00 %
29.05.2016 11:29 19,4 C 85 % 1004,3 hPa 0,0 l/m 4,6 km/h (1 Bft) SO 132 0 min 0,000 mm 3,2 UV-I 436 W/m 16,8 C 19,4 C 6,4 km/h (2 Bft) 100,00 %
29.05.2016 11:30 19,4 C 85 % 1004,3 hPa 0,0 l/m 3,2 km/h (1 Bft) O-SO 103 0 min 0,000 mm 3,2 UV-I 441 W/m 16,8 C 19,4 C 6,4 km/h (2 Bft) 100,00 %
29.05.2016 11:31 19,4 C 86 % 1004,3 hPa 0,0 l/m 6,6 km/h (2 Bft) NO 40 0 min 0,000 mm 2,9 UV-I 400 W/m 17,0 C 19,3 C 9,7 km/h (2 Bft) 95,65 %
29.05.2016 11:32 19,6 C 86 % 1004,2 hPa 0,0 l/m 6,5 km/h (2 Bft) NO 37 0 min 0,000 mm 2,6 UV-I 345 W/m 17,2 C 19,6 C 9,7 km/h (2 Bft) 100,00 %
29.05.2016 11:33 19,6 C 85 % 1004,2 hPa 0,0 l/m 7,0 km/h (2 Bft) N-NO 30 0 min 0,000 mm 2,4 UV-I 305 W/m 17,0 C 19,3 C 8,0 km/h (2 Bft) 96,15 %
29.05.2016 11:34 19,7 C 85 % 1004,3 hPa 0,0 l/m 7,7 km/h (2 Bft) NO 53 0 min 0,000 mm 2,5 UV-I 322 W/m 17,1 C 19,2 C 9,7 km/h (2 Bft) 100,00 %
29.05.2016 11:35 19,7 C 85 % 1004,2 hPa 0,0 l/m 7,2 km/h (2 Bft) NO 52 0 min 0,000 mm 2,7 UV-I 323 W/m 17,1 C 19,4 C 9,7 km/h (2 Bft) 96,15 %
29.05.2016 11:36 19,6 C 84 % 1004,2 hPa 0,0 l/m 7,7 km/h (2 Bft) O-NO 59 0 min 0,000 mm 3,2 UV-I 389 W/m 16,8 C 19,1 C 11,3 km/h (2 Bft) 95,83 %
29.05.2016 11:37 19,7 C 84 % 1004,2 hPa 0,0 l/m 9,7 km/h (2 Bft) O-NO 66 1 min 0,000 mm 3,7 UV-I 536 W/m 16,9 C 18,4 C 12,9 km/h (3 Bft) 100,00 %
29.05.2016 11:38 19,7 C 83 % 1004,2 hPa 0,0 l/m 7,0 km/h (2 Bft) O-NO 66 1 min 0,000 mm 3,7 UV-I 544 W/m 16,7 C 19,5 C 8,0 km/h (2 Bft) 92,31 %
29.05.2016 11:39 19,8 C 83 % 1004,2 hPa 0,0 l/m 8,6 km/h (2 Bft) O 82 1 min 0,000 mm 5,4 UV-I 534 W/m 16,8 C 18,9 C 12,9 km/h (3 Bft) 95,83 %
29.05.2016 11:40 19,8 C 84 % 1004,2 hPa 0,0 l/m 9,1 km/h (2 Bft) O-NO 65 1 min 0,000 mm 5,4 UV-I 1222 W/m 17,0 C 18,7 C 12,9 km/h (3 Bft) 91,30 %
29.05.2016 11:41 19,9 C 82 % 1004,2 hPa 0,0 l/m 5,1 km/h (1 Bft) O-NO 58 1 min 0,000 mm 5,9 UV-I 1143 W/m 16,7 C 19,9 C 8,0 km/h (2 Bft) 100,00 %
29.05.2016 11:42 20,0 C 84 % 1004,2 hPa 0,0 l/m 4,0 km/h (1 Bft) O-NO 58 1 min 0,000 mm 4,6 UV-I 1143 W/m 17,2 C 20,0 C 4,8 km/h (1 Bft) 95,65 %
29.05.2016 11:43 20,1 C 84 % 1004,2 hPa 0,0 l/m 4,4 km/h (1 Bft) N-NO 32 1 min 0,000 mm 4,1 UV-I 1143 W/m 17,3 C 20,1 C 8,0 km/h (2 Bft) 100,00 %
29.05.2016 11:44 20,2 C 83 % 1004,3 hPa 0,0 l/m 3,9 km/h (1 Bft) N-NO 30 1 min 0,000 mm 4,2 UV-I 736 W/m 17,2 C 20,2 C 6,4 km/h (2 Bft) 95,65 %
29.05.2016 11:45 20,2 C 86 % 1004,3 hPa 0,0 l/m 2,1 km/h (1 Bft) NO 34 1 min 0,000 mm 5,5 UV-I 568 W/m 17,8 C 20,2 C 4,8 km/h (1 Bft) 95,83 %
29.05.2016 11:46 20,3 C 83 % 1004,3 hPa 0,0 l/m 2,6 km/h (1 Bft) O-SO 108 1 min 0,000 mm 5,5 UV-I 648 W/m 17,3 C 20,3 C 6,4 km/h (2 Bft) 100,00 %
29.05.2016 11:47 20,5 C 85 % 1004,3 hPa 0,0 l/m 5,8 km/h (2 Bft) O-SO 119 1 min 0,000 mm 5,4 UV-I 1009 W/m 17,9 C 20,5 C 9,7 km/h (2 Bft) 95,83 %
29.05.2016 11:48 20,6 C 82 % 1004,3 hPa 0,0 l/m 4,1 km/h (1 Bft) O-SO 103 1 min 0,000 mm 4,1 UV-I 764 W/m 17,4 C 20,6 C 4,8 km/h (1 Bft) 100,00 %
29.05.2016 11:49 20,6 C 81 % 1004,4 hPa 0,0 l/m 3,2 km/h (1 Bft) O-NO 75 0 min 0,000 mm 3,3 UV-I 446 W/m 17,2 C 20,6 C 6,4 km/h (2 Bft) 95,83 %
29.05.2016 11:50 20,6 C 81 % 1004,4 hPa 0,0 l/m 8,3 km/h (2 Bft) O-NO 57 0 min 0,000 mm 3,2 UV-I 446 W/m 17,2 C 19,9 C 12,9 km/h (3 Bft) 91,30 %
29.05.2016 11:51 20,5 C 79 % 1004,4 hPa 0,0 l/m 5,9 km/h (2 Bft) O 98 0 min 0,000 mm 3,2 UV-I 414 W/m 16,7 C 20,5 C 8,0 km/h (2 Bft) 95,83 %
29.05.2016 11:52 20,5 C 82 % 1004,4 hPa 0,0 l/m 8,7 km/h (2 Bft) O-SO 114 0 min 0,000 mm 3,1 UV-I 403 W/m 17,3 C 19,6 C 12,9 km/h (3 Bft) 96,15 %
29.05.2016 11:53 20,4 C 82 % 1004,4 hPa 0,0 l/m 11,4 km/h (2 Bft) SO 135 0 min 0,000 mm 3,6 UV-I 403 W/m 17,2 C 18,7 C 14,5 km/h (3 Bft) 100,00 %
29.05.2016 11:54 20,3 C 81 % 1004,4 hPa 0,0 l/m 11,8 km/h (2 Bft) O 101 0 min 0,000 mm 4,1 UV-I 462 W/m 16,9 C 18,4 C 14,5 km/h (3 Bft) 100,00 %
29.05.2016 11:55 20,3 C 81 % 1004,3 hPa 0,0 l/m 9,8 km/h (2 Bft) SO 132 1 min 0,000 mm 3,8 UV-I 492 W/m 16,9 C 19,0 C 12,9 km/h (3 Bft) 92,31 %
29.05.2016 11:56 20,2 C 81 % 1004,4 hPa 0,0 l/m 8,3 km/h (2 Bft) O-SO 107 0 min 0,000 mm 3,3 UV-I 381 W/m 16,8 C 19,4 C 11,3 km/h (2 Bft) 96,15 %
29.05.2016 11:57 20,2 C 81 % 1004,4 hPa 0,0 l/m 5,8 km/h (2 Bft) O 80 0 min 0,000 mm 2,9 UV-I 338 W/m 16,8 C 20,2 C 9,7 km/h (2 Bft) 100,00 %
29.05.2016 11:58 20,2 C 81 % 1004,3 hPa 0,0 l/m 2,7 km/h (1 Bft) O-SO 114 0 min 0,000 mm 2,8 UV-I 338 W/m 16,8 C 20,2 C 4,8 km/h (1 Bft) 92,31 %
29.05.2016 11:59 20,1 C 82 % 1004,3 hPa 0,0 l/m 4,0 km/h (1 Bft) O-NO 61 0 min 0,000 mm 3,2 UV-I 355 W/m 16,9 C 20,1 C 6,4 km/h (2 Bft) 95,83 %
29.05.2016 12:00 20,0 C 82 % 1004,3 hPa 0,0 l/m 2,0 km/h (1 Bft) O-NO 61 1 min 0,279 mm 4,1 UV-I 473 W/m 16,8 C 20,0 C 4,8 km/h (1 Bft) 91,30 %
29.05.2016 12:02 20,2 C 82 % 1004,3 hPa 0,0 l/m 3,7 km/h (1 Bft) O-NO 72 2 min 0,000 mm 5,0 UV-I 591 W/m 17,0 C 20,2 C 6,4 km/h (2 Bft) 95,83 %
29.05.2016 12:03 20,3 C 81 % 1004,3 hPa 0,0 l/m 7,0 km/h (2 Bft) O-NO 68 1 min 0,000 mm 4,2 UV-I 591 W/m 16,9 C 20,1 C 11,3 km/h (2 Bft) 95,65 %
29.05.2016 12:04 20,3 C 81 % 1004,3 hPa 0,0 l/m 3,6 km/h (1 Bft) NO 49 1 min 0,000 mm 3,4 UV-I 557 W/m 16,9 C 20,3 C 6,4 km/h (2 Bft) 100,00 %
29.05.2016 12:05 20,4 C 82 % 1004,3 hPa 0,0 l/m 6,2 km/h (2 Bft) O-NO 76 0 min 0,000 mm 3,6 UV-I 469 W/m 17,2 C 20,4 C 9,7 km/h (2 Bft) 100,00 %
29.05.2016 12:06 20,5 C 82 % 1004,3 hPa 0,0 l/m 5,4 km/h (1 Bft) SO 138 1 min 0,000 mm 3,7 UV-I 478 W/m 17,3 C 20,5 C 9,7 km/h (2 Bft) 100,00 %
29.05.2016 12:07 20,6 C 81 % 1004,3 hPa 0,0 l/m 6,0 km/h (2 Bft) SO 130 0 min 0,000 mm 3,8 UV-I 473 W/m 17,2 C 20,6 C 8,0 km/h (2 Bft) 100,00 %
29.05.2016 12:08 20,6 C 84 % 1004,3 hPa 0,0 l/m 2,9 km/h (1 Bft) SO 137 0 min 0,000 mm 4,8 UV-I 469 W/m 17,8 C 20,6 C 6,4 km/h (2 Bft) 100,00 %
29.05.2016 12:09 20,7 C 81 % 1004,3 hPa 0,0 l/m 4,1 km/h (1 Bft) NO 48 1 min 0,000 mm 5,9 UV-I 747 W/m 17,3 C 20,7 C 6,4 km/h (2 Bft) 95,65 %
29.05.2016 12:10 20,8 C 82 % 1004,4 hPa 0,0 l/m 5,0 km/h (1 Bft) NO 34 1 min 0,000 mm 6,4 UV-I 842 W/m 17,6 C 20,8 C 6,4 km/h (2 Bft) 100,00 %
29.05.2016 12:11 21,0 C 84 % 1004,3 hPa 0,0 l/m 4,3 km/h (1 Bft) NO 55 1 min 0,000 mm 6,2 UV-I 1099 W/m 18,2 C 21,0 C 6,4 km/h (2 Bft) 100,00 %
29.05.2016 12:12 21,1 C 80 % 1004,3 hPa 0,0 l/m 2,7 km/h (1 Bft) NO 42 1 min 0,000 mm 5,7 UV-I 1075 W/m 17,5 C 21,1 C 6,4 km/h (2 Bft) 95,83 %
29.05.2016 12:13 21,1 C 82 % 1004,3 hPa 0,0 l/m 0,9 km/h (0 Bft) N-NO 26 1 min 0,000 mm 6,2 UV-I 1044 W/m 17,9 C 21,1 C 3,2 km/h (1 Bft) 100,00 %
29.05.2016 12:14 21,1 C 80 % 1004,2 hPa 0,0 l/m 3,1 km/h (1 Bft) N-NW 348 1 min 0,000 mm 6,0 UV-I 1044 W/m 17,5 C 21,1 C 4,8 km/h (1 Bft) 100,00 %
29.05.2016 12:15 21,1 C 79 % 1004,2 hPa 0,0 l/m 2,8 km/h (1 Bft) NW 321 1 min 0,000 mm 5,7 UV-I 1023 W/m 17,3 C 21,1 C 4,8 km/h (1 Bft) 100,00 %
29.05.2016 12:16 21,2 C 80 % 1004,2 hPa 0,0 l/m 1,3 km/h (1 Bft) NW 319 1 min 0,000 mm 5,8 UV-I 802 W/m 17,6 C 21,2 C 3,2 km/h (1 Bft) 100,00 %
29.05.2016 12:17 21,3 C 83 % 1004,2 hPa 0,0 l/m 1,1 km/h (1 Bft) NW 319 1 min 0,000 mm 6,5 UV-I 890 W/m 18,3 C 21,3 C 3,2 km/h (1 Bft) 95,65 %
29.05.2016 12:18 21,4 C 80 % 1004,2 hPa 0,0 l/m 1,1 km/h (1 Bft) NW 319 1 min 0,000 mm 6,6 UV-I 1014 W/m 17,8 C 21,4 C 3,2 km/h (1 Bft) 100,00 %
29.05.2016 12:19 21,3 C 79 % 1004,1 hPa 0,0 l/m 0,6 km/h (0 Bft) NW 323 1 min 0,000 mm 6,0 UV-I 1014 W/m 17,5 C 21,3 C 1,6 km/h (1 Bft) 95,65 %
29.05.2016 12:20 21,3 C 80 % 1004,1 hPa 0,0 l/m 1,2 km/h (1 Bft) O 96 1 min 0,000 mm 6,2 UV-I 783 W/m 17,7 C 21,3 C 3,2 km/h (1 Bft) 100,00 %
29.05.2016 12:21 21,3 C 77 % 1004,1 hPa 0,0 l/m 3,0 km/h (1 Bft) SO 130 1 min 0,000 mm 4,8 UV-I 828 W/m 17,1 C 21,3 C 4,8 km/h (1 Bft) 95,83 %
29.05.2016 12:22 21,3 C 77 % 1004,1 hPa 0,0 l/m 1,3 km/h (1 Bft) SO 130 1 min 0,000 mm 6,0 UV-I 901 W/m 17,1 C 21,3 C 3,2 km/h (1 Bft) 100,00 %
29.05.2016 12:23 21,3 C 79 % 1004,1 hPa 0,0 l/m 4,1 km/h (1 Bft) SO 132 1 min 0,000 mm 6,3 UV-I 882 W/m 17,5 C 21,3 C 9,7 km/h (2 Bft) 100,00 %
29.05.2016 12:24 21,6 C 82 % 1004,0 hPa 0,0 l/m 5,3 km/h (1 Bft) N 5 1 min 0,000 mm 6,5 UV-I 932 W/m 18,4 C 21,6 C 6,4 km/h (2 Bft) 96,15 %
29.05.2016 12:25 21,7 C 82 % 1004,0 hPa 0,0 l/m 7,4 km/h (2 Bft) N-NO 22 1 min 0,000 mm 6,5 UV-I 964 W/m 18,5 C 21,3 C 11,3 km/h (2 Bft) 100,00 %
29.05.2016 12:26 21,9 C 79 % 1004,0 hPa 0,0 l/m 5,3 km/h (1 Bft) NO 51 1 min 0,000 mm 6,5 UV-I 963 W/m 18,1 C 21,9 C 8,0 km/h (2 Bft) 100,00 %
29.05.2016 12:27 21,9 C 78 % 1004,0 hPa 0,0 l/m 7,0 km/h (2 Bft) O-NO 78 1 min 0,000 mm 6,5 UV-I 958 W/m 17,9 C 21,7 C 11,3 km/h (2 Bft) 100,00 %
29.05.2016 12:28 21,8 C 76 % 1004,0 hPa 0,0 l/m 6,0 km/h (2 Bft) NO 48 1 min 0,000 mm 6,4 UV-I 944 W/m 17,4 C 21,8 C 8,0 km/h (2 Bft) 100,00 %
29.05.2016 12:29 21,7 C 77 % 1004,0 hPa 0,0 l/m 4,4 km/h (1 Bft) NO 55 1 min 0,000 mm 6,4 UV-I 938 W/m 17,5 C 21,7 C 6,4 km/h (2 Bft) 100,00 %
29.05.2016 12:30 21,7 C 77 % 1004,0 hPa 0,0 l/m 6,0 km/h (2 Bft) NO 42 1 min 0,000 mm 6,4 UV-I 942 W/m 17,5 C 21,7 C 14,5 km/h (3 Bft) 100,00 %
29.05.2016 12:31 21,7 C 81 % 1003,9 hPa 0,0 l/m 12,1 km/h (2 Bft) NO 45 1 min 0,000 mm 6,4 UV-I 935 W/m 18,3 C 20,0 C 16,1 km/h (3 Bft) 100,00 %
29.05.2016 12:32 21,8 C 80 % 1003,9 hPa 0,0 l/m 8,5 km/h (2 Bft) O-NO 57 1 min 0,000 mm 6,4 UV-I 932 W/m 18,2 C 21,1 C 11,3 km/h (2 Bft) 100,00 %
29.05.2016 12:33 21,9 C 81 % 1003,9 hPa 0,0 l/m 9,3 km/h (2 Bft) NO 35 1 min 0,000 mm 6,4 UV-I 924 W/m 18,5 C 20,9 C 14,5 km/h (3 Bft) 100,00 %
29.05.2016 12:34 22,0 C 79 % 1003,9 hPa 0,0 l/m 7,8 km/h (2 Bft) N-NO 13 1 min 0,000 mm 6,4 UV-I 929 W/m 18,2 C 21,5 C 12,9 km/h (3 Bft) 100,00 %
29.05.2016 12:35 22,0 C 77 % 1003,9 hPa 0,0 l/m 7,0 km/h (2 Bft) NO 40 1 min 0,000 mm 6,4 UV-I 927 W/m 17,8 C 21,8 C 11,3 km/h (2 Bft) 100,00 %
29.05.2016 12:36 22,0 C 81 % 1003,9 hPa 0,0 l/m 8,2 km/h (2 Bft) N-NO 18 1 min 0,000 mm 6,4 UV-I 925 W/m 18,6 C 21,4 C 9,7 km/h (2 Bft) 100,00 %
29.05.2016 12:37 22,2 C 80 % 1003,8 hPa 0,0 l/m 8,8 km/h (2 Bft) NO 49 1 min 0,000 mm 6,4 UV-I 919 W/m 18,6 C 21,4 C 12,9 km/h (3 Bft) 100,00 %
29.05.2016 12:38 22,2 C 78 % 1003,8 hPa 0,0 l/m 6,5 km/h (2 Bft) NO 53 1 min 0,000 mm 6,3 UV-I 905 W/m 18,2 C 22,2 C 9,7 km/h (2 Bft) 100,00 %
29.05.2016 12:39 22,2 C 77 % 1003,8 hPa 0,0 l/m 3,9 km/h (1 Bft) NO 52 1 min 0,000 mm 6,0 UV-I 899 W/m 18,0 C 22,2 C 6,4 km/h (2 Bft) 95,83 %
29.05.2016 12:40 22,3 C 81 % 1003,8 hPa 0,0 l/m 4,1 km/h (1 Bft) NO 43 1 min 0,000 mm 6,1 UV-I 868 W/m 18,9 C 22,3 C 9,7 km/h (2 Bft) 100,00 %
29.05.2016 12:41 22,4 C 81 % 1003,8 hPa 0,0 l/m 8,1 km/h (2 Bft) NO 34 1 min 0,000 mm 6,1 UV-I 868 W/m 19,0 C 21,8 C 14,5 km/h (3 Bft) 100,00 %
29.05.2016 12:42 22,4 C 77 % 1003,8 hPa 0,0 l/m 9,3 km/h (2 Bft) O-NO 59 1 min 0,000 mm 5,9 UV-I 867 W/m 18,2 C 21,5 C 14,5 km/h (3 Bft) 100,00 %
29.05.2016 12:43 22,4 C 78 % 1003,8 hPa 0,0 l/m 9,3 km/h (2 Bft) NO 53 1 min 0,000 mm 5,6 UV-I 822 W/m 18,4 C 21,5 C 14,5 km/h (3 Bft) 95,65 %
29.05.2016 12:44 22,3 C 77 % 1003,7 hPa 0,0 l/m 9,5 km/h (2 Bft) O 88 1 min 0,000 mm 5,8 UV-I 846 W/m 18,1 C 21,3 C 14,5 km/h (3 Bft) 100,00 %
29.05.2016 12:45 22,3 C 76 % 1003,7 hPa 0,0 l/m 7,6 km/h (2 Bft) O 93 1 min 0,000 mm 5,9 UV-I 782 W/m 17,9 C 21,9 C 11,3 km/h (2 Bft) 96,15 %
29.05.2016 12:46 22,3 C 77 % 1003,6 hPa 0,0 l/m 7,6 km/h (2 Bft) O-NO 58 1 min 0,000 mm 6,0 UV-I 828 W/m 18,1 C 21,9 C 12,9 km/h (3 Bft) 100,00 %
29.05.2016 12:47 22,3 C 78 % 1003,6 hPa 0,0 l/m 7,2 km/h (2 Bft) NO 49 1 min 0,000 mm 5,5 UV-I 823 W/m 18,3 C 22,0 C 11,3 km/h (2 Bft) 100,00 %
29.05.2016 12:48 22,3 C 74 % 1003,6 hPa 0,0 l/m 9,0 km/h (2 Bft) O-NO 75 1 min 0,000 mm 5,2 UV-I 735 W/m 17,4 C 21,5 C 12,9 km/h (3 Bft) 95,83 %
29.05.2016 12:49 22,2 C 75 % 1003,5 hPa 0,0 l/m 7,6 km/h (2 Bft) O 89 1 min 0,000 mm 5,8 UV-I 691 W/m 17,5 C 21,8 C 12,9 km/h (3 Bft) 100,00 %
29.05.2016 12:50 22,2 C 77 % 1003,5 hPa 0,0 l/m 6,0 km/h (2 Bft) NO 45 1 min 0,000 mm 6,0 UV-I 850 W/m 18,0 C 22,2 C 9,7 km/h (2 Bft) 100,00 %
29.05.2016 12:51 22,3 C 81 % 1003,5 hPa 0,0 l/m 9,6 km/h (2 Bft) NO 43 1 min 0,000 mm 5,9 UV-I 878 W/m 18,9 C 21,3 C 19,3 km/h (3 Bft) 100,00 %
29.05.2016 12:52 22,4 C 80 % 1003,5 hPa 0,0 l/m 11,7 km/h (2 Bft) NO 42 1 min 0,000 mm 6,2 UV-I 881 W/m 18,8 C 20,9 C 19,3 km/h (3 Bft) 95,83 %
29.05.2016 12:53 22,4 C 75 % 1003,4 hPa 0,0 l/m 11,4 km/h (2 Bft) NO 53 1 min 0,000 mm 6,2 UV-I 893 W/m 17,7 C 20,9 C 16,1 km/h (3 Bft) 100,00 %
29.05.2016 12:54 22,5 C 78 % 1003,4 hPa 0,0 l/m 11,0 km/h (2 Bft) NO 44 1 min 0,000 mm 6,3 UV-I 898 W/m 18,5 C 21,1 C 16,1 km/h (3 Bft) 100,00 %
29.05.2016 12:55 22,6 C 77 % 1003,4 hPa 0,0 l/m 11,7 km/h (2 Bft) O-NO 67 1 min 0,000 mm 6,3 UV-I 899 W/m 18,4 C 21,1 C 16,1 km/h (3 Bft) 100,00 %
29.05.2016 12:56 22,7 C 76 % 1003,4 hPa 0,0 l/m 12,7 km/h (3 Bft) NO 47 1 min 0,000 mm 6,3 UV-I 891 W/m 18,2 C 21,0 C 19,3 km/h (3 Bft) 100,00 %
29.05.2016 12:57 22,7 C 79 % 1003,4 hPa 0,0 l/m 16,2 km/h (3 Bft) NO 42 1 min 0,000 mm 6,4 UV-I 912 W/m 18,9 C 20,3 C 19,3 km/h (3 Bft) 100,00 %
29.05.2016 12:58 22,8 C 78 % 1003,4 hPa 0,0 l/m 10,1 km/h (2 Bft) NO 46 1 min 0,000 mm 6,4 UV-I 914 W/m 18,8 C 21,7 C 17,7 km/h (3 Bft) 100,00 %
29.05.2016 12:59 22,8 C 77 % 1003,4 hPa 0,0 l/m 8,5 km/h (2 Bft) O-NO 75 1 min 0,000 mm 6,4 UV-I 916 W/m 18,5 C 22,1 C 14,5 km/h (3 Bft) 100,00 %
29.05.2016 13:00 22,8 C 75 % 1003,3 hPa 0,0 l/m 10,5 km/h (2 Bft) O-NO 61 1 min 0,533 mm 6,4 UV-I 919 W/m 18,1 C 21,6 C 17,7 km/h (3 Bft) 97,14 %
29.05.2016 13:02 22,8 C 76 % 1003,3 hPa 0,0 l/m 10,9 km/h (2 Bft) NO 38 2 min 0,000 mm 6,4 UV-I 918 W/m 18,3 C 21,5 C 14,5 km/h (3 Bft) 100,00 %
29.05.2016 13:03 22,8 C 77 % 1003,3 hPa 0,0 l/m 7,2 km/h (2 Bft) NO 39 1 min 0,000 mm 6,4 UV-I 919 W/m 18,5 C 22,5 C 14,5 km/h (3 Bft) 95,83 %
29.05.2016 13:04 22,8 C 76 % 1003,3 hPa 0,0 l/m 11,2 km/h (2 Bft) O-NO 60 1 min 0,000 mm 6,3 UV-I 916 W/m 18,3 C 21,4 C 14,5 km/h (3 Bft) 95,65 %
29.05.2016 13:05 22,8 C 76 % 1003,3 hPa 0,0 l/m 11,6 km/h (2 Bft) NO 42 1 min 0,000 mm 6,3 UV-I 918 W/m 18,3 C 21,3 C 16,1 km/h (3 Bft) 100,00 %
29.05.2016 13:06 22,8 C 74 % 1003,3 hPa 0,0 l/m 11,1 km/h (2 Bft) NO 42 1 min 0,000 mm 6,4 UV-I 921 W/m 17,9 C 21,5 C 17,7 km/h (3 Bft) 100,00 %
29.05.2016 13:07 22,9 C 72 % 1003,3 hPa 0,0 l/m 10,8 km/h (2 Bft) NO 51 1 min 0,000 mm 6,4 UV-I 925 W/m 17,6 C 21,6 C 14,5 km/h (3 Bft) 100,00 %
29.05.2016 13:08 22,9 C 75 % 1003,3 hPa 0,0 l/m 14,5 km/h (3 Bft) NO 39 1 min 0,000 mm 6,3 UV-I 928 W/m 18,2 C 20,9 C 17,7 km/h (3 Bft) 100,00 %
29.05.2016 13:09 22,9 C 76 % 1003,3 hPa 0,0 l/m 14,8 km/h (3 Bft) O 80 1 min 0,000 mm 6,3 UV-I 925 W/m 18,4 C 20,8 C 19,3 km/h (3 Bft) 100,00 %
29.05.2016 13:10 23,0 C 75 % 1003,3 hPa 0,0 l/m 13,5 km/h (3 Bft) NO 55 1 min 0,000 mm 6,3 UV-I 929 W/m 18,3 C 21,2 C 19,3 km/h (3 Bft) 95,65 %
29.05.2016 13:11 22,9 C 74 % 1003,3 hPa 0,0 l/m 12,4 km/h (3 Bft) NO 50 1 min 0,000 mm 6,3 UV-I 925 W/m 18,0 C 21,3 C 16,1 km/h (3 Bft) 100,00 %
29.05.2016 13:12 22,9 C 75 % 1003,3 hPa 0,0 l/m 7,3 km/h (2 Bft) O-NO 69 1 min 0,000 mm 6,0 UV-I 865 W/m 18,2 C 22,6 C 9,7 km/h (2 Bft) 100,00 %
29.05.2016 13:13 22,9 C 78 % 1003,3 hPa 0,0 l/m 11,3 km/h (2 Bft) O-NO 59 1 min 0,000 mm 4,7 UV-I 847 W/m 18,9 C 21,5 C 16,1 km/h (3 Bft) 100,00 %
29.05.2016 13:14 23,0 C 73 % 1003,3 hPa 0,0 l/m 11,5 km/h (2 Bft) NO 50 1 min 0,000 mm 5,6 UV-I 831 W/m 17,9 C 21,6 C 14,5 km/h (3 Bft) 100,00 %
29.05.2016 13:15 22,9 C 73 % 1003,3 hPa 0,0 l/m 8,8 km/h (2 Bft) N-NO 28 1 min 0,000 mm 5,4 UV-I 728 W/m 17,8 C 22,2 C 14,5 km/h (3 Bft) 100,00 %
29.05.2016 13:16 22,9 C 74 % 1003,2 hPa 0,0 l/m 8,6 km/h (2 Bft) O-NO 62 1 min 0,000 mm 5,3 UV-I 670 W/m 18,0 C 22,2 C 11,3 km/h (2 Bft) 100,00 %
29.05.2016 13:17 23,0 C 72 % 1003,3 hPa 0,0 l/m 12,3 km/h (3 Bft) O-NO 63 1 min 0,000 mm 5,5 UV-I 659 W/m 17,7 C 21,4 C 16,1 km/h (3 Bft) 100,00 %
29.05.2016 13:18 23,0 C 71 % 1003,3 hPa 0,0 l/m 9,4 km/h (2 Bft) O-NO 69 1 min 0,000 mm 5,7 UV-I 796 W/m 17,4 C 22,1 C 12,9 km/h (3 Bft) 100,00 %
29.05.2016 13:19 22,9 C 73 % 1003,3 hPa 0,0 l/m 9,9 km/h (2 Bft) NO 49 1 min 0,000 mm 5,7 UV-I 808 W/m 17,8 C 21,9 C 17,7 km/h (3 Bft) 100,00 %
29.05.2016 13:20 23,0 C 75 % 1003,2 hPa 0,0 l/m 13,5 km/h (3 Bft) O-NO 67 1 min 0,000 mm 5,3 UV-I 802 W/m 18,3 C 21,2 C 17,7 km/h (3 Bft) 100,00 %
29.05.2016 13:21 23,1 C 72 % 1003,2 hPa 0,0 l/m 8,5 km/h (2 Bft) O 86 1 min 0,000 mm 5,8 UV-I 818 W/m 17,8 C 22,5 C 12,9 km/h (3 Bft) 100,00 %
29.05.2016 13:22 23,1 C 74 % 1003,2 hPa 0,0 l/m 10,7 km/h (2 Bft) NO 52 1 min 0,000 mm 5,7 UV-I 834 W/m 18,2 C 21,9 C 14,5 km/h (3 Bft) 100,00 %
29.05.2016 13:23 23,1 C 72 % 1003,2 hPa 0,0 l/m 12,1 km/h (2 Bft) O-NO 73 1 min 0,000 mm 5,4 UV-I 769 W/m 17,8 C 21,6 C 22,5 km/h (4 Bft) 100,00 %
29.05.2016 13:24 23,1 C 70 % 1003,2 hPa 0,0 l/m 18,5 km/h (3 Bft) O-NO 75 1 min 0,000 mm 4,8 UV-I 740 W/m 17,3 C 20,4 C 24,1 km/h (4 Bft) 100,00 %
29.05.2016 13:25 23,0 C 70 % 1003,2 hPa 0,0 l/m 17,9 km/h (3 Bft) O-NO 74 1 min 0,000 mm 4,5 UV-I 555 W/m 17,2 C 20,4 C 22,5 km/h (4 Bft) 100,00 %
29.05.2016 13:26 22,9 C 68 % 1003,1 hPa 0,0 l/m 15,0 km/h (3 Bft) O-NO 69 1 min 0,000 mm 4,0 UV-I 503 W/m 16,7 C 20,8 C 20,9 km/h (4 Bft) 100,00 %
29.05.2016 13:27 22,9 C 68 % 1003,1 hPa 0,0 l/m 12,7 km/h (3 Bft) O 83 0 min 0,000 mm 4,1 UV-I 473 W/m 16,7 C 21,2 C 16,1 km/h (3 Bft) 95,65 %
29.05.2016 13:28 22,8 C 70 % 1003,1 hPa 0,0 l/m 14,9 km/h (3 Bft) O-SO 107 0 min 0,000 mm 3,8 UV-I 473 W/m 17,0 C 20,7 C 19,3 km/h (3 Bft) 100,00 %
29.05.2016 13:29 22,7 C 71 % 1003,0 hPa 0,0 l/m 7,0 km/h (2 Bft) O-NO 59 0 min 0,000 mm 3,6 UV-I 402 W/m 17,2 C 22,5 C 11,3 km/h (2 Bft) 95,65 %
29.05.2016 13:30 22,7 C 73 % 1003,0 hPa 0,0 l/m 7,2 km/h (2 Bft) NO 47 0 min 0,000 mm 3,6 UV-I 377 W/m 17,6 C 22,4 C 11,3 km/h (2 Bft) 100,00 %
29.05.2016 13:31 22,7 C 73 % 1003,0 hPa 0,0 l/m 12,3 km/h (3 Bft) NO 35 0 min 0,000 mm 3,6 UV-I 373 W/m 17,6 C 21,1 C 16,1 km/h (3 Bft) 96,15 %
29.05.2016 13:32 22,7 C 73 % 1003,0 hPa 0,0 l/m 8,0 km/h (2 Bft) O-NO 62 0 min 0,000 mm 4,2 UV-I 411 W/m 17,6 C 22,2 C 14,5 km/h (3 Bft) 100,00 %
29.05.2016 13:33 22,8 C 73 % 1003,1 hPa 0,0 l/m 11,2 km/h (2 Bft) O 87 1 min 0,000 mm 4,7 UV-I 548 W/m 17,7 C 21,4 C 16,1 km/h (3 Bft) 96,15 %
29.05.2016 13:34 22,8 C 73 % 1003,1 hPa 0,0 l/m 9,3 km/h (2 Bft) O 83 1 min 0,000 mm 5,6 UV-I 548 W/m 17,7 C 21,9 C 14,5 km/h (3 Bft) 95,83 %
29.05.2016 13:35 22,9 C 75 % 1003,0 hPa 0,0 l/m 10,6 km/h (2 Bft) O-NO 64 1 min 0,000 mm 6,0 UV-I 803 W/m 18,2 C 21,7 C 14,5 km/h (3 Bft) 95,83 %
29.05.2016 13:36 23,0 C 74 % 1003,0 hPa 0,0 l/m 10,9 km/h (2 Bft) O-NO 65 1 min 0,000 mm 6,1 UV-I 961 W/m 18,1 C 21,7 C 16,1 km/h (3 Bft) 100,00 %
29.05.2016 13:37 23,2 C 75 % 1003,0 hPa 0,0 l/m 12,0 km/h (2 Bft) O-NO 67 1 min 0,000 mm 6,2 UV-I 974 W/m 18,5 C 21,7 C 17,7 km/h (3 Bft) 95,83 %
29.05.2016 13:38 23,3 C 71 % 1003,0 hPa 0,0 l/m 15,9 km/h (3 Bft) O-NO 73 1 min 0,000 mm 6,2 UV-I 966 W/m 17,7 C 21,1 C 19,3 km/h (3 Bft) 95,65 %
29.05.2016 13:39 23,3 C 70 % 1003,0 hPa 0,0 l/m 13,0 km/h (3 Bft) O-NO 78 1 min 0,000 mm 6,2 UV-I 974 W/m 17,5 C 21,6 C 17,7 km/h (3 Bft) 100,00 %
29.05.2016 13:40 23,4 C 70 % 1003,0 hPa 0,0 l/m 18,5 km/h (3 Bft) O-NO 72 1 min 0,000 mm 6,0 UV-I 998 W/m 17,6 C 20,8 C 25,7 km/h (4 Bft) 91,30 %
29.05.2016 13:41 23,4 C 69 % 1003,0 hPa 0,0 l/m 16,4 km/h (3 Bft) O-NO 75 1 min 0,000 mm 5,0 UV-I 998 W/m 17,4 C 21,1 C 19,3 km/h (3 Bft) 100,00 %
29.05.2016 13:42 23,4 C 70 % 1002,9 hPa 0,0 l/m 16,9 km/h (3 Bft) O 90 1 min 0,000 mm 5,0 UV-I 998 W/m 17,6 C 21,1 C 19,3 km/h (3 Bft) 96,15 %
29.05.2016 13:43 23,3 C 69 % 1002,9 hPa 0,0 l/m 11,7 km/h (2 Bft) NO 40 1 min 0,000 mm 5,1 UV-I 770 W/m 17,3 C 21,9 C 14,5 km/h (3 Bft) 100,00 %
29.05.2016 13:44 23,3 C 70 % 1002,9 hPa 0,0 l/m 13,5 km/h (3 Bft) O 90 1 min 0,000 mm 4,1 UV-I 684 W/m 17,5 C 21,5 C 17,7 km/h (3 Bft) 96,15 %
29.05.2016 13:45 23,2 C 70 % 1002,9 hPa 0,0 l/m 13,7 km/h (3 Bft) O-NO 72 1 min 0,000 mm 4,0 UV-I 496 W/m 17,4 C 21,4 C 17,7 km/h (3 Bft) 100,00 %
29.05.2016 13:46 23,1 C 71 % 1002,9 hPa 0,0 l/m 13,9 km/h (3 Bft) NO 54 1 min 0,000 mm 4,4 UV-I 492 W/m 17,5 C 21,2 C 17,7 km/h (3 Bft) 88,46 %
29.05.2016 13:47 23,1 C 74 % 1002,9 hPa 0,0 l/m 14,9 km/h (3 Bft) NO 48 1 min 0,000 mm 4,4 UV-I 492 W/m 18,2 C 21,0 C 19,3 km/h (3 Bft) 95,83 %
29.05.2016 13:48 23,1 C 71 % 1002,9 hPa 0,0 l/m 15,8 km/h (3 Bft) O-NO 78 0 min 0,000 mm 3,9 UV-I 466 W/m 17,5 C 20,9 C 19,3 km/h (3 Bft) 100,00 %
29.05.2016 13:49 23,1 C 69 % 1002,9 hPa 0,0 l/m 12,3 km/h (3 Bft) O-NO 59 1 min 0,000 mm 4,3 UV-I 489 W/m 17,1 C 21,5 C 16,1 km/h (3 Bft) 95,83 %
29.05.2016 13:50 23,0 C 70 % 1002,9 hPa 0,0 l/m 13,5 km/h (3 Bft) O-NO 78 1 min 0,000 mm 4,4 UV-I 622 W/m 17,2 C 21,2 C 19,3 km/h (3 Bft) 100,00 %
29.05.2016 13:51 22,9 C 72 % 1002,9 hPa 0,0 l/m 7,4 km/h (2 Bft) NO 47 1 min 0,000 mm 4,0 UV-I 549 W/m 17,6 C 22,6 C 12,9 km/h (3 Bft) 95,83 %
29.05.2016 13:52 22,9 C 72 % 1002,9 hPa 0,0 l/m 12,5 km/h (3 Bft) NO 44 0 min 0,000 mm 4,4 UV-I 462 W/m 17,6 C 21,3 C 17,7 km/h (3 Bft) 95,65 %
29.05.2016 13:53 23,0 C 72 % 1002,9 hPa 0,0 l/m 9,3 km/h (2 Bft) NO 34 1 min 0,000 mm 4,9 UV-I 641 W/m 17,7 C 22,1 C 16,1 km/h (3 Bft) 95,83 %
29.05.2016 13:54 23,1 C 74 % 1002,9 hPa 0,0 l/m 11,1 km/h (2 Bft) NO 51 1 min 0,000 mm 4,8 UV-I 689 W/m 18,2 C 21,8 C 14,5 km/h (3 Bft) 96,15 %
29.05.2016 13:55 23,1 C 72 % 1002,8 hPa 0,0 l/m 17,8 km/h (3 Bft) O 80 1 min 0,000 mm 4,5 UV-I 624 W/m 17,8 C 20,5 C 24,1 km/h (4 Bft) 100,00 %
29.05.2016 13:56 23,2 C 71 % 1002,8 hPa 0,0 l/m 15,3 km/h (3 Bft) O-NO 69 1 min 0,000 mm 4,5 UV-I 642 W/m 17,6 C 21,1 C 20,9 km/h (4 Bft) 100,00 %
29.05.2016 13:57 23,2 C 70 % 1002,8 hPa 0,0 l/m 15,3 km/h (3 Bft) O-NO 67 1 min 0,000 mm 4,8 UV-I 696 W/m 17,4 C 21,1 C 22,5 km/h (4 Bft) 92,31 %
29.05.2016 13:58 23,2 C 69 % 1002,7 hPa 0,0 l/m 13,6 km/h (3 Bft) O-NO 58 1 min 0,000 mm 4,8 UV-I 682 W/m 17,2 C 21,4 C 20,9 km/h (4 Bft) 95,83 %
29.05.2016 13:59 23,2 C 70 % 1002,7 hPa 0,0 l/m 16,2 km/h (3 Bft) O 98 1 min 0,000 mm 4,6 UV-I 664 W/m 17,4 C 20,9 C 20,9 km/h (4 Bft) 100,00 %
29.05.2016 14:00 23,2 C 70 % 1002,7 hPa 0,0 l/m 12,8 km/h (3 Bft) O-NO 76 1 min 0,000 mm 4,3 UV-I 594 W/m 17,4 C 21,5 C 17,7 km/h (3 Bft) 96,30 %
29.05.2016 14:02 23,2 C 72 % 1002,7 hPa 0,0 l/m 12,3 km/h (3 Bft) NO 45 2 min 0,483 mm 4,2 UV-I 594 W/m 17,9 C 21,7 C 17,7 km/h (3 Bft) 100,00 %
29.05.2016 14:03 23,2 C 74 % 1002,7 hPa 0,0 l/m 11,3 km/h (2 Bft) NO 43 1 min 0,000 mm 4,1 UV-I 573 W/m 18,3 C 21,9 C 16,1 km/h (3 Bft) 100,00 %
29.05.2016 14:04 23,3 C 74 % 1002,7 hPa 0,0 l/m 11,9 km/h (2 Bft) NO 50 1 min 0,000 mm 4,1 UV-I 583 W/m 18,4 C 21,9 C 16,1 km/h (3 Bft) 95,83 %
29.05.2016 14:05 23,3 C 74 % 1002,7 hPa 0,0 l/m 10,9 km/h (2 Bft) NO 51 1 min 0,000 mm 4,0 UV-I 580 W/m 18,4 C 22,1 C 14,5 km/h (3 Bft) 100,00 %
29.05.2016 14:06 23,3 C 72 % 1002,8 hPa 0,0 l/m 13,5 km/h (3 Bft) O-NO 76 1 min 0,000 mm 3,9 UV-I 546 W/m 18,0 C 21,5 C 20,9 km/h (4 Bft) 100,00 %
29.05.2016 14:07 23,3 C 70 % 1002,7 hPa 0,0 l/m 12,0 km/h (2 Bft) O-NO 76 1 min 0,000 mm 3,6 UV-I 483 W/m 17,5 C 21,8 C 17,7 km/h (3 Bft) 100,00 %
29.05.2016 14:08 23,3 C 69 % 1002,8 hPa 0,0 l/m 16,5 km/h (3 Bft) O-NO 76 0 min 0,000 mm 3,3 UV-I 434 W/m 17,3 C 21,0 C 19,3 km/h (3 Bft) 100,00 %
29.05.2016 14:09 23,3 C 70 % 1002,8 hPa 0,0 l/m 16,2 km/h (3 Bft) O-NO 63 0 min 0,000 mm 3,2 UV-I 416 W/m 17,5 C 21,0 C 19,3 km/h (3 Bft) 91,30 %
29.05.2016 14:10 23,2 C 71 % 1002,8 hPa 0,0 l/m 13,8 km/h (3 Bft) NO 55 0 min 0,000 mm 3,1 UV-I 388 W/m 17,6 C 21,3 C 17,7 km/h (3 Bft) 100,00 %
29.05.2016 14:11 23,2 C 70 % 1002,8 hPa 0,0 l/m 12,3 km/h (3 Bft) NO 54 0 min 0,000 mm 2,9 UV-I 368 W/m 17,4 C 21,7 C 17,7 km/h (3 Bft) 100,00 %
29.05.2016 14:12 23,2 C 70 % 1002,7 hPa 0,0 l/m 9,2 km/h (2 Bft) O-NO 61 0 min 0,000 mm 2,8 UV-I 360 W/m 17,4 C 22,4 C 14,5 km/h (3 Bft) 95,83 %
29.05.2016 14:13 23,1 C 71 % 1002,7 hPa 0,0 l/m 6,6 km/h (2 Bft) NO 55 0 min 0,000 mm 2,8 UV-I 356 W/m 17,5 C 23,0 C 11,3 km/h (2 Bft) 100,00 %
29.05.2016 14:14 23,1 C 72 % 1002,7 hPa 0,0 l/m 8,4 km/h (2 Bft) NO 50 0 min 0,000 mm 2,7 UV-I 353 W/m 17,8 C 22,5 C 12,9 km/h (3 Bft) 100,00 %
29.05.2016 14:15 23,1 C 73 % 1002,7 hPa 0,0 l/m 8,3 km/h (2 Bft) NO 49 0 min 0,000 mm 2,7 UV-I 351 W/m 18,0 C 22,5 C 12,9 km/h (3 Bft) 100,00 %
29.05.2016 14:16 23,1 C 74 % 1002,7 hPa 0,0 l/m 9,9 km/h (2 Bft) O-NO 61 0 min 0,000 mm 2,6 UV-I 347 W/m 18,2 C 22,1 C 14,5 km/h (3 Bft) 100,00 %
29.05.2016 14:17 23,0 C 74 % 1002,6 hPa 0,0 l/m 10,2 km/h (2 Bft) O-NO 63 0 min 0,000 mm 2,6 UV-I 345 W/m 18,1 C 21,9 C 14,5 km/h (3 Bft) 100,00 %
29.05.2016 14:18 22,9 C 73 % 1002,6 hPa 0,0 l/m 15,2 km/h (3 Bft) NO 54 0 min 0,000 mm 2,5 UV-I 345 W/m 17,8 C 20,7 C 22,5 km/h (4 Bft) 100,00 %
29.05.2016 14:19 22,9 C 74 % 1002,6 hPa 0,0 l/m 10,2 km/h (2 Bft) NO 49 0 min 0,000 mm 2,5 UV-I 345 W/m 18,0 C 21,8 C 14,5 km/h (3 Bft) 100,00 %
29.05.2016 14:20 22,9 C 73 % 1002,7 hPa 0,0 l/m 10,8 km/h (2 Bft) O 83 0 min 0,000 mm 2,5 UV-I 345 W/m 17,8 C 21,6 C 14,5 km/h (3 Bft) 100,00 %
29.05.2016 14:21 22,8 C 74 % 1002,6 hPa 0,0 l/m 9,6 km/h (2 Bft) N-NO 21 0 min 0,000 mm 2,5 UV-I 346 W/m 17,9 C 21,8 C 12,9 km/h (3 Bft) 100,00 %
29.05.2016 14:22 22,8 C 72 % 1002,7 hPa 0,0 l/m 13,9 km/h (3 Bft) O-NO 57 0 min 0,000 mm 2,5 UV-I 347 W/m 17,5 C 20,9 C 22,5 km/h (4 Bft) 100,00 %
29.05.2016 14:23 22,8 C 73 % 1002,6 hPa 0,0 l/m 14,7 km/h (3 Bft) O-NO 57 0 min 0,000 mm 2,4 UV-I 348 W/m 17,7 C 20,7 C 20,9 km/h (4 Bft) 100,00 %
29.05.2016 14:24 22,8 C 73 % 1002,7 hPa 0,0 l/m 16,7 km/h (3 Bft) NO 56 0 min 0,000 mm 2,4 UV-I 350 W/m 17,7 C 20,3 C 20,9 km/h (4 Bft) 100,00 %
29.05.2016 14:25 22,8 C 72 % 1002,6 hPa 0,0 l/m 13,7 km/h (3 Bft) O-NO 65 0 min 0,000 mm 2,4 UV-I 352 W/m 17,5 C 20,9 C 19,3 km/h (3 Bft) 100,00 %
29.05.2016 14:26 22,8 C 72 % 1002,7 hPa 0,0 l/m 15,9 km/h (3 Bft) NO 56 0 min 0,000 mm 2,4 UV-I 354 W/m 17,5 C 20,5 C 19,3 km/h (3 Bft) 100,00 %
29.05.2016 14:27 22,8 C 73 % 1002,6 hPa 0,0 l/m 12,7 km/h (3 Bft) NO 56 0 min 0,000 mm 2,4 UV-I 357 W/m 17,7 C 21,1 C 17,7 km/h (3 Bft) 100,00 %
29.05.2016 14:28 22,8 C 73 % 1002,6 hPa 0,0 l/m 18,7 km/h (3 Bft) O-NO 64 0 min 0,000 mm 2,5 UV-I 361 W/m 17,7 C 20,0 C 22,5 km/h (4 Bft) 100,00 %
29.05.2016 14:29 22,8 C 72 % 1002,6 hPa 0,0 l/m 16,1 km/h (3 Bft) NO 44 0 min 0,000 mm 2,5 UV-I 366 W/m 17,5 C 20,4 C 20,9 km/h (4 Bft) 100,00 %
29.05.2016 14:30 22,8 C 73 % 1002,6 hPa 0,0 l/m 17,8 km/h (3 Bft) O-NO 78 0 min 0,000 mm 2,6 UV-I 375 W/m 17,7 C 20,2 C 22,5 km/h (4 Bft) 91,30 %
29.05.2016 14:31 22,7 C 74 % 1002,6 hPa 0,0 l/m 7,5 km/h (2 Bft) O 85 0 min 0,000 mm 2,6 UV-I 383 W/m 17,8 C 22,3 C 11,3 km/h (2 Bft) 100,00 %
29.05.2016 14:32 22,7 C 74 % 1002,6 hPa 0,0 l/m 12,8 km/h (3 Bft) N-NO 33 0 min 0,000 mm 2,6 UV-I 390 W/m 17,8 C 21,0 C 17,7 km/h (3 Bft) 100,00 %
29.05.2016 14:33 22,7 C 75 % 1002,6 hPa 0,0 l/m 11,0 km/h (2 Bft) O-NO 70 0 min 0,000 mm 2,7 UV-I 397 W/m 18,0 C 21,4 C 14,5 km/h (3 Bft) 95,65 %
29.05.2016 14:34 22,7 C 75 % 1002,6 hPa 0,0 l/m 13,1 km/h (3 Bft) NO 54 0 min 0,000 mm 2,8 UV-I 411 W/m 18,0 C 20,9 C 17,7 km/h (3 Bft) 100,00 %
29.05.2016 14:35 22,7 C 76 % 1002,5 hPa 0,0 l/m 14,7 km/h (3 Bft) O-NO 67 0 min 0,000 mm 2,8 UV-I 419 W/m 18,2 C 20,6 C 20,9 km/h (4 Bft) 100,00 %
29.05.2016 14:36 22,8 C 75 % 1002,6 hPa 0,0 l/m 16,0 km/h (3 Bft) O-NO 74 0 min 0,000 mm 2,8 UV-I 417 W/m 18,1 C 20,5 C 20,9 km/h (4 Bft) 100,00 %
29.05.2016 14:37 22,8 C 75 % 1002,6 hPa 0,0 l/m 15,6 km/h (3 Bft) O-NO 58 0 min 0,000 mm 2,8 UV-I 417 W/m 18,1 C 20,5 C 19,3 km/h (3 Bft) 95,65 %
29.05.2016 14:38 22,8 C 75 % 1002,6 hPa 0,0 l/m 14,0 km/h (3 Bft) O 97 0 min 0,000 mm 2,8 UV-I 418 W/m 18,1 C 20,8 C 19,3 km/h (3 Bft) 95,83 %
29.05.2016 14:39 22,8 C 75 % 1002,6 hPa 0,0 l/m 16,1 km/h (3 Bft) O-SO 114 0 min 0,000 mm 2,8 UV-I 420 W/m 18,1 C 20,4 C 20,9 km/h (4 Bft) 95,65 %
29.05.2016 14:40 22,7 C 76 % 1002,6 hPa 0,0 l/m 11,7 km/h (2 Bft) O-NO 68 0 min 0,000 mm 2,8 UV-I 420 W/m 18,2 C 21,2 C 17,7 km/h (3 Bft) 100,00 %
29.05.2016 14:41 22,7 C 75 % 1002,6 hPa 0,0 l/m 12,9 km/h (3 Bft) O-NO 63 0 min 0,000 mm 2,8 UV-I 420 W/m 18,0 C 20,9 C 19,3 km/h (3 Bft) 100,00 %
29.05.2016 14:42 22,7 C 75 % 1002,5 hPa 0,0 l/m 16,1 km/h (3 Bft) O 88 0 min 0,000 mm 2,8 UV-I 418 W/m 18,0 C 20,3 C 20,9 km/h (4 Bft) 100,00 %
29.05.2016 14:43 22,7 C 74 % 1002,5 hPa 0,0 l/m 17,5 km/h (3 Bft) O 87 0 min 0,000 mm 2,7 UV-I 407 W/m 17,8 C 20,1 C 22,5 km/h (4 Bft) 96,15 %
29.05.2016 14:44 22,7 C 75 % 1002,4 hPa 0,0 l/m 20,4 km/h (4 Bft) O-NO 76 0 min 0,000 mm 2,7 UV-I 398 W/m 18,0 C 19,6 C 27,4 km/h (4 Bft) 100,00 %
29.05.2016 14:45 22,6 C 73 % 1002,4 hPa 0,0 l/m 15,1 km/h (3 Bft) O 85 0 min 0,000 mm 2,6 UV-I 390 W/m 17,5 C 20,4 C 20,9 km/h (4 Bft) 95,65 %
29.05.2016 14:46 22,6 C 75 % 1002,5 hPa 0,0 l/m 14,8 km/h (3 Bft) O 85 0 min 0,000 mm 2,6 UV-I 382 W/m 17,9 C 20,4 C 20,9 km/h (4 Bft) 95,83 %
29.05.2016 14:47 22,6 C 74 % 1002,5 hPa 0,0 l/m 16,2 km/h (3 Bft) O-NO 66 0 min 0,000 mm 2,5 UV-I 367 W/m 17,7 C 20,2 C 20,9 km/h (4 Bft) 100,00 %
29.05.2016 14:48 22,6 C 75 % 1002,5 hPa 0,0 l/m 14,6 km/h (3 Bft) O 82 0 min 0,000 mm 2,4 UV-I 352 W/m 17,9 C 20,5 C 19,3 km/h (3 Bft) 100,00 %
29.05.2016 14:49 22,6 C 75 % 1002,5 hPa 0,0 l/m 17,9 km/h (3 Bft) O 84 0 min 0,000 mm 2,4 UV-I 340 W/m 17,9 C 19,9 C 22,5 km/h (4 Bft) 95,65 %
29.05.2016 14:50 22,5 C 75 % 1002,5 hPa 0,0 l/m 15,4 km/h (3 Bft) O 94 0 min 0,000 mm 2,3 UV-I 332 W/m 17,8 C 20,2 C 20,9 km/h (4 Bft) 100,00 %
29.05.2016 14:51 22,4 C 74 % 1002,5 hPa 0,0 l/m 17,0 km/h (3 Bft) NO 51 0 min 0,000 mm 2,3 UV-I 325 W/m 17,5 C 19,8 C 24,1 km/h (4 Bft) 100,00 %
29.05.2016 14:52 22,4 C 75 % 1002,6 hPa 0,0 l/m 13,1 km/h (3 Bft) O-NO 64 0 min 0,000 mm 2,2 UV-I 319 W/m 17,7 C 20,5 C 25,7 km/h (4 Bft) 100,00 %
29.05.2016 14:53 22,4 C 75 % 1002,5 hPa 0,0 l/m 16,6 km/h (3 Bft) O-NO 63 0 min 0,000 mm 2,2 UV-I 313 W/m 17,7 C 19,9 C 24,1 km/h (4 Bft) 100,00 %
29.05.2016 14:54 22,3 C 75 % 1002,6 hPa 0,0 l/m 16,2 km/h (3 Bft) O 90 0 min 0,000 mm 2,2 UV-I 308 W/m 17,6 C 19,8 C 24,1 km/h (4 Bft) 100,00 %
29.05.2016 14:55 22,3 C 76 % 1002,6 hPa 0,0 l/m 13,1 km/h (3 Bft) NO 56 0 min 0,000 mm 2,1 UV-I 305 W/m 17,9 C 20,4 C 17,7 km/h (3 Bft) 100,00 %
29.05.2016 14:56 22,3 C 76 % 1002,6 hPa 0,0 l/m 16,2 km/h (3 Bft) O-NO 60 0 min 0,000 mm 2,1 UV-I 303 W/m 17,9 C 19,8 C 22,5 km/h (4 Bft) 100,00 %
29.05.2016 14:57 22,3 C 76 % 1002,5 hPa 0,0 l/m 17,9 km/h (3 Bft) O-NO 61 0 min 0,000 mm 2,1 UV-I 302 W/m 17,9 C 19,5 C 20,9 km/h (4 Bft) 100,00 %
29.05.2016 14:58 22,3 C 77 % 1002,5 hPa 0,0 l/m 11,5 km/h (2 Bft) NO 51 0 min 0,000 mm 2,0 UV-I 302 W/m 18,1 C 20,8 C 17,7 km/h (3 Bft) 100,00 %
29.05.2016 14:59 22,3 C 78 % 1002,4 hPa 0,0 l/m 8,1 km/h (2 Bft) O-NO 71 0 min 0,000 mm 2,0 UV-I 302 W/m 18,3 C 21,7 C 12,9 km/h (3 Bft) 100,00 %
29.05.2016 15:00 22,3 C 76 % 1002,4 hPa 0,0 l/m 10,1 km/h (2 Bft) O-NO 59 0 min 0,000 mm 2,0 UV-I 302 W/m 17,9 C 21,2 C 14,5 km/h (3 Bft) 100,00 %
29.05.2016 15:02 22,3 C 79 % 1002,5 hPa 0,0 l/m 9,5 km/h (2 Bft) O-SO 117 0 min 0,279 mm 2,0 UV-I 302 W/m 18,5 C 21,3 C 14,5 km/h (3 Bft) 97,87 %
29.05.2016 15:03 22,3 C 77 % 1002,5 hPa 0,0 l/m 16,7 km/h (3 Bft) O 101 0 min 0,000 mm 2,0 UV-I 302 W/m 18,1 C 19,7 C 20,9 km/h (4 Bft) 100,00 %
29.05.2016 15:04 22,3 C 77 % 1002,6 hPa 0,0 l/m 18,3 km/h (3 Bft) O 84 0 min 0,000 mm 2,0 UV-I 304 W/m 18,1 C 19,4 C 25,7 km/h (4 Bft) 100,00 %
29.05.2016 15:05 22,3 C 77 % 1002,6 hPa 0,0 l/m 16,4 km/h (3 Bft) O 98 0 min 0,000 mm 2,0 UV-I 306 W/m 18,1 C 19,8 C 19,3 km/h (3 Bft) 100,00 %
29.05.2016 15:06 22,2 C 77 % 1002,5 hPa 0,0 l/m 16,9 km/h (3 Bft) O-NO 65 0 min 0,000 mm 2,0 UV-I 307 W/m 18,0 C 19,6 C 20,9 km/h (4 Bft) 96,15 %
29.05.2016 15:07 22,2 C 78 % 1002,5 hPa 0,0 l/m 13,7 km/h (3 Bft) NO 44 0 min 0,000 mm 2,0 UV-I 308 W/m 18,2 C 20,2 C 19,3 km/h (3 Bft) 100,00 %
29.05.2016 15:08 22,2 C 79 % 1002,4 hPa 0,0 l/m 14,2 km/h (3 Bft) O-NO 61 0 min 0,000 mm 2,0 UV-I 309 W/m 18,4 C 20,1 C 22,5 km/h (4 Bft) 95,65 %
29.05.2016 15:09 22,2 C 78 % 1002,4 hPa 0,0 l/m 17,2 km/h (3 Bft) NO 55 0 min 0,000 mm 2,0 UV-I 310 W/m 18,2 C 19,5 C 22,5 km/h (4 Bft) 100,00 %
29.05.2016 15:10 22,2 C 78 % 1002,4 hPa 0,0 l/m 15,8 km/h (3 Bft) O-NO 76 0 min 0,000 mm 2,0 UV-I 311 W/m 18,2 C 19,8 C 20,9 km/h (4 Bft) 100,00 %
29.05.2016 15:11 22,2 C 79 % 1002,4 hPa 0,0 l/m 13,0 km/h (3 Bft) O-NO 63 0 min 0,000 mm 2,0 UV-I 313 W/m 18,4 C 20,3 C 20,9 km/h (4 Bft) 100,00 %
29.05.2016 15:12 22,2 C 78 % 1002,4 hPa 0,0 l/m 15,7 km/h (3 Bft) O-NO 76 0 min 0,000 mm 2,0 UV-I 316 W/m 18,2 C 19,8 C 19,3 km/h (3 Bft) 100,00 %
29.05.2016 15:13 22,2 C 78 % 1002,3 hPa 0,0 l/m 16,2 km/h (3 Bft) O-NO 75 0 min 0,000 mm 2,0 UV-I 320 W/m 18,2 C 19,7 C 22,5 km/h (4 Bft) 100,00 %
29.05.2016 15:14 22,2 C 77 % 1002,4 hPa 0,0 l/m 19,7 km/h (3 Bft) O-SO 111 0 min 0,000 mm 2,1 UV-I 324 W/m 18,0 C 19,1 C 24,1 km/h (4 Bft) 100,00 %
29.05.2016 15:15 22,2 C 78 % 1002,3 hPa 0,0 l/m 15,3 km/h (3 Bft) O 80 0 min 0,000 mm 2,1 UV-I 329 W/m 18,2 C 19,9 C 19,3 km/h (3 Bft) 100,00 %
29.05.2016 15:16 22,2 C 78 % 1002,3 hPa 0,0 l/m 16,1 km/h (3 Bft) O 80 0 min 0,000 mm 2,2 UV-I 335 W/m 18,2 C 19,7 C 20,9 km/h (4 Bft) 100,00 %
29.05.2016 15:17 22,2 C 78 % 1002,2 hPa 0,0 l/m 16,2 km/h (3 Bft) O 80 0 min 0,000 mm 2,2 UV-I 347 W/m 18,2 C 19,7 C 22,5 km/h (4 Bft) 100,00 %
29.05.2016 15:18 22,2 C 77 % 1002,2 hPa 0,0 l/m 17,0 km/h (3 Bft) NO 45 0 min 0,000 mm 2,3 UV-I 363 W/m 18,0 C 19,5 C 24,1 km/h (4 Bft) 100,00 %
29.05.2016 15:19 22,2 C 78 % 1002,1 hPa 0,0 l/m 15,0 km/h (3 Bft) O-NO 59 0 min 0,000 mm 2,4 UV-I 385 W/m 18,2 C 19,9 C 20,9 km/h (4 Bft) 95,65 %
29.05.2016 15:20 22,2 C 78 % 1002,1 hPa 0,0 l/m 17,2 km/h (3 Bft) NO 55 0 min 0,000 mm 2,5 UV-I 411 W/m 18,2 C 19,5 C 22,5 km/h (4 Bft) 100,00 %
29.05.2016 15:21 22,2 C 78 % 1002,1 hPa 0,0 l/m 19,9 km/h (4 Bft) O-NO 62 1 min 0,000 mm 2,7 UV-I 449 W/m 18,2 C 19,1 C 24,1 km/h (4 Bft) 100,00 %
29.05.2016 15:22 22,2 C 78 % 1002,1 hPa 0,0 l/m 15,0 km/h (3 Bft) O-NO 63 1 min 0,000 mm 2,8 UV-I 485 W/m 18,2 C 19,9 C 20,9 km/h (4 Bft) 100,00 %
29.05.2016 15:23 22,3 C 79 % 1002,1 hPa 0,0 l/m 17,4 km/h (3 Bft) O-NO 62 1 min 0,000 mm 3,0 UV-I 508 W/m 18,5 C 19,6 C 24,1 km/h (4 Bft) 91,30 %
29.05.2016 15:24 22,3 C 78 % 1002,0 hPa 0,0 l/m 15,5 km/h (3 Bft) O-NO 67 1 min 0,000 mm 3,0 UV-I 511 W/m 18,3 C 19,9 C 20,9 km/h (4 Bft) 95,83 %
29.05.2016 15:25 22,3 C 78 % 1002,1 hPa 0,0 l/m 14,6 km/h (3 Bft) NO 46 1 min 0,000 mm 3,1 UV-I 518 W/m 18,3 C 20,1 C 24,1 km/h (4 Bft) 100,00 %
29.05.2016 15:26 22,4 C 80 % 1002,0 hPa 0,0 l/m 14,7 km/h (3 Bft) NO 49 1 min 0,000 mm 3,1 UV-I 526 W/m 18,8 C 20,2 C 19,3 km/h (3 Bft) 91,67 %
29.05.2016 15:27 22,4 C 78 % 1002,0 hPa 0,0 l/m 18,8 km/h (3 Bft) NO 55 1 min 0,000 mm 3,1 UV-I 541 W/m 18,4 C 19,5 C 24,1 km/h (4 Bft) 92,31 %
29.05.2016 15:28 22,4 C 78 % 1002,0 hPa 0,0 l/m 19,6 km/h (3 Bft) NO 37 1 min 0,000 mm 3,2 UV-I 570 W/m 18,4 C 19,4 C 25,7 km/h (4 Bft) 95,83 %
29.05.2016 15:29 22,5 C 79 % 1002,0 hPa 0,0 l/m 17,2 km/h (3 Bft) NO 48 1 min 0,000 mm 3,4 UV-I 587 W/m 18,7 C 19,9 C 20,9 km/h (4 Bft) 100,00 %
29.05.2016 15:30 22,6 C 79 % 1002,0 hPa 0,0 l/m 12,8 km/h (3 Bft) O-NO 64 1 min 0,000 mm 3,4 UV-I 594 W/m 18,8 C 20,8 C 20,9 km/h (4 Bft) 95,83 %
29.05.2016 15:31 22,6 C 79 % 1002,0 hPa 0,0 l/m 13,5 km/h (3 Bft) O-NO 70 1 min 0,000 mm 3,5 UV-I 619 W/m 18,8 C 20,7 C 20,9 km/h (4 Bft) 96,55 %
29.05.2016 15:32 22,7 C 78 % 1002,1 hPa 0,0 l/m 12,6 km/h (3 Bft) NO 42 1 min 0,000 mm 3,6 UV-I 648 W/m 18,7 C 21,0 C 17,7 km/h (3 Bft) 100,00 %
29.05.2016 15:33 22,7 C 78 % 1002,0 hPa 0,0 l/m 16,9 km/h (3 Bft) O-NO 58 1 min 0,000 mm 3,7 UV-I 679 W/m 18,7 C 20,2 C 25,7 km/h (4 Bft) 95,65 %
29.05.2016 15:34 22,8 C 77 % 1002,1 hPa 0,0 l/m 22,7 km/h (4 Bft) NO 42 1 min 0,000 mm 3,7 UV-I 712 W/m 18,5 C 19,5 C 30,6 km/h (5 Bft) 95,83 %
29.05.2016 15:35 22,8 C 76 % 1002,0 hPa 0,0 l/m 16,8 km/h (3 Bft) O-NO 63 1 min 0,000 mm 3,9 UV-I 720 W/m 18,3 C 20,3 C 25,7 km/h (4 Bft) 95,65 %
29.05.2016 15:36 22,8 C 76 % 1002,0 hPa 0,0 l/m 18,2 km/h (3 Bft) NO 56 1 min 0,000 mm 4,0 UV-I 740 W/m 18,3 C 20,1 C 22,5 km/h (4 Bft) 100,00 %
29.05.2016 15:37 22,9 C 78 % 1002,0 hPa 0,0 l/m 19,9 km/h (4 Bft) NO 53 1 min 0,000 mm 4,0 UV-I 740 W/m 18,9 C 20,0 C 24,1 km/h (4 Bft) 95,83 %
29.05.2016 15:38 22,9 C 76 % 1002,0 hPa 0,0 l/m 21,5 km/h (4 Bft) NO 51 1 min 0,000 mm 4,0 UV-I 754 W/m 18,4 C 19,7 C 25,7 km/h (4 Bft) 91,30 %
29.05.2016 15:39 23,0 C 77 % 1001,9 hPa 0,0 l/m 17,6 km/h (3 Bft) O-NO 75 1 min 0,000 mm 4,0 UV-I 759 W/m 18,7 C 20,4 C 20,9 km/h (4 Bft) 100,00 %
29.05.2016 15:40 23,0 C 76 % 1001,9 hPa 0,0 l/m 16,7 km/h (3 Bft) O-NO 66 1 min 0,000 mm 4,0 UV-I 767 W/m 18,5 C 20,6 C 22,5 km/h (4 Bft) 92,86 %
29.05.2016 15:41 23,1 C 77 % 1002,0 hPa 0,0 l/m 13,6 km/h (3 Bft) O-NO 69 1 min 0,000 mm 4,0 UV-I 753 W/m 18,8 C 21,3 C 22,5 km/h (4 Bft) 100,00 %
29.05.2016 15:42 23,1 C 77 % 1002,0 hPa 0,0 l/m 20,6 km/h (4 Bft) NO 38 1 min 0,000 mm 3,9 UV-I 744 W/m 18,8 C 20,1 C 25,7 km/h (4 Bft) 95,65 %
29.05.2016 15:43 23,2 C 76 % 1001,9 hPa 0,0 l/m 20,3 km/h (4 Bft) N-NO 25 1 min 0,000 mm 3,9 UV-I 751 W/m 18,7 C 20,3 C 32,2 km/h (5 Bft) 100,00 %
29.05.2016 15:44 23,2 C 77 % 1002,0 hPa 0,0 l/m 16,8 km/h (3 Bft) O-NO 66 1 min 0,000 mm 3,9 UV-I 753 W/m 18,9 C 20,8 C 20,9 km/h (4 Bft) 95,65 %
29.05.2016 15:45 23,3 C 77 % 1001,9 hPa 0,0 l/m 19,5 km/h (3 Bft) O-NO 61 1 min 0,000 mm 3,9 UV-I 733 W/m 19,0 C 20,5 C 24,1 km/h (4 Bft) 100,00 %
29.05.2016 15:46 23,3 C 76 % 1001,9 hPa 0,0 l/m 22,1 km/h (4 Bft) NO 56 1 min 0,000 mm 3,8 UV-I 728 W/m 18,8 C 20,2 C 32,2 km/h (5 Bft) 86,96 %
29.05.2016 15:47 23,3 C 76 % 1001,9 hPa 0,0 l/m 21,0 km/h (4 Bft) O 80 1 min 0,000 mm 3,8 UV-I 721 W/m 18,8 C 20,3 C 29,0 km/h (5 Bft) 95,83 %
29.05.2016 15:48 23,3 C 76 % 1001,8 hPa 0,0 l/m 23,8 km/h (4 Bft) O-NO 61 1 min 0,000 mm 3,7 UV-I 700 W/m 18,8 C 20,0 C 29,0 km/h (5 Bft) 100,00 %
29.05.2016 15:49 23,2 C 76 % 1001,8 hPa 0,0 l/m 19,5 km/h (3 Bft) O-NO 61 1 min 0,000 mm 3,6 UV-I 667 W/m 18,7 C 20,4 C 27,4 km/h (4 Bft) 95,83 %
29.05.2016 15:50 23,2 C 76 % 1001,8 hPa 0,0 l/m 20,6 km/h (4 Bft) O-NO 63 1 min 0,000 mm 3,5 UV-I 652 W/m 18,7 C 20,3 C 25,7 km/h (4 Bft) 100,00 %
29.05.2016 15:51 23,2 C 76 % 1001,7 hPa 0,0 l/m 21,0 km/h (4 Bft) NO 55 1 min 0,000 mm 3,5 UV-I 649 W/m 18,7 C 20,2 C 30,6 km/h (5 Bft) 96,30 %
29.05.2016 15:52 23,1 C 76 % 1001,7 hPa 0,0 l/m 18,8 km/h (3 Bft) NO 49 1 min 0,000 mm 2,4 UV-I 649 W/m 18,6 C 20,4 C 25,7 km/h (4 Bft) 100,00 %
29.05.2016 15:53 23,1 C 77 % 1001,7 hPa 0,0 l/m 18,4 km/h (3 Bft) NO 55 1 min 0,000 mm 2,8 UV-I 649 W/m 18,8 C 20,4 C 24,1 km/h (4 Bft) 95,65 %
29.05.2016 15:54 23,0 C 77 % 1001,7 hPa 0,0 l/m 18,5 km/h (3 Bft) NO 56 1 min 0,000 mm 3,3 UV-I 633 W/m 18,7 C 20,3 C 22,5 km/h (4 Bft) 100,00 %
29.05.2016 15:55 23,0 C 78 % 1001,6 hPa 0,0 l/m 15,4 km/h (3 Bft) O-NO 60 1 min 0,000 mm 3,4 UV-I 621 W/m 18,9 C 20,8 C 22,5 km/h (4 Bft) 95,65 %
29.05.2016 15:56 23,0 C 77 % 1001,7 hPa 0,0 l/m 19,7 km/h (3 Bft) N-NO 27 1 min 0,000 mm 3,5 UV-I 646 W/m 18,7 C 20,1 C 29,0 km/h (5 Bft) 100,00 %
29.05.2016 15:57 23,1 C 78 % 1001,7 hPa 0,0 l/m 17,4 km/h (3 Bft) O-NO 57 1 min 0,000 mm 3,6 UV-I 686 W/m 19,0 C 20,6 C 24,1 km/h (4 Bft) 91,30 %
29.05.2016 15:58 23,1 C 77 % 1001,7 hPa 0,0 l/m 20,2 km/h (4 Bft) NO 51 1 min 0,000 mm 3,6 UV-I 709 W/m 18,8 C 20,2 C 22,5 km/h (4 Bft) 100,00 %
29.05.2016 15:59 23,1 C 77 % 1001,7 hPa 0,0 l/m 18,1 km/h (3 Bft) O-NO 60 1 min 0,000 mm 3,6 UV-I 712 W/m 18,8 C 20,5 C 22,5 km/h (4 Bft) 95,65 %
29.05.2016 16:00 23,2 C 77 % 1001,6 hPa 0,0 l/m 19,8 km/h (3 Bft) O-NO 57 1 min 0,000 mm 3,6 UV-I 709 W/m 18,9 C 20,4 C 24,1 km/h (4 Bft) 100,00 %
29.05.2016 16:02 23,3 C 77 % 1001,5 hPa 0,0 l/m 20,0 km/h (4 Bft) NO 46 2 min 0,381 mm 3,5 UV-I 707 W/m 19,0 C 20,5 C 25,7 km/h (4 Bft) 100,00 %
29.05.2016 16:03 23,3 C 77 % 1001,5 hPa 0,0 l/m 15,2 km/h (3 Bft) O-NO 65 1 min 0,000 mm 3,4 UV-I 678 W/m 19,0 C 21,2 C 22,5 km/h (4 Bft) 95,65 %
29.05.2016 16:04 23,3 C 76 % 1001,5 hPa 0,0 l/m 18,4 km/h (3 Bft) N-NO 16 1 min 0,000 mm 3,5 UV-I 692 W/m 18,8 C 20,7 C 24,1 km/h (4 Bft) 100,00 %
29.05.2016 16:05 23,4 C 78 % 1001,5 hPa 0,0 l/m 19,3 km/h (3 Bft) NO 56 1 min 0,000 mm 3,4 UV-I 696 W/m 19,3 C 20,7 C 29,0 km/h (5 Bft) 91,30 %
29.05.2016 16:06 23,4 C 77 % 1001,4 hPa 0,0 l/m 20,1 km/h (4 Bft) O-NO 63 1 min 0,000 mm 3,4 UV-I 662 W/m 19,1 C 20,6 C 24,1 km/h (4 Bft) 100,00 %
29.05.2016 16:07 23,4 C 78 % 1001,4 hPa 0,0 l/m 21,3 km/h (4 Bft) O-NO 60 1 min 0,000 mm 3,3 UV-I 662 W/m 19,3 C 20,4 C 27,4 km/h (4 Bft) 95,65 %
29.05.2016 16:08 23,5 C 76 % 1001,4 hPa 0,0 l/m 21,9 km/h (4 Bft) N-NO 28 1 min 0,000 mm 3,3 UV-I 662 W/m 19,0 C 20,5 C 30,6 km/h (5 Bft) 96,30 %
29.05.2016 16:09 23,5 C 76 % 1001,4 hPa 0,0 l/m 23,1 km/h (4 Bft) O-NO 74 1 min 0,000 mm 3,2 UV-I 632 W/m 19,0 C 20,3 C 29,0 km/h (5 Bft) 100,00 %
29.05.2016 16:10 23,5 C 76 % 1001,4 hPa 0,0 l/m 22,8 km/h (4 Bft) O 80 1 min 0,000 mm 3,1 UV-I 630 W/m 19,0 C 20,4 C 25,7 km/h (4 Bft) 100,00 %
29.05.2016 16:11 23,5 C 76 % 1001,4 hPa 0,0 l/m 21,5 km/h (4 Bft) O 101 1 min 0,000 mm 3,2 UV-I 658 W/m 19,0 C 20,5 C 27,4 km/h (4 Bft) 100,00 %
29.05.2016 16:12 23,4 C 77 % 1001,3 hPa 0,0 l/m 20,8 km/h (4 Bft) O-NO 63 1 min 0,000 mm 3,2 UV-I 680 W/m 19,1 C 20,5 C 29,0 km/h (5 Bft) 100,00 %
29.05.2016 16:13 23,5 C 77 % 1001,3 hPa 0,0 l/m 13,3 km/h (3 Bft) O-NO 65 1 min 0,000 mm 3,2 UV-I 683 W/m 19,2 C 21,8 C 20,9 km/h (4 Bft) 100,00 %
29.05.2016 16:14 23,6 C 77 % 1001,3 hPa 0,0 l/m 20,5 km/h (4 Bft) O-NO 76 1 min 0,000 mm 3,2 UV-I 678 W/m 19,3 C 20,8 C 27,4 km/h (4 Bft) 100,00 %
29.05.2016 16:15 23,7 C 77 % 1001,3 hPa 0,0 l/m 14,6 km/h (3 Bft) O-NO 76 1 min 0,000 mm 3,2 UV-I 682 W/m 19,4 C 21,8 C 20,9 km/h (4 Bft) 100,00 %
29.05.2016 16:16 23,7 C 78 % 1001,3 hPa 0,0 l/m 8,6 km/h (2 Bft) NO 39 1 min 0,000 mm 3,1 UV-I 647 W/m 19,6 C 23,1 C 16,1 km/h (3 Bft) 100,00 %
29.05.2016 16:17 23,8 C 78 % 1001,3 hPa 0,0 l/m 15,5 km/h (3 Bft) NO 48 1 min 0,000 mm 3,1 UV-I 656 W/m 19,7 C 21,8 C 19,3 km/h (3 Bft) 100,00 %
29.05.2016 16:18 23,8 C 77 % 1001,3 hPa 0,0 l/m 19,9 km/h (4 Bft) O-NO 67 1 min 0,000 mm 3,0 UV-I 650 W/m 19,5 C 21,1 C 25,7 km/h (4 Bft) 100,00 %
29.05.2016 16:19 23,8 C 77 % 1001,3 hPa 0,0 l/m 19,4 km/h (3 Bft) NO 47 1 min 0,000 mm 3,0 UV-I 608 W/m 19,5 C 21,2 C 25,7 km/h (4 Bft) 100,00 %
29.05.2016 16:20 23,8 C 76 % 1001,3 hPa 0,0 l/m 22,2 km/h (4 Bft) O-NO 59 1 min 0,000 mm 3,0 UV-I 638 W/m 19,3 C 20,8 C 27,4 km/h (4 Bft) 100,00 %
29.05.2016 16:21 23,8 C 76 % 1001,3 hPa 0,0 l/m 19,4 km/h (3 Bft) O-NO 72 1 min 0,000 mm 3,1 UV-I 681 W/m 19,3 C 21,2 C 24,1 km/h (4 Bft) 100,00 %
29.05.2016 16:22 23,8 C 76 % 1001,2 hPa 0,0 l/m 17,0 km/h (3 Bft) NO 51 1 min 0,000 mm 3,1 UV-I 674 W/m 19,3 C 21,5 C 24,1 km/h (4 Bft) 100,00 %
29.05.2016 16:23 23,8 C 78 % 1001,2 hPa 0,0 l/m 19,2 km/h (3 Bft) O-NO 67 1 min 0,000 mm 3,0 UV-I 648 W/m 19,7 C 21,2 C 24,1 km/h (4 Bft) 100,00 %
29.05.2016 16:24 23,8 C 75 % 1001,2 hPa 0,0 l/m 20,8 km/h (4 Bft) NO 48 1 min 0,000 mm 3,0 UV-I 661 W/m 19,1 C 21,0 C 25,7 km/h (4 Bft) 100,00 %
29.05.2016 16:25 23,9 C 77 % 1001,1 hPa 0,0 l/m 15,6 km/h (3 Bft) O-NO 71 1 min 0,000 mm 2,9 UV-I 671 W/m 19,6 C 21,9 C 19,3 km/h (3 Bft) 100,00 %
29.05.2016 16:26 23,9 C 77 % 1001,1 hPa 0,0 l/m 16,9 km/h (3 Bft) NO 46 1 min 0,000 mm 2,9 UV-I 664 W/m 19,6 C 21,7 C 22,5 km/h (4 Bft) 100,00 %
29.05.2016 16:27 23,9 C 76 % 1001,1 hPa 0,0 l/m 19,7 km/h (3 Bft) O-NO 76 1 min 0,000 mm 2,9 UV-I 657 W/m 19,4 C 21,3 C 25,7 km/h (4 Bft) 100,00 %
29.05.2016 16:28 23,9 C 77 % 1001,0 hPa 0,0 l/m 19,3 km/h (3 Bft) O-NO 70 1 min 0,000 mm 2,8 UV-I 634 W/m 19,6 C 21,3 C 24,1 km/h (4 Bft) 95,65 %
29.05.2016 16:29 23,9 C 76 % 1001,0 hPa 0,0 l/m 17,3 km/h (3 Bft) O-NO 65 1 min 0,000 mm 2,7 UV-I 600 W/m 19,4 C 21,6 C 22,5 km/h (4 Bft) 100,00 %
29.05.2016 16:30 23,9 C 76 % 1001,1 hPa 0,0 l/m 18,4 km/h (3 Bft) O-NO 66 1 min 0,000 mm 2,7 UV-I 575 W/m 19,4 C 21,5 C 25,7 km/h (4 Bft) 100,00 %
29.05.2016 16:31 23,9 C 76 % 1001,0 hPa 0,0 l/m 19,5 km/h (3 Bft) NO 42 1 min 0,000 mm 2,6 UV-I 546 W/m 19,4 C 21,3 C 25,7 km/h (4 Bft) 100,00 %
29.05.2016 16:32 23,9 C 76 % 1000,9 hPa 0,0 l/m 19,9 km/h (4 Bft) O-NO 61 1 min 0,000 mm 2,6 UV-I 578 W/m 19,4 C 21,3 C 29,0 km/h (5 Bft) 100,00 %
29.05.2016 16:33 23,9 C 76 % 1001,0 hPa 0,0 l/m 14,3 km/h (3 Bft) NO 50 1 min 0,000 mm 2,6 UV-I 577 W/m 19,4 C 22,1 C 20,9 km/h (4 Bft) 100,00 %
29.05.2016 16:34 23,9 C 77 % 1000,9 hPa 0,0 l/m 11,0 km/h (2 Bft) NO 37 1 min 0,000 mm 2,5 UV-I 534 W/m 19,6 C 22,7 C 20,9 km/h (4 Bft) 100,00 %
29.05.2016 16:35 24,0 C 77 % 1000,9 hPa 0,0 l/m 10,8 km/h (2 Bft) NO 51 1 min 0,000 mm 2,3 UV-I 492 W/m 19,7 C 22,9 C 20,9 km/h (4 Bft) 100,00 %
29.05.2016 16:36 24,1 C 78 % 1000,9 hPa 0,0 l/m 16,2 km/h (3 Bft) O 82 1 min 0,000 mm 2,3 UV-I 498 W/m 20,0 C 22,0 C 24,1 km/h (4 Bft) 100,00 %
29.05.2016 16:37 24,1 C 78 % 1000,9 hPa 0,0 l/m 14,6 km/h (3 Bft) O 80 1 min 0,000 mm 2,5 UV-I 540 W/m 20,0 C 22,3 C 17,7 km/h (3 Bft) 100,00 %
29.05.2016 16:38 24,1 C 77 % 1001,0 hPa 0,0 l/m 20,0 km/h (4 Bft) NO 50 1 min 0,000 mm 2,5 UV-I 545 W/m 19,8 C 21,5 C 24,1 km/h (4 Bft) 100,00 %
29.05.2016 16:39 24,1 C 77 % 1001,0 hPa 0,0 l/m 20,6 km/h (4 Bft) O 91 1 min 0,000 mm 2,5 UV-I 555 W/m 19,8 C 21,4 C 27,4 km/h (4 Bft) 100,00 %
29.05.2016 16:40 24,1 C 77 % 1001,0 hPa 0,0 l/m 20,8 km/h (4 Bft) NO 50 1 min 0,000 mm 2,5 UV-I 548 W/m 19,8 C 21,4 C 27,4 km/h (4 Bft) 100,00 %
29.05.2016 16:41 24,1 C 77 % 1000,9 hPa 0,0 l/m 17,5 km/h (3 Bft) NO 50 1 min 0,000 mm 2,4 UV-I 532 W/m 19,8 C 21,8 C 25,7 km/h (4 Bft) 100,00 %
29.05.2016 16:42 24,1 C 76 % 1000,9 hPa 0,0 l/m 24,3 km/h (4 Bft) O-NO 61 1 min 0,000 mm 2,4 UV-I 527 W/m 19,6 C 21,0 C 32,2 km/h (5 Bft) 100,00 %
29.05.2016 16:43 24,1 C 74 % 1000,9 hPa 0,0 l/m 26,7 km/h (4 Bft) NO 36 1 min 0,000 mm 2,4 UV-I 561 W/m 19,2 C 20,8 C 30,6 km/h (5 Bft) 100,00 %
29.05.2016 16:44 24,0 C 74 % 1000,9 hPa 0,0 l/m 27,8 km/h (4 Bft) NO 44 1 min 0,000 mm 2,4 UV-I 576 W/m 19,1 C 20,5 C 33,8 km/h (5 Bft) 100,00 %
29.05.2016 16:45 24,0 C 75 % 1000,8 hPa 0,0 l/m 26,6 km/h (4 Bft) O-NO 67 1 min 0,000 mm 2,5 UV-I 614 W/m 19,3 C 20,6 C 32,2 km/h (5 Bft) 91,30 %
29.05.2016 16:46 23,9 C 75 % 1000,8 hPa 0,0 l/m 24,0 km/h (4 Bft) O-NO 59 1 min 0,000 mm 2,5 UV-I 608 W/m 19,2 C 20,8 C 35,4 km/h (5 Bft) 100,00 %
29.05.2016 16:47 23,9 C 75 % 1000,8 hPa 0,0 l/m 26,6 km/h (4 Bft) O-NO 58 1 min 0,000 mm 2,4 UV-I 598 W/m 19,2 C 20,5 C 33,8 km/h (5 Bft) 100,00 %
29.05.2016 16:48 23,9 C 76 % 1000,9 hPa 0,0 l/m 29,6 km/h (5 Bft) O-NO 58 1 min 0,000 mm 2,4 UV-I 590 W/m 19,4 C 20,2 C 37,0 km/h (5 Bft) 100,00 %
29.05.2016 16:49 23,9 C 76 % 1000,9 hPa 0,0 l/m 28,3 km/h (4 Bft) O 81 1 min 0,000 mm 2,4 UV-I 591 W/m 19,4 C 20,4 C 35,4 km/h (5 Bft) 100,00 %
29.05.2016 16:50 23,9 C 76 % 1000,9 hPa 0,0 l/m 19,4 km/h (3 Bft) O-NO 61 1 min 0,000 mm 2,3 UV-I 549 W/m 19,4 C 21,3 C 30,6 km/h (5 Bft) 100,00 %
29.05.2016 16:51 23,9 C 76 % 1000,8 hPa 0,0 l/m 17,5 km/h (3 Bft) O-NO 69 1 min 0,000 mm 2,2 UV-I 531 W/m 19,4 C 21,6 C 24,1 km/h (4 Bft) 100,00 %
29.05.2016 16:52 23,9 C 76 % 1000,8 hPa 0,0 l/m 18,2 km/h (3 Bft) NO 39 1 min 0,000 mm 2,0 UV-I 433 W/m 19,4 C 21,5 C 25,7 km/h (4 Bft) 95,65 %
29.05.2016 16:53 23,9 C 76 % 1000,7 hPa 0,0 l/m 18,8 km/h (3 Bft) NO 51 1 min 0,000 mm 2,0 UV-I 438 W/m 19,4 C 21,4 C 24,1 km/h (4 Bft) 100,00 %
29.05.2016 16:54 23,9 C 77 % 1000,7 hPa 0,0 l/m 16,0 km/h (3 Bft) N-NO 18 1 min 0,000 mm 2,0 UV-I 450 W/m 19,6 C 21,8 C 20,9 km/h (4 Bft) 95,65 %
29.05.2016 16:55 23,9 C 77 % 1000,7 hPa 0,0 l/m 19,0 km/h (3 Bft) O-NO 76 1 min 0,000 mm 1,8 UV-I 436 W/m 19,6 C 21,4 C 25,7 km/h (4 Bft) 100,00 %
29.05.2016 16:56 23,8 C 76 % 1000,7 hPa 0,0 l/m 20,0 km/h (4 Bft) N-NO 33 1 min 0,000 mm 1,8 UV-I 437 W/m 19,3 C 21,1 C 25,7 km/h (4 Bft) 95,65 %
29.05.2016 16:57 23,8 C 76 % 1000,8 hPa 0,0 l/m 21,9 km/h (4 Bft) O-NO 75 1 min 0,000 mm 1,9 UV-I 448 W/m 19,3 C 20,9 C 30,6 km/h (5 Bft) 96,30 %
29.05.2016 16:58 23,8 C 76 % 1000,8 hPa 0,0 l/m 21,9 km/h (4 Bft) O 94 1 min 0,000 mm 1,8 UV-I 388 W/m 19,3 C 20,9 C 30,6 km/h (5 Bft) 100,00 %
29.05.2016 16:59 23,8 C 75 % 1000,8 hPa 0,0 l/m 22,3 km/h (4 Bft) O-NO 62 1 min 0,000 mm 1,7 UV-I 344 W/m 19,1 C 20,8 C 29,0 km/h (5 Bft) 100,00 %
29.05.2016 17:00 23,8 C 76 % 1000,8 hPa 0,0 l/m 22,6 km/h (4 Bft) NO 38 1 min 0,000 mm 1,6 UV-I 371 W/m 19,3 C 20,8 C 29,0 km/h (5 Bft) 100,00 %
29.05.2016 17:02 23,7 C 77 % 1000,8 hPa 0,0 l/m 16,2 km/h (3 Bft) O-NO 59 0 min 0,432 mm 1,6 UV-I 307 W/m 19,4 C 21,5 C 30,6 km/h (5 Bft) 97,56 %
29.05.2016 17:03 23,7 C 77 % 1000,9 hPa 0,0 l/m 18,8 km/h (3 Bft) NO 43 0 min 0,000 mm 1,5 UV-I 295 W/m 19,4 C 21,1 C 25,7 km/h (4 Bft) 100,00 %
29.05.2016 17:04 23,7 C 76 % 1000,8 hPa 0,0 l/m 18,6 km/h (3 Bft) O-NO 68 1 min 0,000 mm 1,6 UV-I 324 W/m 19,2 C 21,2 C 25,7 km/h (4 Bft) 100,00 %
29.05.2016 17:05 23,7 C 77 % 1000,8 hPa 0,0 l/m 25,1 km/h (4 Bft) O-NO 72 1 min 0,000 mm 1,5 UV-I 313 W/m 19,4 C 20,4 C 35,4 km/h (5 Bft) 100,00 %
29.05.2016 17:06 23,7 C 76 % 1000,9 hPa 0,0 l/m 23,9 km/h (4 Bft) O-NO 57 0 min 0,000 mm 1,5 UV-I 303 W/m 19,2 C 20,5 C 30,6 km/h (5 Bft) 100,00 %
29.05.2016 17:07 23,7 C 76 % 1000,7 hPa 0,0 l/m 20,8 km/h (4 Bft) O-NO 76 1 min 0,000 mm 1,5 UV-I 327 W/m 19,2 C 20,9 C 27,4 km/h (4 Bft) 100,00 %
29.05.2016 17:08 23,7 C 77 % 1000,8 hPa 0,0 l/m 18,3 km/h (3 Bft) O-NO 76 1 min 0,000 mm 1,6 UV-I 362 W/m 19,4 C 21,2 C 24,1 km/h (4 Bft) 100,00 %
29.05.2016 17:09 23,7 C 77 % 1000,9 hPa 0,0 l/m 19,6 km/h (3 Bft) O-NO 59 1 min 0,000 mm 1,7 UV-I 414 W/m 19,4 C 21,0 C 32,2 km/h (5 Bft) 100,00 %
29.05.2016 17:10 23,7 C 77 % 1000,7 hPa 0,0 l/m 20,7 km/h (4 Bft) O-NO 73 1 min 0,000 mm 1,6 UV-I 412 W/m 19,4 C 20,9 C 25,7 km/h (4 Bft) 100,00 %
29.05.2016 17:11 23,7 C 77 % 1000,8 hPa 0,0 l/m 22,8 km/h (4 Bft) O-NO 68 1 min 0,000 mm 1,6 UV-I 415 W/m 19,4 C 20,6 C 27,4 km/h (4 Bft) 100,00 %
29.05.2016 17:12 23,7 C 78 % 1000,7 hPa 0,0 l/m 18,9 km/h (3 Bft) O 79 1 min 0,000 mm 1,6 UV-I 430 W/m 19,6 C 21,1 C 22,5 km/h (4 Bft) 100,00 %
29.05.2016 17:13 23,7 C 78 % 1000,6 hPa 0,0 l/m 22,3 km/h (4 Bft) O-NO 69 1 min 0,000 mm 1,6 UV-I 426 W/m 19,6 C 20,7 C 27,4 km/h (4 Bft) 95,65 %
29.05.2016 17:14 23,7 C 77 % 1000,6 hPa 0,0 l/m 22,3 km/h (4 Bft) O-NO 59 1 min 0,000 mm 1,6 UV-I 440 W/m 19,4 C 20,7 C 29,0 km/h (5 Bft) 100,00 %
29.05.2016 17:15 23,7 C 77 % 1000,6 hPa 0,0 l/m 21,6 km/h (4 Bft) O-NO 75 1 min 0,000 mm 1,6 UV-I 464 W/m 19,4 C 20,8 C 29,0 km/h (5 Bft) 100,00 %
29.05.2016 17:16 23,7 C 77 % 1000,6 hPa 0,0 l/m 26,0 km/h (4 Bft) NO 52 1 min 0,000 mm 1,6 UV-I 441 W/m 19,4 C 20,3 C 33,8 km/h (5 Bft) 100,00 %
29.05.2016 17:17 23,8 C 76 % 1000,6 hPa 0,0 l/m 19,8 km/h (3 Bft) NO 47 1 min 0,000 mm 1,6 UV-I 418 W/m 19,3 C 21,1 C 29,0 km/h (5 Bft) 100,00 %
29.05.2016 17:18 23,8 C 77 % 1000,6 hPa 0,0 l/m 19,8 km/h (3 Bft) O-NO 73 1 min 0,000 mm 1,6 UV-I 421 W/m 19,5 C 21,1 C 22,5 km/h (4 Bft) 95,83 %
29.05.2016 17:19 23,8 C 78 % 1000,7 hPa 0,0 l/m 16,7 km/h (3 Bft) NO 51 1 min 0,000 mm 1,6 UV-I 427 W/m 19,7 C 21,6 C 25,7 km/h (4 Bft) 95,65 %
29.05.2016 17:20 23,8 C 78 % 1000,6 hPa 0,0 l/m 14,8 km/h (3 Bft) O-NO 69 1 min 0,000 mm 1,5 UV-I 426 W/m 19,7 C 21,9 C 17,7 km/h (3 Bft) 100,00 %
29.05.2016 17:21 23,8 C 78 % 1000,6 hPa 0,0 l/m 14,1 km/h (3 Bft) O 91 1 min 0,000 mm 1,5 UV-I 409 W/m 19,7 C 22,0 C 17,7 km/h (3 Bft) 95,65 %
29.05.2016 17:22 23,9 C 78 % 1000,5 hPa 0,0 l/m 16,5 km/h (3 Bft) NO 55 1 min 0,000 mm 1,5 UV-I 418 W/m 19,8 C 21,7 C 22,5 km/h (4 Bft) 95,83 %
29.05.2016 17:23 23,9 C 77 % 1000,6 hPa 0,0 l/m 18,8 km/h (3 Bft) O-NO 57 1 min 0,000 mm 1,5 UV-I 434 W/m 19,6 C 21,4 C 25,7 km/h (4 Bft) 100,00 %
29.05.2016 17:24 23,9 C 77 % 1000,6 hPa 0,0 l/m 17,6 km/h (3 Bft) O 88 1 min 0,000 mm 1,5 UV-I 443 W/m 19,6 C 21,6 C 33,8 km/h (5 Bft) 91,67 %
29.05.2016 17:25 23,9 C 76 % 1000,8 hPa 0,0 l/m 21,8 km/h (4 Bft) NO 46 1 min 0,000 mm 1,5 UV-I 441 W/m 19,4 C 21,0 C 27,4 km/h (4 Bft) 95,65 %
29.05.2016 17:26 23,9 C 76 % 1000,5 hPa 0,0 l/m 18,1 km/h (3 Bft) NO 55 1 min 0,000 mm 1,4 UV-I 386 W/m 19,4 C 21,5 C 24,1 km/h (4 Bft) 96,30 %
29.05.2016 17:27 23,9 C 77 % 1000,5 hPa 0,0 l/m 17,9 km/h (3 Bft) NO 53 1 min 0,000 mm 1,4 UV-I 394 W/m 19,6 C 21,5 C 24,1 km/h (4 Bft) 91,30 %
29.05.2016 17:28 23,9 C 77 % 1000,5 hPa 0,0 l/m 22,3 km/h (4 Bft) O 79 1 min 0,000 mm 1,4 UV-I 396 W/m 19,6 C 21,0 C 27,4 km/h (4 Bft) 95,83 %
29.05.2016 17:29 23,9 C 76 % 1000,4 hPa 0,0 l/m 23,2 km/h (4 Bft) O 92 1 min 0,000 mm 1,3 UV-I 376 W/m 19,4 C 20,9 C 33,8 km/h (5 Bft) 91,30 %
29.05.2016 17:30 23,8 C 76 % 1000,4 hPa 0,0 l/m 22,4 km/h (4 Bft) O-NO 63 1 min 0,000 mm 1,3 UV-I 364 W/m 19,3 C 20,8 C 32,2 km/h (5 Bft) 95,83 %
29.05.2016 17:31 23,8 C 77 % 1000,4 hPa 0,0 l/m 20,9 km/h (4 Bft) O-NO 76 1 min 0,000 mm 1,3 UV-I 340 W/m 19,5 C 21,0 C 27,4 km/h (4 Bft) 100,00 %
29.05.2016 17:32 23,8 C 76 % 1000,4 hPa 0,0 l/m 26,8 km/h (4 Bft) O 79 1 min 0,000 mm 1,2 UV-I 300 W/m 19,3 C 20,4 C 35,4 km/h (5 Bft) 92,31 %
29.05.2016 17:33 23,7 C 76 % 1000,4 hPa 0,0 l/m 24,5 km/h (4 Bft) NO 53 1 min 0,000 mm 1,2 UV-I 276 W/m 19,2 C 20,5 C 33,8 km/h (5 Bft) 95,83 %
29.05.2016 17:34 23,7 C 76 % 1000,4 hPa 0,0 l/m 23,3 km/h (4 Bft) O-NO 62 1 min 0,000 mm 1,2 UV-I 274 W/m 19,2 C 20,6 C 35,4 km/h (5 Bft) 100,00 %
29.05.2016 17:35 23,7 C 76 % 1000,3 hPa 0,0 l/m 22,1 km/h (4 Bft) O-NO 71 1 min 0,000 mm 1,1 UV-I 273 W/m 19,2 C 20,7 C 30,6 km/h (5 Bft) 95,83 %
29.05.2016 17:36 23,6 C 77 % 1000,3 hPa 0,0 l/m 17,4 km/h (3 Bft) O-NO 65 1 min 0,000 mm 1,1 UV-I 286 W/m 19,3 C 21,2 C 24,1 km/h (4 Bft) 100,00 %
29.05.2016 17:37 23,6 C 77 % 1000,4 hPa 0,0 l/m 21,3 km/h (4 Bft) O 85 1 min 0,000 mm 1,2 UV-I 314 W/m 19,3 C 20,7 C 25,7 km/h (4 Bft) 95,83 %
29.05.2016 17:38 23,6 C 76 % 1000,4 hPa 0,0 l/m 23,2 km/h (4 Bft) O-NO 61 1 min 0,000 mm 1,2 UV-I 324 W/m 19,1 C 20,5 C 30,6 km/h (5 Bft) 100,00 %
29.05.2016 17:39 23,6 C 77 % 1000,4 hPa 0,0 l/m 21,1 km/h (4 Bft) O-NO 65 1 min 0,000 mm 1,2 UV-I 325 W/m 19,3 C 20,7 C 24,1 km/h (4 Bft) 96,30 %
29.05.2016 17:40 23,6 C 77 % 1000,3 hPa 0,0 l/m 19,6 km/h (3 Bft) O-NO 65 1 min 0,000 mm 1,2 UV-I 329 W/m 19,3 C 20,9 C 25,7 km/h (4 Bft) 95,65 %
29.05.2016 17:41 23,6 C 78 % 1000,3 hPa 0,0 l/m 18,3 km/h (3 Bft) O 82 1 min 0,000 mm 1,2 UV-I 332 W/m 19,5 C 21,1 C 25,7 km/h (4 Bft) 100,00 %
29.05.2016 17:42 23,6 C 77 % 1000,4 hPa 0,0 l/m 21,3 km/h (4 Bft) O-NO 76 1 min 0,000 mm 1,2 UV-I 336 W/m 19,3 C 20,7 C 27,4 km/h (4 Bft) 95,65 %
29.05.2016 17:43 23,6 C 77 % 1000,4 hPa 0,0 l/m 17,0 km/h (3 Bft) O-NO 63 1 min 0,000 mm 1,1 UV-I 329 W/m 19,3 C 21,3 C 24,1 km/h (4 Bft) 100,00 %
29.05.2016 17:44 23,6 C 79 % 1000,3 hPa 0,0 l/m 12,9 km/h (3 Bft) O 80 1 min 0,000 mm 1,1 UV-I 322 W/m 19,7 C 22,0 C 22,5 km/h (4 Bft) 95,65 %
29.05.2016 17:45 23,6 C 78 % 1000,3 hPa 0,0 l/m 20,4 km/h (4 Bft) O 101 1 min 0,000 mm 1,1 UV-I 334 W/m 19,5 C 20,8 C 25,7 km/h (4 Bft) 100,00 %
29.05.2016 17:46 23,7 C 78 % 1000,4 hPa 0,0 l/m 16,0 km/h (3 Bft) O 82 1 min 0,000 mm 1,1 UV-I 344 W/m 19,6 C 21,6 C 22,5 km/h (4 Bft) 93,33 %
29.05.2016 17:47 23,7 C 77 % 1000,3 hPa 0,0 l/m 24,5 km/h (4 Bft) O-NO 76 1 min 0,000 mm 1,2 UV-I 379 W/m 19,4 C 20,5 C 32,2 km/h (5 Bft) 100,00 %
29.05.2016 17:48 23,7 C 77 % 1000,5 hPa 0,0 l/m 20,6 km/h (4 Bft) O-NO 74 1 min 0,000 mm 1,2 UV-I 408 W/m 19,4 C 20,9 C 30,6 km/h (5 Bft) 95,65 %
29.05.2016 17:49 23,7 C 77 % 1000,3 hPa 0,0 l/m 23,9 km/h (4 Bft) NO 38 1 min 0,000 mm 1,2 UV-I 426 W/m 19,4 C 20,5 C 29,0 km/h (5 Bft) 91,67 %
29.05.2016 17:50 23,7 C 77 % 1000,2 hPa 0,0 l/m 18,0 km/h (3 Bft) NO 41 1 min 0,000 mm 1,2 UV-I 442 W/m 19,4 C 21,3 C 24,1 km/h (4 Bft) 100,00 %
29.05.2016 17:51 23,8 C 78 % 1000,2 hPa 0,0 l/m 13,9 km/h (3 Bft) O 80 1 min 0,000 mm 1,2 UV-I 435 W/m 19,7 C 22,0 C 19,3 km/h (3 Bft) 95,65 %
29.05.2016 17:52 23,8 C 79 % 1000,2 hPa 0,0 l/m 16,9 km/h (3 Bft) O-NO 72 1 min 0,000 mm 1,1 UV-I 409 W/m 19,9 C 21,6 C 24,1 km/h (4 Bft) 100,00 %
29.05.2016 17:53 23,8 C 79 % 1000,1 hPa 0,0 l/m 16,5 km/h (3 Bft) NO 55 1 min 0,000 mm 1,0 UV-I 384 W/m 19,9 C 21,6 C 22,5 km/h (4 Bft) 95,65 %
29.05.2016 17:54 23,9 C 79 % 1000,2 hPa 0,0 l/m 19,7 km/h (3 Bft) O-NO 61 1 min 0,000 mm 1,0 UV-I 335 W/m 20,0 C 21,3 C 25,7 km/h (4 Bft) 100,00 %
29.05.2016 17:55 23,9 C 78 % 1000,2 hPa 0,0 l/m 25,1 km/h (4 Bft) NO 53 1 min 0,000 mm 0,9 UV-I 275 W/m 19,8 C 20,7 C 33,8 km/h (5 Bft) 100,00 %
29.05.2016 17:56 23,9 C 76 % 1000,3 hPa 0,0 l/m 26,3 km/h (4 Bft) O-NO 61 1 min 0,000 mm 0,9 UV-I 264 W/m 19,4 C 20,5 C 37,0 km/h (5 Bft) 100,00 %
29.05.2016 17:57 23,9 C 76 % 1000,2 hPa 0,0 l/m 24,3 km/h (4 Bft) O-NO 58 0 min 0,000 mm 0,8 UV-I 233 W/m 19,4 C 20,7 C 30,6 km/h (5 Bft) 100,00 %
29.05.2016 17:58 23,8 C 76 % 1000,2 hPa 0,0 l/m 25,2 km/h (4 Bft) NO 56 0 min 0,000 mm 0,8 UV-I 194 W/m 19,3 C 20,5 C 32,2 km/h (5 Bft) 100,00 %
29.05.2016 17:59 23,8 C 75 % 1000,2 hPa 0,0 l/m 24,7 km/h (4 Bft) O 79 0 min 0,000 mm 0,7 UV-I 179 W/m 19,1 C 20,6 C 37,0 km/h (5 Bft) 95,65 %
29.05.2016 18:00 23,8 C 75 % 1000,3 hPa 0,0 l/m 26,4 km/h (4 Bft) O-NO 69 0 min 0,000 mm 0,7 UV-I 172 W/m 19,1 C 20,4 C 33,8 km/h (5 Bft) 100,00 %
29.05.2016 18:02 23,7 C 76 % 1000,2 hPa 0,0 l/m 22,6 km/h (4 Bft) O-NO 57 0 min 0,280 mm 0,7 UV-I 170 W/m 19,2 C 20,7 C 30,6 km/h (5 Bft) 93,62 %
29.05.2016 18:03 23,6 C 76 % 1000,1 hPa 0,0 l/m 16,6 km/h (3 Bft) NO 46 0 min 0,000 mm 0,7 UV-I 168 W/m 19,1 C 21,3 C 24,1 km/h (4 Bft) 100,00 %
29.05.2016 18:04 23,5 C 77 % 1000,1 hPa 0,0 l/m 18,5 km/h (3 Bft) O-NO 60 0 min 0,000 mm 0,7 UV-I 167 W/m 19,2 C 20,9 C 24,1 km/h (4 Bft) 100,00 %
29.05.2016 18:05 23,4 C 76 % 1000,1 hPa 0,0 l/m 29,3 km/h (5 Bft) NO 51 0 min 0,000 mm 0,7 UV-I 167 W/m 18,9 C 19,6 C 35,4 km/h (5 Bft) 96,15 %
29.05.2016 18:06 23,4 C 77 % 1000,2 hPa 0,0 l/m 20,6 km/h (4 Bft) O 79 0 min 0,000 mm 0,6 UV-I 165 W/m 19,1 C 20,5 C 30,6 km/h (5 Bft) 100,00 %
29.05.2016 18:07 23,4 C 77 % 1000,2 hPa 0,0 l/m 23,4 km/h (4 Bft) O 85 0 min 0,000 mm 0,6 UV-I 162 W/m 19,1 C 20,2 C 29,0 km/h (5 Bft) 92,86 %
29.05.2016 18:08 23,3 C 77 % 1000,1 hPa 0,0 l/m 16,8 km/h (3 Bft) O-NO 76 0 min 0,000 mm 0,6 UV-I 159 W/m 19,0 C 20,9 C 20,9 km/h (4 Bft) 100,00 %
29.05.2016 18:09 23,3 C 78 % 1000,1 hPa 0,0 l/m 19,4 km/h (3 Bft) O-NO 72 0 min 0,000 mm 0,6 UV-I 156 W/m 19,2 C 20,6 C 24,1 km/h (4 Bft) 100,00 %
29.05.2016 18:10 23,3 C 77 % 1000,1 hPa 0,0 l/m 20,1 km/h (4 Bft) O-NO 77 0 min 0,000 mm 0,6 UV-I 132 W/m 19,0 C 20,5 C 29,0 km/h (5 Bft) 100,00 %
29.05.2016 18:11 23,3 C 78 % 1000,2 hPa 0,0 l/m 20,0 km/h (4 Bft) NO 56 0 min 0,000 mm 0,5 UV-I 112 W/m 19,2 C 20,5 C 25,7 km/h (4 Bft) 100,00 %
29.05.2016 18:12 23,3 C 77 % 1000,1 hPa 0,0 l/m 22,1 km/h (4 Bft) O-NO 68 0 min 0,000 mm 0,5 UV-I 105 W/m 19,0 C 20,2 C 27,4 km/h (4 Bft) 95,65 %
29.05.2016 18:13 23,3 C 77 % 1000,1 hPa 0,0 l/m 20,4 km/h (4 Bft) O-NO 65 0 min 0,000 mm 0,0 UV-I 97 W/m 19,0 C 20,4 C 27,4 km/h (4 Bft) 100,00 %
29.05.2016 18:14 23,3 C 77 % 1000,1 hPa 0,0 l/m 18,1 km/h (3 Bft) O 80 0 min 0,000 mm 0,0 UV-I 100 W/m 19,0 C 20,7 C 22,5 km/h (4 Bft) 95,65 %
29.05.2016 18:15 23,2 C 78 % 1000,2 hPa 0,0 l/m 15,4 km/h (3 Bft) O-NO 63 0 min 0,000 mm 0,0 UV-I 106 W/m 19,1 C 21,1 C 17,7 km/h (3 Bft) 100,00 %
29.05.2016 18:16 23,2 C 78 % 1000,1 hPa 0,0 l/m 22,7 km/h (4 Bft) O-NO 63 0 min 0,000 mm 0,0 UV-I 100 W/m 19,1 C 20,0 C 27,4 km/h (4 Bft) 100,00 %
29.05.2016 18:17 23,2 C 78 % 1000,2 hPa 0,0 l/m 16,0 km/h (3 Bft) O-NO 73 0 min 0,000 mm 0,0 UV-I 94 W/m 19,1 C 21,0 C 22,5 km/h (4 Bft) 100,00 %
29.05.2016 18:18 23,2 C 79 % 1000,2 hPa 0,0 l/m 15,6 km/h (3 Bft) O-NO 65 0 min 0,000 mm 0,0 UV-I 75 W/m 19,3 C 21,0 C 24,1 km/h (4 Bft) 92,86 %
29.05.2016 18:19 23,2 C 78 % 1000,2 hPa 0,0 l/m 19,8 km/h (3 Bft) O-NO 74 0 min 0,000 mm 0,0 UV-I 71 W/m 19,1 C 20,4 C 33,8 km/h (5 Bft) 100,00 %
29.05.2016 18:20 23,2 C 78 % 1000,2 hPa 0,0 l/m 21,1 km/h (4 Bft) O-NO 69 0 min 0,000 mm 0,0 UV-I 73 W/m 19,1 C 20,2 C 27,4 km/h (4 Bft) 100,00 %
29.05.2016 18:21 23,2 C 78 % 1000,2 hPa 0,0 l/m 23,1 km/h (4 Bft) O-NO 76 0 min 0,000 mm 0,0 UV-I 78 W/m 19,1 C 19,9 C 27,4 km/h (4 Bft) 95,83 %
29.05.2016 18:22 23,2 C 78 % 1000,2 hPa 0,0 l/m 17,5 km/h (3 Bft) O-NO 61 0 min 0,000 mm 0,0 UV-I 74 W/m 19,1 C 20,7 C 25,7 km/h (4 Bft) 100,00 %
29.05.2016 18:23 23,2 C 78 % 1000,1 hPa 0,0 l/m 17,3 km/h (3 Bft) NO 46 0 min 0,000 mm 0,0 UV-I 72 W/m 19,1 C 20,7 C 22,5 km/h (4 Bft) 100,00 %
29.05.2016 18:24 23,1 C 79 % 1000,1 hPa 0,0 l/m 16,4 km/h (3 Bft) O-NO 62 0 min 0,000 mm 0,0 UV-I 70 W/m 19,3 C 20,8 C 22,5 km/h (4 Bft) 95,65 %
29.05.2016 18:25 23,1 C 79 % 1000,1 hPa 0,0 l/m 17,5 km/h (3 Bft) NO 44 0 min 0,000 mm 0,0 UV-I 68 W/m 19,3 C 20,6 C 27,4 km/h (4 Bft) 100,00 %
29.05.2016 18:26 23,1 C 78 % 1000,1 hPa 0,0 l/m 15,2 km/h (3 Bft) NO 54 0 min 0,000 mm 0,0 UV-I 67 W/m 19,0 C 21,0 C 19,3 km/h (3 Bft) 95,65 %
29.05.2016 18:27 23,1 C 79 % 1000,1 hPa 0,0 l/m 16,2 km/h (3 Bft) O-NO 67 0 min 0,000 mm 0,0 UV-I 66 W/m 19,3 C 20,8 C 22,5 km/h (4 Bft) 91,67 %
29.05.2016 18:28 23,1 C 79 % 1000,1 hPa 0,0 l/m 17,7 km/h (3 Bft) O-NO 63 0 min 0,000 mm 0,0 UV-I 65 W/m 19,3 C 20,6 C 27,4 km/h (4 Bft) 100,00 %
29.05.2016 18:29 23,1 C 79 % 1000,2 hPa 0,0 l/m 19,5 km/h (3 Bft) NO 55 0 min 0,000 mm 0,0 UV-I 65 W/m 19,3 C 20,3 C 27,4 km/h (4 Bft) 100,00 %
29.05.2016 18:30 23,1 C 79 % 1000,2 hPa 0,0 l/m 18,5 km/h (3 Bft) NO 52 0 min 0,000 mm 0,0 UV-I 67 W/m 19,3 C 20,4 C 22,5 km/h (4 Bft) 100,00 %
29.05.2016 18:31 23,1 C 79 % 1000,1 hPa 0,0 l/m 16,7 km/h (3 Bft) NO 48 0 min 0,000 mm 0,0 UV-I 69 W/m 19,3 C 20,7 C 25,7 km/h (4 Bft) 95,83 %
29.05.2016 18:32 23,1 C 79 % 1000,1 hPa 0,0 l/m 15,3 km/h (3 Bft) NO 56 0 min 0,000 mm 0,0 UV-I 70 W/m 19,3 C 21,0 C 17,7 km/h (3 Bft) 100,00 %
29.05.2016 18:33 23,1 C 79 % 1000,1 hPa 0,0 l/m 14,7 km/h (3 Bft) O-NO 60 0 min 0,000 mm 0,0 UV-I 70 W/m 19,3 C 21,1 C 20,9 km/h (4 Bft) 100,00 %
29.05.2016 18:34 23,1 C 79 % 1000,1 hPa 0,0 l/m 15,6 km/h (3 Bft) NO 47 0 min 0,000 mm 0,0 UV-I 69 W/m 19,3 C 20,9 C 20,9 km/h (4 Bft) 100,00 %
29.05.2016 18:35 23,1 C 79 % 1000,1 hPa 0,0 l/m 20,4 km/h (4 Bft) O-NO 57 0 min 0,000 mm 0,0 UV-I 69 W/m 19,3 C 20,2 C 25,7 km/h (4 Bft) 95,65 %
29.05.2016 18:36 23,0 C 79 % 1000,1 hPa 0,0 l/m 16,6 km/h (3 Bft) O-NO 64 0 min 0,000 mm 0,0 UV-I 69 W/m 19,2 C 20,6 C 22,5 km/h (4 Bft) 100,00 %
29.05.2016 18:37 23,0 C 79 % 1000,1 hPa 0,0 l/m 19,3 km/h (3 Bft) O-NO 58 0 min 0,000 mm 0,0 UV-I 68 W/m 19,2 C 20,2 C 22,5 km/h (4 Bft) 95,65 %
29.05.2016 18:38 23,0 C 79 % 1000,1 hPa 0,0 l/m 14,5 km/h (3 Bft) NO 55 0 min 0,000 mm 0,0 UV-I 69 W/m 19,2 C 21,0 C 20,9 km/h (4 Bft) 100,00 %
29.05.2016 18:39 23,0 C 79 % 1000,1 hPa 0,0 l/m 15,5 km/h (3 Bft) O 82 0 min 0,000 mm 0,0 UV-I 69 W/m 19,2 C 20,8 C 22,5 km/h (4 Bft) 100,00 %
29.05.2016 18:40 23,0 C 79 % 1000,1 hPa 0,0 l/m 20,5 km/h (4 Bft) NO 53 0 min 0,000 mm 0,0 UV-I 70 W/m 19,2 C 20,0 C 27,4 km/h (4 Bft) 100,00 %
29.05.2016 18:41 23,0 C 79 % 1000,0 hPa 0,0 l/m 20,1 km/h (4 Bft) O-NO 63 0 min 0,000 mm 0,0 UV-I 70 W/m 19,2 C 20,1 C 30,6 km/h (5 Bft) 100,00 %
29.05.2016 18:42 23,0 C 79 % 1000,1 hPa 0,0 l/m 17,1 km/h (3 Bft) O 90 0 min 0,000 mm 0,0 UV-I 72 W/m 19,2 C 20,5 C 22,5 km/h (4 Bft) 95,83 %
29.05.2016 18:43 23,0 C 79 % 1000,1 hPa 0,0 l/m 19,4 km/h (3 Bft) O 86 0 min 0,000 mm 0,0 UV-I 75 W/m 19,2 C 20,2 C 25,7 km/h (4 Bft) 100,00 %
29.05.2016 18:44 23,0 C 79 % 1000,0 hPa 0,0 l/m 17,9 km/h (3 Bft) NO 53 0 min 0,000 mm 0,0 UV-I 76 W/m 19,2 C 20,4 C 24,1 km/h (4 Bft) 95,83 %
29.05.2016 18:45 23,0 C 79 % 1000,0 hPa 0,0 l/m 15,4 km/h (3 Bft) O-NO 64 0 min 0,000 mm 0,0 UV-I 78 W/m 19,2 C 20,8 C 22,5 km/h (4 Bft) 95,65 %
29.05.2016 18:46 23,0 C 79 % 1000,1 hPa 0,0 l/m 19,0 km/h (3 Bft) NO 54 0 min 0,000 mm 0,0 UV-I 80 W/m 19,2 C 20,2 C 24,1 km/h (4 Bft) 100,00 %
29.05.2016 18:47 23,0 C 79 % 1000,0 hPa 0,0 l/m 19,3 km/h (3 Bft) O-NO 76 0 min 0,000 mm 0,0 UV-I 83 W/m 19,2 C 20,2 C 25,7 km/h (4 Bft) 95,83 %
29.05.2016 18:48 23,0 C 78 % 1000,0 hPa 0,0 l/m 17,5 km/h (3 Bft) O-NO 77 0 min 0,000 mm 0,0 UV-I 83 W/m 18,9 C 20,5 C 22,5 km/h (4 Bft) 100,00 %
29.05.2016 18:49 23,1 C 78 % 1000,0 hPa 0,0 l/m 20,7 km/h (4 Bft) O-NO 78 0 min 0,000 mm 0,0 UV-I 82 W/m 19,0 C 20,1 C 32,2 km/h (5 Bft) 100,00 %
29.05.2016 18:50 23,1 C 78 % 1000,0 hPa 0,0 l/m 19,7 km/h (3 Bft) O 80 0 min 0,000 mm 0,0 UV-I 81 W/m 19,0 C 20,3 C 27,4 km/h (4 Bft) 100,00 %
29.05.2016 18:51 23,1 C 78 % 1000,1 hPa 0,0 l/m 18,6 km/h (3 Bft) NO 53 0 min 0,000 mm 0,0 UV-I 81 W/m 19,0 C 20,4 C 24,1 km/h (4 Bft) 100,00 %
29.05.2016 18:52 23,1 C 78 % 1000,0 hPa 0,0 l/m 19,6 km/h (3 Bft) NO 46 0 min 0,000 mm 0,0 UV-I 83 W/m 19,0 C 20,3 C 24,1 km/h (4 Bft) 95,65 %
29.05.2016 18:53 23,1 C 78 % 1000,0 hPa 0,0 l/m 15,0 km/h (3 Bft) NO 55 0 min 0,000 mm 0,0 UV-I 84 W/m 19,0 C 21,0 C 19,3 km/h (3 Bft) 100,00 %
29.05.2016 18:54 23,1 C 78 % 1000,0 hPa 0,0 l/m 16,5 km/h (3 Bft) NO 55 0 min 0,000 mm 0,0 UV-I 86 W/m 19,0 C 20,7 C 20,9 km/h (4 Bft) 100,00 %
29.05.2016 18:55 23,1 C 78 % 1000,0 hPa 0,0 l/m 17,0 km/h (3 Bft) NO 41 0 min 0,000 mm 0,0 UV-I 88 W/m 19,0 C 20,7 C 25,7 km/h (4 Bft) 100,00 %
29.05.2016 18:56 23,1 C 78 % 1000,1 hPa 0,0 l/m 18,4 km/h (3 Bft) O-NO 59 0 min 0,000 mm 0,0 UV-I 90 W/m 19,0 C 20,4 C 24,1 km/h (4 Bft) 91,30 %
29.05.2016 18:57 23,1 C 78 % 1000,0 hPa 0,0 l/m 18,0 km/h (3 Bft) O-NO 71 0 min 0,000 mm 0,0 UV-I 95 W/m 19,0 C 20,5 C 24,1 km/h (4 Bft) 100,00 %
29.05.2016 18:58 23,1 C 79 % 1000,1 hPa 0,0 l/m 12,7 km/h (3 Bft) O-NO 59 0 min 0,000 mm 0,0 UV-I 98 W/m 19,3 C 21,5 C 20,9 km/h (4 Bft) 100,00 %
29.05.2016 18:59 23,1 C 78 % 1000,1 hPa 0,0 l/m 17,8 km/h (3 Bft) O-NO 63 0 min 0,000 mm 0,0 UV-I 98 W/m 19,0 C 20,5 C 24,1 km/h (4 Bft) 100,00 %
29.05.2016 19:00 23,1 C 78 % 1000,1 hPa 0,0 l/m 14,8 km/h (3 Bft) O-NO 60 0 min 0,000 mm 0,0 UV-I 98 W/m 19,0 C 21,0 C 17,7 km/h (3 Bft) 100,00 %
29.05.2016 19:02 23,1 C 78 % 1000,1 hPa 0,0 l/m 17,6 km/h (3 Bft) O-NO 57 0 min 0,127 mm 0,0 UV-I 96 W/m 19,0 C 20,6 C 22,5 km/h (4 Bft) 95,74 %
29.05.2016 19:03 23,1 C 78 % 1000,2 hPa 0,0 l/m 15,0 km/h (3 Bft) O-NO 63 0 min 0,000 mm 0,0 UV-I 94 W/m 19,0 C 21,0 C 19,3 km/h (3 Bft) 95,83 %
29.05.2016 19:04 23,1 C 78 % 1000,1 hPa 0,0 l/m 14,0 km/h (3 Bft) O-NO 77 0 min 0,000 mm 0,0 UV-I 91 W/m 19,0 C 21,2 C 19,3 km/h (3 Bft) 95,65 %
29.05.2016 19:05 23,1 C 78 % 1000,1 hPa 0,0 l/m 12,3 km/h (3 Bft) O-NO 70 0 min 0,000 mm 0,0 UV-I 90 W/m 19,0 C 21,5 C 17,7 km/h (3 Bft) 100,00 %
29.05.2016 19:06 23,0 C 78 % 1000,2 hPa 0,0 l/m 16,4 km/h (3 Bft) O-NO 67 0 min 0,000 mm 0,0 UV-I 88 W/m 18,9 C 20,6 C 22,5 km/h (4 Bft) 100,00 %
29.05.2016 19:07 23,0 C 78 % 1000,1 hPa 0,0 l/m 14,0 km/h (3 Bft) O 100 0 min 0,000 mm 0,0 UV-I 85 W/m 18,9 C 21,1 C 22,5 km/h (4 Bft) 100,00 %
29.05.2016 19:08 23,0 C 79 % 1000,1 hPa 0,0 l/m 12,4 km/h (3 Bft) O 80 0 min 0,000 mm 0,0 UV-I 83 W/m 19,2 C 21,4 C 16,1 km/h (3 Bft) 100,00 %
29.05.2016 19:09 23,0 C 78 % 1000,2 hPa 0,0 l/m 14,2 km/h (3 Bft) O-NO 78 0 min 0,000 mm 0,0 UV-I 81 W/m 18,9 C 21,0 C 20,9 km/h (4 Bft) 100,00 %
29.05.2016 19:10 23,0 C 78 % 1000,1 hPa 0,0 l/m 15,3 km/h (3 Bft) NO 42 0 min 0,000 mm 0,0 UV-I 78 W/m 18,9 C 20,8 C 17,7 km/h (3 Bft) 100,00 %
29.05.2016 19:11 22,9 C 78 % 1000,1 hPa 0,0 l/m 14,2 km/h (3 Bft) NO 44 0 min 0,000 mm 0,0 UV-I 74 W/m 18,9 C 20,9 C 19,3 km/h (3 Bft) 96,00 %
29.05.2016 19:12 23,0 C 78 % 1000,0 hPa 0,0 l/m 14,1 km/h (3 Bft) NO 49 0 min 0,000 mm 0,0 UV-I 69 W/m 18,9 C 21,1 C 20,9 km/h (4 Bft) 100,00 %
29.05.2016 19:13 22,9 C 78 % 1000,0 hPa 0,0 l/m 13,3 km/h (3 Bft) O-NO 74 0 min 0,000 mm 0,0 UV-I 65 W/m 18,9 C 21,1 C 17,7 km/h (3 Bft) 100,00 %
29.05.2016 19:14 22,9 C 78 % 1000,0 hPa 0,0 l/m 14,6 km/h (3 Bft) O 81 0 min 0,000 mm 0,0 UV-I 61 W/m 18,9 C 20,8 C 20,9 km/h (4 Bft) 95,83 %
29.05.2016 19:15 22,9 C 78 % 1000,0 hPa 0,0 l/m 14,4 km/h (3 Bft) NO 50 0 min 0,000 mm 0,0 UV-I 57 W/m 18,9 C 20,9 C 19,3 km/h (3 Bft) 100,00 %
29.05.2016 19:16 22,9 C 78 % 1000,0 hPa 0,0 l/m 17,1 km/h (3 Bft) NO 52 0 min 0,000 mm 0,0 UV-I 54 W/m 18,9 C 20,4 C 20,9 km/h (4 Bft) 100,00 %
29.05.2016 19:17 22,9 C 78 % 1000,0 hPa 0,0 l/m 16,9 km/h (3 Bft) O-NO 67 0 min 0,000 mm 0,0 UV-I 52 W/m 18,9 C 20,4 C 20,9 km/h (4 Bft) 95,65 %
29.05.2016 19:18 22,9 C 78 % 1000,1 hPa 0,0 l/m 20,0 km/h (4 Bft) O-NO 74 0 min 0,000 mm 0,0 UV-I 45 W/m 18,9 C 20,0 C 27,4 km/h (4 Bft) 100,00 %
29.05.2016 19:19 22,9 C 77 % 1000,1 hPa 0,0 l/m 18,8 km/h (3 Bft) O-NO 61 0 min 0,000 mm 0,0 UV-I 48 W/m 18,6 C 20,1 C 29,0 km/h (5 Bft) 91,30 %
29.05.2016 19:20 22,9 C 77 % 1000,0 hPa 0,0 l/m 13,8 km/h (3 Bft) O-NO 71 0 min 0,000 mm 0,0 UV-I 46 W/m 18,6 C 21,0 C 24,1 km/h (4 Bft) 100,00 %
29.05.2016 19:21 22,9 C 76 % 1000,1 hPa 0,0 l/m 21,9 km/h (4 Bft) NO 44 0 min 0,000 mm 0,0 UV-I 45 W/m 18,4 C 19,7 C 32,2 km/h (5 Bft) 92,86 %
29.05.2016 19:22 22,9 C 77 % 1000,0 hPa 0,0 l/m 19,1 km/h (3 Bft) O-NO 63 0 min 0,000 mm 0,0 UV-I 44 W/m 18,6 C 20,1 C 24,1 km/h (4 Bft) 100,00 %
29.05.2016 19:23 22,9 C 77 % 1000,0 hPa 0,0 l/m 15,0 km/h (3 Bft) O 80 0 min 0,000 mm 0,0 UV-I 42 W/m 18,6 C 20,8 C 20,9 km/h (4 Bft) 95,65 %
29.05.2016 19:24 22,9 C 77 % 1000,0 hPa 0,0 l/m 16,4 km/h (3 Bft) NO 51 0 min 0,000 mm 0,0 UV-I 42 W/m 18,6 C 20,5 C 22,5 km/h (4 Bft) 100,00 %
29.05.2016 19:25 22,9 C 77 % 1000,0 hPa 0,0 l/m 14,2 km/h (3 Bft) O-NO 69 0 min 0,000 mm 0,0 UV-I 42 W/m 18,6 C 20,9 C 20,9 km/h (4 Bft) 95,83 %
29.05.2016 19:26 22,9 C 77 % 1000,1 hPa 0,0 l/m 17,0 km/h (3 Bft) O-NO 71 0 min 0,000 mm 0,0 UV-I 42 W/m 18,6 C 20,4 C 24,1 km/h (4 Bft) 92,31 %
29.05.2016 19:27 22,8 C 77 % 1000,1 hPa 0,0 l/m 18,2 km/h (3 Bft) O-NO 63 0 min 0,000 mm 0,0 UV-I 40 W/m 18,5 C 20,1 C 22,5 km/h (4 Bft) 100,00 %
29.05.2016 19:28 22,8 C 77 % 1000,1 hPa 0,0 l/m 19,8 km/h (3 Bft) O 79 0 min 0,000 mm 0,0 UV-I 37 W/m 18,5 C 19,9 C 29,0 km/h (5 Bft) 95,83 %
29.05.2016 19:29 22,8 C 77 % 1000,1 hPa 0,0 l/m 17,9 km/h (3 Bft) O-NO 63 0 min 0,000 mm 0,0 UV-I 39 W/m 18,5 C 20,1 C 25,7 km/h (4 Bft) 95,83 %
29.05.2016 19:30 22,8 C 77 % 1000,1 hPa 0,0 l/m 19,6 km/h (3 Bft) O-NO 71 0 min 0,000 mm 0,0 UV-I 38 W/m 18,5 C 19,9 C 25,7 km/h (4 Bft) 95,65 %
29.05.2016 19:31 22,8 C 77 % 1000,1 hPa 0,0 l/m 17,2 km/h (3 Bft) O-NO 57 0 min 0,000 mm 0,0 UV-I 39 W/m 18,5 C 20,3 C 25,7 km/h (4 Bft) 95,83 %
29.05.2016 19:32 22,8 C 77 % 1000,1 hPa 0,0 l/m 16,1 km/h (3 Bft) O 90 0 min 0,000 mm 0,0 UV-I 44 W/m 18,5 C 20,4 C 24,1 km/h (4 Bft) 95,65 %
29.05.2016 19:33 22,8 C 76 % 1000,1 hPa 0,0 l/m 20,9 km/h (4 Bft) O 96 0 min 0,000 mm 0,0 UV-I 47 W/m 18,3 C 19,7 C 29,0 km/h (5 Bft) 100,00 %
29.05.2016 19:34 22,8 C 77 % 1000,1 hPa 0,0 l/m 17,4 km/h (3 Bft) O-NO 76 0 min 0,000 mm 0,0 UV-I 47 W/m 18,5 C 20,2 C 22,5 km/h (4 Bft) 96,15 %
29.05.2016 19:35 22,8 C 77 % 1000,0 hPa 0,0 l/m 17,6 km/h (3 Bft) O-NO 59 0 min 0,000 mm 0,0 UV-I 49 W/m 18,5 C 20,2 C 25,7 km/h (4 Bft) 95,83 %
29.05.2016 19:36 22,8 C 77 % 1000,1 hPa 0,0 l/m 15,0 km/h (3 Bft) O-NO 57 0 min 0,000 mm 0,0 UV-I 50 W/m 18,5 C 20,6 C 19,3 km/h (3 Bft) 100,00 %
29.05.2016 19:37 22,8 C 77 % 1000,1 hPa 0,0 l/m 15,1 km/h (3 Bft) O 81 0 min 0,000 mm 0,0 UV-I 51 W/m 18,5 C 20,6 C 20,9 km/h (4 Bft) 95,83 %
29.05.2016 19:38 22,7 C 78 % 1000,1 hPa 0,0 l/m 16,7 km/h (3 Bft) O 85 0 min 0,000 mm 0,0 UV-I 52 W/m 18,7 C 20,2 C 24,1 km/h (4 Bft) 95,65 %
29.05.2016 19:39 22,7 C 78 % 1000,2 hPa 0,0 l/m 18,0 km/h (3 Bft) O-NO 71 0 min 0,000 mm 0,0 UV-I 54 W/m 18,7 C 20,0 C 29,0 km/h (5 Bft) 95,83 %
29.05.2016 19:40 22,7 C 77 % 1000,4 hPa 0,0 l/m 22,0 km/h (4 Bft) O-NO 66 0 min 0,000 mm 0,0 UV-I 58 W/m 18,5 C 19,4 C 32,2 km/h (5 Bft) 95,65 %
29.05.2016 19:41 22,7 C 77 % 1000,3 hPa 0,0 l/m 20,3 km/h (4 Bft) O-NO 64 0 min 0,000 mm 0,0 UV-I 63 W/m 18,5 C 19,7 C 27,4 km/h (4 Bft) 95,83 %
29.05.2016 19:42 22,7 C 77 % 1000,2 hPa 0,0 l/m 21,2 km/h (4 Bft) O-NO 67 0 min 0,000 mm 0,0 UV-I 67 W/m 18,5 C 19,5 C 25,7 km/h (4 Bft) 100,00 %
29.05.2016 19:43 22,7 C 77 % 1000,2 hPa 0,0 l/m 22,2 km/h (4 Bft) O-NO 65 0 min 0,000 mm 0,0 UV-I 72 W/m 18,5 C 19,4 C 30,6 km/h (5 Bft) 95,83 %
29.05.2016 19:44 22,7 C 77 % 1000,2 hPa 0,0 l/m 21,1 km/h (4 Bft) O-NO 57 0 min 0,000 mm 0,0 UV-I 77 W/m 18,5 C 19,5 C 27,4 km/h (4 Bft) 95,65 %
29.05.2016 19:45 22,7 C 77 % 1000,2 hPa 0,0 l/m 21,2 km/h (4 Bft) O-NO 74 0 min 0,000 mm 0,0 UV-I 77 W/m 18,5 C 19,5 C 32,2 km/h (5 Bft) 100,00 %
29.05.2016 19:46 22,8 C 77 % 1000,1 hPa 0,0 l/m 23,4 km/h (4 Bft) O-NO 71 0 min 0,000 mm 0,0 UV-I 77 W/m 18,5 C 19,4 C 32,2 km/h (5 Bft) 95,83 %
29.05.2016 19:47 22,8 C 77 % 1000,2 hPa 0,0 l/m 19,7 km/h (3 Bft) O 90 0 min 0,000 mm 0,0 UV-I 77 W/m 18,5 C 19,9 C 27,4 km/h (4 Bft) 91,30 %
29.05.2016 19:48 22,8 C 77 % 1000,2 hPa 0,0 l/m 16,8 km/h (3 Bft) O 93 0 min 0,000 mm 0,0 UV-I 76 W/m 18,5 C 20,3 C 24,1 km/h (4 Bft) 100,00 %
29.05.2016 19:49 22,8 C 77 % 1000,1 hPa 0,0 l/m 19,4 km/h (3 Bft) O-NO 78 0 min 0,000 mm 0,0 UV-I 71 W/m 18,5 C 19,9 C 27,4 km/h (4 Bft) 100,00 %
29.05.2016 19:50 22,8 C 79 % 1000,1 hPa 0,0 l/m 15,0 km/h (3 Bft) O 91 0 min 0,000 mm 0,0 UV-I 65 W/m 19,0 C 20,6 C 24,1 km/h (4 Bft) 96,30 %
29.05.2016 19:51 22,7 C 78 % 1000,1 hPa 0,0 l/m 17,3 km/h (3 Bft) O-NO 74 0 min 0,000 mm 0,0 UV-I 60 W/m 18,7 C 20,1 C 22,5 km/h (4 Bft) 100,00 %
29.05.2016 19:52 22,7 C 77 % 1000,1 hPa 0,0 l/m 22,7 km/h (4 Bft) O-SO 108 0 min 0,000 mm 0,0 UV-I 53 W/m 18,5 C 19,3 C 30,6 km/h (5 Bft) 100,00 %
29.05.2016 19:53 22,7 C 76 % 1000,1 hPa 0,0 l/m 17,4 km/h (3 Bft) O 81 0 min 0,000 mm 0,0 UV-I 48 W/m 18,2 C 20,1 C 24,1 km/h (4 Bft) 100,00 %
29.05.2016 19:54 22,7 C 76 % 1000,1 hPa 0,0 l/m 22,5 km/h (4 Bft) O 82 0 min 0,000 mm 0,0 UV-I 42 W/m 18,2 C 19,3 C 30,6 km/h (5 Bft) 100,00 %
29.05.2016 19:55 22,6 C 71 % 1000,3 hPa 0,0 l/m 16,6 km/h (3 Bft) O 88 0 min 0,000 mm 0,0 UV-I 36 W/m 17,1 C 20,1 C 29,0 km/h (5 Bft) 100,00 %
29.05.2016 19:56 22,6 C 69 % 1000,4 hPa 0,0 l/m 22,7 km/h (4 Bft) O-NO 77 0 min 0,000 mm 0,0 UV-I 31 W/m 16,6 C 19,2 C 35,4 km/h (5 Bft) 100,00 %
29.05.2016 19:57 22,6 C 68 % 1000,3 hPa 0,0 l/m 21,3 km/h (4 Bft) S 172 0 min 0,000 mm 0,0 UV-I 26 W/m 16,4 C 19,4 C 29,0 km/h (5 Bft) 100,00 %
29.05.2016 19:58 22,5 C 66 % 1000,2 hPa 0,0 l/m 18,3 km/h (3 Bft) O-SO 114 0 min 0,000 mm 0,0 UV-I 25 W/m 15,8 C 19,7 C 25,7 km/h (4 Bft) 95,83 %
29.05.2016 19:59 22,4 C 65 % 1000,2 hPa 0,0 l/m 19,5 km/h (3 Bft) O 85 0 min 0,000 mm 0,0 UV-I 23 W/m 15,5 C 19,4 C 25,7 km/h (4 Bft) 100,00 %
29.05.2016 20:00 22,4 C 63 % 1000,1 hPa 0,0 l/m 25,4 km/h (4 Bft) O 80 0 min 0,000 mm 0,0 UV-I 20 W/m 15,0 C 18,6 C 41,8 km/h (6 Bft) 100,00 %
29.05.2016 20:02 22,3 C 59 % 1000,1 hPa 0,0 l/m 20,4 km/h (4 Bft) O-SO 111 0 min 0,101 mm 0,0 UV-I 18 W/m 13,9 C 19,1 C 40,2 km/h (6 Bft) 97,87 %
29.05.2016 20:03 22,2 C 58 % 1000,1 hPa 0,0 l/m 19,8 km/h (3 Bft) S 178 0 min 0,000 mm 0,0 UV-I 16 W/m 13,5 C 19,1 C 33,8 km/h (5 Bft) 95,65 %
29.05.2016 20:04 22,2 C 58 % 1000,1 hPa 0,0 l/m 22,5 km/h (4 Bft) O-SO 109 0 min 0,000 mm 0,0 UV-I 16 W/m 13,5 C 18,7 C 32,2 km/h (5 Bft) 100,00 %
29.05.2016 20:05 22,1 C 58 % 1000,1 hPa 0,0 l/m 15,0 km/h (3 Bft) O 86 0 min 0,000 mm 0,0 UV-I 13 W/m 13,4 C 19,8 C 22,5 km/h (4 Bft) 100,00 %
29.05.2016 20:06 21,9 C 58 % 1000,1 hPa 0,0 l/m 17,7 km/h (3 Bft) O-SO 119 0 min 0,000 mm 0,0 UV-I 12 W/m 13,3 C 19,0 C 25,7 km/h (4 Bft) 95,65 %
29.05.2016 20:07 21,9 C 57 % 1000,1 hPa 0,0 l/m 20,3 km/h (4 Bft) O 92 0 min 0,000 mm 0,0 UV-I 11 W/m 13,0 C 18,6 C 33,8 km/h (5 Bft) 100,00 %
29.05.2016 20:08 21,8 C 58 % 1000,2 hPa 0,0 l/m 24,0 km/h (4 Bft) O 92 0 min 0,000 mm 0,0 UV-I 10 W/m 13,2 C 18,0 C 29,0 km/h (5 Bft) 100,00 %
29.05.2016 20:09 21,7 C 58 % 1000,1 hPa 0,0 l/m 17,8 km/h (3 Bft) SO 141 0 min 0,000 mm 0,0 UV-I 9 W/m 13,1 C 18,8 C 29,0 km/h (5 Bft) 100,00 %
29.05.2016 20:10 21,6 C 59 % 1000,1 hPa 0,0 l/m 11,8 km/h (2 Bft) SO 126 0 min 0,000 mm 0,0 UV-I 7 W/m 13,2 C 19,9 C 17,7 km/h (3 Bft) 100,00 %
29.05.2016 20:11 21,6 C 59 % 1000,1 hPa 0,0 l/m 9,9 km/h (2 Bft) O-SO 120 0 min 0,000 mm 0,0 UV-I 7 W/m 13,2 C 20,4 C 22,5 km/h (4 Bft) 100,00 %
29.05.2016 20:12 21,4 C 60 % 1000,1 hPa 0,0 l/m 17,7 km/h (3 Bft) O-SO 122 0 min 0,000 mm 0,0 UV-I 7 W/m 13,3 C 18,4 C 27,4 km/h (4 Bft) 100,00 %
29.05.2016 20:13 21,4 C 61 % 1000,1 hPa 0,0 l/m 11,5 km/h (2 Bft) SO 127 0 min 0,000 mm 0,0 UV-I 6 W/m 13,6 C 19,8 C 19,3 km/h (3 Bft) 100,00 %
29.05.2016 20:14 21,3 C 61 % 1000,1 hPa 0,0 l/m 12,1 km/h (2 Bft) O-SO 114 0 min 0,000 mm 0,0 UV-I 5 W/m 13,5 C 19,5 C 16,1 km/h (3 Bft) 100,00 %
29.05.2016 20:15 21,2 C 62 % 1000,1 hPa 0,0 l/m 20,9 km/h (4 Bft) O-SO 117 0 min 0,000 mm 0,0 UV-I 7 W/m 13,6 C 17,6 C 35,4 km/h (5 Bft) 100,00 %
29.05.2016 20:16 21,1 C 62 % 1000,0 hPa 0,0 l/m 21,0 km/h (4 Bft) O-SO 111 0 min 0,000 mm 0,0 UV-I 7 W/m 13,5 C 17,5 C 30,6 km/h (5 Bft) 100,00 %
29.05.2016 20:17 21,0 C 62 % 1000,1 hPa 0,0 l/m 14,2 km/h (3 Bft) O 98 0 min 0,000 mm 0,0 UV-I 7 W/m 13,4 C 18,6 C 20,9 km/h (4 Bft) 100,00 %
29.05.2016 20:18 20,9 C 63 % 1000,1 hPa 0,0 l/m 17,0 km/h (3 Bft) O-SO 111 0 min 0,000 mm 0,0 UV-I 7 W/m 13,6 C 17,9 C 25,7 km/h (4 Bft) 100,00 %
29.05.2016 20:19 20,8 C 64 % 1000,0 hPa 0,0 l/m 16,5 km/h (3 Bft) O 88 0 min 0,000 mm 0,0 UV-I 7 W/m 13,7 C 17,9 C 22,5 km/h (4 Bft) 100,00 %
29.05.2016 20:20 20,7 C 63 % 1000,1 hPa 0,0 l/m 26,1 km/h (4 Bft) O-SO 117 0 min 0,000 mm 0,0 UV-I 7 W/m 13,4 C 16,2 C 35,4 km/h (5 Bft) 100,00 %
29.05.2016 20:21 20,6 C 64 % 1000,0 hPa 0,0 l/m 18,8 km/h (3 Bft) O-SO 115 0 min 0,000 mm 0,0 UV-I 7 W/m 13,5 C 17,2 C 32,2 km/h (5 Bft) 100,00 %
29.05.2016 20:22 20,6 C 65 % 999,9 hPa 0,0 l/m 19,8 km/h (3 Bft) O-SO 103 0 min 0,000 mm 0,0 UV-I 7 W/m 13,8 C 17,0 C 30,6 km/h (5 Bft) 96,15 %
29.05.2016 20:23 20,5 C 65 % 999,9 hPa 0,0 l/m 21,9 km/h (4 Bft) O 96 0 min 0,000 mm 0,0 UV-I 5 W/m 13,7 C 16,5 C 30,6 km/h (5 Bft) 91,67 %
29.05.2016 20:24 20,4 C 65 % 999,9 hPa 0,0 l/m 13,8 km/h (3 Bft) O-SO 105 0 min 0,000 mm 0,0 UV-I 5 W/m 13,6 C 18,0 C 19,3 km/h (3 Bft) 100,00 %
29.05.2016 20:25 20,4 C 66 % 999,8 hPa 0,0 l/m 14,1 km/h (3 Bft) O 86 0 min 0,000 mm 0,0 UV-I 5 W/m 13,8 C 17,9 C 17,7 km/h (3 Bft) 100,00 %
29.05.2016 20:26 20,3 C 67 % 999,8 hPa 0,0 l/m 10,1 km/h (2 Bft) O 100 0 min 0,000 mm 0,0 UV-I 5 W/m 14,0 C 18,9 C 19,3 km/h (3 Bft) 100,00 %
29.05.2016 20:27 20,2 C 66 % 999,7 hPa 0,0 l/m 17,4 km/h (3 Bft) O 80 0 min 0,000 mm 0,0 UV-I 5 W/m 13,6 C 17,0 C 20,9 km/h (4 Bft) 100,00 %
29.05.2016 20:28 20,2 C 67 % 999,6 hPa 0,0 l/m 16,5 km/h (3 Bft) SO 128 0 min 0,000 mm 0,0 UV-I 5 W/m 13,9 C 17,2 C 22,5 km/h (4 Bft) 100,00 %
29.05.2016 20:29 20,2 C 66 % 999,6 hPa 0,0 l/m 16,9 km/h (3 Bft) O 88 0 min 0,000 mm 0,0 UV-I 5 W/m 13,6 C 17,1 C 24,1 km/h (4 Bft) 100,00 %
29.05.2016 20:30 20,1 C 67 % 999,6 hPa 0,0 l/m 15,1 km/h (3 Bft) O-SO 110 0 min 0,000 mm 0,0 UV-I 5 W/m 13,8 C 17,3 C 20,9 km/h (4 Bft) 100,00 %
29.05.2016 20:31 20,1 C 66 % 999,5 hPa 0,0 l/m 14,3 km/h (3 Bft) O-NO 77 0 min 0,000 mm 0,0 UV-I 5 W/m 13,5 C 17,5 C 20,9 km/h (4 Bft) 100,00 %
29.05.2016 20:32 20,1 C 66 % 999,4 hPa 0,0 l/m 14,8 km/h (3 Bft) O-NO 71 0 min 0,000 mm 0,0 UV-I 5 W/m 13,5 C 17,4 C 20,9 km/h (4 Bft) 100,00 %
29.05.2016 20:33 20,1 C 66 % 999,3 hPa 0,0 l/m 10,5 km/h (2 Bft) O 87 0 min 0,000 mm 0,0 UV-I 5 W/m 13,5 C 18,6 C 14,5 km/h (3 Bft) 100,00 %
29.05.2016 20:34 20,1 C 66 % 999,3 hPa 0,0 l/m 13,7 km/h (3 Bft) O 79 0 min 0,000 mm 0,0 UV-I 5 W/m 13,5 C 17,7 C 20,9 km/h (4 Bft) 100,00 %
29.05.2016 20:35 20,1 C 67 % 999,3 hPa 0,0 l/m 11,3 km/h (2 Bft) O-NO 66 0 min 0,000 mm 0,0 UV-I 5 W/m 13,8 C 18,3 C 17,7 km/h (3 Bft) 100,00 %
29.05.2016 20:36 20,1 C 67 % 999,2 hPa 0,0 l/m 16,7 km/h (3 Bft) O 82 0 min 0,000 mm 0,0 UV-I 5 W/m 13,8 C 17,0 C 22,5 km/h (4 Bft) 95,83 %
29.05.2016 20:37 20,1 C 67 % 999,2 hPa 0,0 l/m 13,8 km/h (3 Bft) O 80 0 min 0,000 mm 0,0 UV-I 1 W/m 13,8 C 17,7 C 19,3 km/h (3 Bft) 100,00 %
29.05.2016 20:38 20,1 C 67 % 999,3 hPa 0,0 l/m 16,0 km/h (3 Bft) SO 125 0 min 0,000 mm 0,0 UV-I 0 W/m 13,8 C 17,1 C 22,5 km/h (4 Bft) 100,00 %
29.05.2016 20:39 20,1 C 67 % 999,2 hPa 0,0 l/m 10,9 km/h (2 Bft) NO 44 0 min 0,000 mm 0,0 UV-I 0 W/m 13,8 C 18,5 C 14,5 km/h (3 Bft) 96,15 %
29.05.2016 20:40 20,1 C 67 % 999,2 hPa 0,0 l/m 13,4 km/h (3 Bft) O-NO 67 0 min 0,000 mm 0,0 UV-I 0 W/m 13,8 C 17,8 C 19,3 km/h (3 Bft) 100,00 %
29.05.2016 20:41 20,0 C 67 % 999,2 hPa 0,0 l/m 8,0 km/h (2 Bft) O-SO 112 0 min 0,000 mm 0,0 UV-I 0 W/m 13,7 C 19,4 C 12,9 km/h (3 Bft) 100,00 %
29.05.2016 20:42 20,0 C 67 % 999,2 hPa 0,0 l/m 14,2 km/h (3 Bft) O-NO 75 0 min 0,000 mm 0,0 UV-I 0 W/m 13,7 C 17,4 C 19,3 km/h (3 Bft) 100,00 %
29.05.2016 20:43 19,9 C 68 % 999,3 hPa 0,0 l/m 12,3 km/h (3 Bft) O-NO 74 0 min 0,000 mm 0,0 UV-I 0 W/m 13,8 C 17,8 C 16,1 km/h (3 Bft) 95,65 %
29.05.2016 20:44 19,9 C 67 % 999,2 hPa 0,0 l/m 11,0 km/h (2 Bft) O 81 0 min 0,000 mm 0,0 UV-I 0 W/m 13,6 C 18,2 C 16,1 km/h (3 Bft) 95,83 %
29.05.2016 20:45 19,9 C 67 % 999,3 hPa 0,0 l/m 13,5 km/h (3 Bft) O-NO 69 0 min 0,000 mm 0,0 UV-I 0 W/m 13,6 C 17,5 C 16,1 km/h (3 Bft) 100,00 %
29.05.2016 20:46 19,9 C 68 % 999,3 hPa 0,0 l/m 12,7 km/h (3 Bft) O-NO 58 0 min 0,000 mm 0,0 UV-I 0 W/m 13,8 C 17,7 C 17,7 km/h (3 Bft) 100,00 %
29.05.2016 20:47 19,9 C 67 % 999,3 hPa 0,0 l/m 11,6 km/h (2 Bft) O-NO 77 0 min 0,000 mm 0,0 UV-I 0 W/m 13,6 C 18,0 C 14,5 km/h (3 Bft) 91,30 %
29.05.2016 20:48 19,9 C 68 % 999,3 hPa 0,0 l/m 13,7 km/h (3 Bft) NO 51 0 min 0,000 mm 0,0 UV-I 0 W/m 13,8 C 17,5 C 19,3 km/h (3 Bft) 100,00 %
29.05.2016 20:49 19,9 C 68 % 999,4 hPa 0,0 l/m 14,7 km/h (3 Bft) O-NO 78 0 min 0,000 mm 0,0 UV-I 0 W/m 13,8 C 17,2 C 20,9 km/h (4 Bft) 100,00 %
29.05.2016 20:50 19,9 C 68 % 999,4 hPa 0,0 l/m 12,0 km/h (2 Bft) O-NO 65 0 min 0,000 mm 0,0 UV-I 0 W/m 13,8 C 17,9 C 16,1 km/h (3 Bft) 100,00 %
29.05.2016 20:51 19,9 C 68 % 999,4 hPa 0,0 l/m 14,9 km/h (3 Bft) O 81 0 min 0,000 mm 0,0 UV-I 0 W/m 13,8 C 17,2 C 20,9 km/h (4 Bft) 100,00 %
29.05.2016 20:52 19,8 C 68 % 999,4 hPa 0,0 l/m 13,9 km/h (3 Bft) O 97 0 min 0,000 mm 0,0 UV-I 0 W/m 13,7 C 17,3 C 17,7 km/h (3 Bft) 100,00 %
29.05.2016 20:53 19,8 C 68 % 999,4 hPa 0,0 l/m 11,0 km/h (2 Bft) O-NO 70 0 min 0,000 mm 0,0 UV-I 0 W/m 13,7 C 18,1 C 20,9 km/h (4 Bft) 100,00 %
29.05.2016 20:54 19,8 C 68 % 999,4 hPa 0,0 l/m 13,1 km/h (3 Bft) O 80 0 min 0,000 mm 0,0 UV-I 0 W/m 13,7 C 17,5 C 17,7 km/h (3 Bft) 100,00 %
29.05.2016 20:55 19,8 C 68 % 999,5 hPa 0,0 l/m 12,9 km/h (3 Bft) O-NO 63 0 min 0,000 mm 0,0 UV-I 0 W/m 13,7 C 17,5 C 16,1 km/h (3 Bft) 100,00 %
29.05.2016 20:56 19,8 C 68 % 999,5 hPa 0,0 l/m 9,4 km/h (2 Bft) NO 43 0 min 0,000 mm 0,0 UV-I 0 W/m 13,7 C 18,6 C 14,5 km/h (3 Bft) 100,00 %
29.05.2016 20:57 19,8 C 68 % 999,5 hPa 0,0 l/m 11,1 km/h (2 Bft) O-NO 76 0 min 0,000 mm 0,0 UV-I 0 W/m 13,7 C 18,1 C 16,1 km/h (3 Bft) 100,00 %
29.05.2016 20:58 19,7 C 68 % 999,5 hPa 0,0 l/m 13,8 km/h (3 Bft) O-NO 68 0 min 0,000 mm 0,0 UV-I 0 W/m 13,6 C 17,2 C 17,7 km/h (3 Bft) 100,00 %
29.05.2016 20:59 19,7 C 68 % 999,5 hPa 0,0 l/m 12,7 km/h (3 Bft) O-NO 77 0 min 0,000 mm 0,0 UV-I 0 W/m 13,6 C 17,5 C 17,7 km/h (3 Bft) 100,00 %
29.05.2016 21:00 19,7 C 68 % 999,6 hPa 0,0 l/m 11,8 km/h (2 Bft) O-NO 69 0 min 0,000 mm 0,0 UV-I 0 W/m 13,6 C 17,7 C 16,1 km/h (3 Bft) 100,00 %
29.05.2016 21:02 19,7 C 69 % 999,6 hPa 0,0 l/m 10,3 km/h (2 Bft) O 90 0 min 0,076 mm 0,0 UV-I 0 W/m 13,8 C 18,2 C 14,5 km/h (3 Bft) 100,00 %
29.05.2016 21:03 19,7 C 68 % 999,6 hPa 0,0 l/m 12,1 km/h (2 Bft) O-NO 71 0 min 0,000 mm 0,0 UV-I 0 W/m 13,6 C 17,7 C 14,5 km/h (3 Bft) 100,00 %
29.05.2016 21:04 19,7 C 69 % 999,6 hPa 0,0 l/m 11,6 km/h (2 Bft) O-NO 74 0 min 0,000 mm 0,0 UV-I 0 W/m 13,8 C 17,8 C 14,5 km/h (3 Bft) 100,00 %
29.05.2016 21:05 19,6 C 70 % 999,6 hPa 0,0 l/m 5,2 km/h (1 Bft) O-SO 105 0 min 0,000 mm 0,0 UV-I 0 W/m 14,0 C 19,6 C 6,4 km/h (2 Bft) 100,00 %
29.05.2016 21:06 19,6 C 70 % 999,6 hPa 0,0 l/m 9,1 km/h (2 Bft) O 89 0 min 0,000 mm 0,0 UV-I 0 W/m 14,0 C 18,5 C 12,9 km/h (3 Bft) 100,00 %
29.05.2016 21:07 19,4 C 70 % 999,6 hPa 0,0 l/m 10,0 km/h (2 Bft) O-SO 109 0 min 0,000 mm 0,0 UV-I 0 W/m 13,8 C 18,0 C 12,9 km/h (3 Bft) 100,00 %
29.05.2016 21:08 19,3 C 70 % 999,6 hPa 0,0 l/m 5,2 km/h (1 Bft) O 88 0 min 0,000 mm 0,0 UV-I 0 W/m 13,7 C 19,3 C 6,4 km/h (2 Bft) 95,83 %
29.05.2016 21:09 19,3 C 71 % 999,6 hPa 0,0 l/m 5,8 km/h (2 Bft) S-SO 161 0 min 0,000 mm 0,0 UV-I 0 W/m 13,9 C 19,3 C 11,3 km/h (2 Bft) 100,00 %
29.05.2016 21:10 19,2 C 71 % 999,6 hPa 0,0 l/m 7,8 km/h (2 Bft) O-SO 111 0 min 0,000 mm 0,0 UV-I 0 W/m 13,8 C 18,6 C 12,9 km/h (3 Bft) 100,00 %
29.05.2016 21:11 19,2 C 70 % 999,5 hPa 0,0 l/m 6,0 km/h (2 Bft) O-SO 111 0 min 0,000 mm 0,0 UV-I 0 W/m 13,6 C 19,2 C 11,3 km/h (2 Bft) 100,00 %
29.05.2016 21:12 19,2 C 71 % 999,6 hPa 0,0 l/m 6,9 km/h (2 Bft) SO 134 0 min 0,000 mm 0,0 UV-I 0 W/m 13,8 C 19,0 C 11,3 km/h (2 Bft) 95,83 %
29.05.2016 21:13 19,2 C 70 % 999,6 hPa 0,0 l/m 9,8 km/h (2 Bft) O-SO 109 0 min 0,000 mm 0,0 UV-I 0 W/m 13,6 C 17,8 C 14,5 km/h (3 Bft) 100,00 %
29.05.2016 21:14 19,2 C 71 % 999,7 hPa 0,0 l/m 6,8 km/h (2 Bft) SO 146 0 min 0,000 mm 0,0 UV-I 0 W/m 13,8 C 19,0 C 12,9 km/h (3 Bft) 95,83 %
29.05.2016 21:15 19,2 C 71 % 999,7 hPa 0,0 l/m 9,4 km/h (2 Bft) S-SO 149 0 min 0,000 mm 0,0 UV-I 0 W/m 13,8 C 18,0 C 16,1 km/h (3 Bft) 91,30 %
29.05.2016 21:16 19,1 C 71 % 999,7 hPa 0,0 l/m 7,7 km/h (2 Bft) O-SO 119 0 min 0,000 mm 0,0 UV-I 0 W/m 13,7 C 18,5 C 12,9 km/h (3 Bft) 100,00 %
29.05.2016 21:17 19,1 C 71 % 999,7 hPa 0,0 l/m 7,4 km/h (2 Bft) SO 124 0 min 0,000 mm 0,0 UV-I 0 W/m 13,7 C 18,7 C 12,9 km/h (3 Bft) 86,96 %
29.05.2016 21:18 19,1 C 71 % 999,7 hPa 0,0 l/m 7,8 km/h (2 Bft) S-SO 148 0 min 0,000 mm 0,0 UV-I 0 W/m 13,7 C 18,5 C 12,9 km/h (3 Bft) 100,00 %
29.05.2016 21:19 19,1 C 70 % 999,7 hPa 0,0 l/m 8,9 km/h (2 Bft) O-SO 120 0 min 0,000 mm 0,0 UV-I 0 W/m 13,5 C 18,0 C 14,5 km/h (3 Bft) 95,65 %
29.05.2016 21:20 19,1 C 71 % 999,7 hPa 0,0 l/m 8,0 km/h (2 Bft) O-SO 118 0 min 0,000 mm 0,0 UV-I 0 W/m 13,7 C 18,4 C 12,9 km/h (3 Bft) 100,00 %
29.05.2016 21:21 19,1 C 70 % 999,7 hPa 0,0 l/m 4,6 km/h (1 Bft) O-SO 109 0 min 0,000 mm 0,0 UV-I 0 W/m 13,5 C 19,1 C 8,0 km/h (2 Bft) 91,30 %
29.05.2016 21:22 19,1 C 71 % 999,7 hPa 0,0 l/m 7,2 km/h (2 Bft) O-SO 119 0 min 0,000 mm 0,0 UV-I 0 W/m 13,7 C 18,7 C 11,3 km/h (2 Bft) 95,83 %
29.05.2016 21:23 19,1 C 70 % 999,7 hPa 0,0 l/m 4,1 km/h (1 Bft) SO 145 0 min 0,000 mm 0,0 UV-I 0 W/m 13,5 C 19,1 C 4,8 km/h (1 Bft) 95,65 %
29.05.2016 21:24 19,1 C 70 % 999,7 hPa 0,0 l/m 3,5 km/h (1 Bft) S-SO 150 0 min 0,000 mm 0,0 UV-I 0 W/m 13,5 C 19,1 C 4,8 km/h (1 Bft) 95,83 %
29.05.2016 21:25 19,1 C 70 % 999,7 hPa 0,0 l/m 4,0 km/h (1 Bft) S-SO 154 0 min 0,000 mm 0,0 UV-I 0 W/m 13,5 C 19,1 C 9,7 km/h (2 Bft) 95,65 %
29.05.2016 21:26 19,1 C 70 % 999,8 hPa 0,0 l/m 2,9 km/h (1 Bft) S-SO 151 0 min 0,000 mm 0,0 UV-I 0 W/m 13,5 C 19,1 C 6,4 km/h (2 Bft) 95,83 %
29.05.2016 21:27 19,2 C 70 % 999,8 hPa 0,0 l/m 2,9 km/h (1 Bft) S-SO 166 0 min 0,000 mm 0,0 UV-I 0 W/m 13,6 C 19,2 C 4,8 km/h (1 Bft) 91,30 %
29.05.2016 21:28 19,2 C 70 % 999,7 hPa 0,0 l/m 2,7 km/h (1 Bft) SO 145 0 min 0,000 mm 0,0 UV-I 0 W/m 13,6 C 19,2 C 4,8 km/h (1 Bft) 95,83 %
29.05.2016 21:29 19,2 C 70 % 999,8 hPa 0,0 l/m 4,3 km/h (1 Bft) S-SO 160 0 min 0,000 mm 0,0 UV-I 0 W/m 13,6 C 19,2 C 8,0 km/h (2 Bft) 100,00 %
29.05.2016 21:30 19,2 C 70 % 999,7 hPa 0,0 l/m 4,8 km/h (1 Bft) S-SO 162 0 min 0,000 mm 0,0 UV-I 0 W/m 13,6 C 19,2 C 8,0 km/h (2 Bft) 95,65 %
29.05.2016 21:31 19,2 C 70 % 999,7 hPa 0,0 l/m 3,3 km/h (1 Bft) S-SO 153 0 min 0,000 mm 0,0 UV-I 0 W/m 13,6 C 19,2 C 6,4 km/h (2 Bft) 95,83 %
29.05.2016 21:32 19,2 C 69 % 999,8 hPa 0,0 l/m 4,4 km/h (1 Bft) S 170 0 min 0,000 mm 0,0 UV-I 0 W/m 13,4 C 19,2 C 8,0 km/h (2 Bft) 98,35 %
29.05.2016 21:33 19,2 C 69 % 999,8 hPa 0,0 l/m 3,8 km/h (1 Bft) S-SO 150 0 min 0,000 mm 0,0 UV-I 0 W/m 13,4 C 19,2 C 6,4 km/h (2 Bft) 97,56 %
29.05.2016 21:34 19,2 C 69 % 999,8 hPa 0,0 l/m 4,9 km/h (1 Bft) S-SO 165 0 min 0,000 mm 0,0 UV-I 0 W/m 13,4 C 19,2 C 9,7 km/h (2 Bft) 95,65 %
29.05.2016 21:35 19,2 C 69 % 999,8 hPa 0,0 l/m 6,8 km/h (2 Bft) SO 142 0 min 0,000 mm 0,0 UV-I 0 W/m 13,4 C 19,0 C 9,7 km/h (2 Bft) 95,83 %
29.05.2016 21:36 19,2 C 69 % 999,8 hPa 0,0 l/m 7,0 km/h (2 Bft) SO 142 0 min 0,000 mm 0,0 UV-I 0 W/m 13,4 C 18,9 C 11,3 km/h (2 Bft) 100,00 %
29.05.2016 21:37 19,2 C 69 % 999,8 hPa 0,0 l/m 6,2 km/h (2 Bft) S-SO 147 0 min 0,000 mm 0,0 UV-I 0 W/m 13,4 C 19,2 C 12,9 km/h (3 Bft) 95,83 %
29.05.2016 21:38 19,2 C 69 % 999,8 hPa 0,0 l/m 5,8 km/h (2 Bft) O-SO 113 0 min 0,000 mm 0,0 UV-I 0 W/m 13,4 C 19,2 C 11,3 km/h (2 Bft) 95,65 %
29.05.2016 21:39 19,2 C 69 % 999,8 hPa 0,0 l/m 5,7 km/h (1 Bft) SO 146 0 min 0,000 mm 0,0 UV-I 0 W/m 13,4 C 19,2 C 12,9 km/h (3 Bft) 95,83 %
29.05.2016 21:40 19,2 C 69 % 999,8 hPa 0,0 l/m 7,3 km/h (2 Bft) S-SO 159 0 min 0,000 mm 0,0 UV-I 0 W/m 13,4 C 18,8 C 12,9 km/h (3 Bft) 95,65 %
29.05.2016 21:41 19,2 C 69 % 999,9 hPa 0,0 l/m 9,0 km/h (2 Bft) O-SO 123 0 min 0,000 mm 0,0 UV-I 0 W/m 13,4 C 18,1 C 14,5 km/h (3 Bft) 95,83 %
29.05.2016 21:42 19,2 C 70 % 999,9 hPa 0,0 l/m 5,7 km/h (1 Bft) SO 127 0 min 0,000 mm 0,0 UV-I 0 W/m 13,6 C 19,2 C 8,0 km/h (2 Bft) 91,30 %
29.05.2016 21:43 19,2 C 70 % 999,9 hPa 0,0 l/m 8,3 km/h (2 Bft) O-SO 121 0 min 0,000 mm 0,0 UV-I 0 W/m 13,6 C 18,4 C 12,9 km/h (3 Bft) 100,00 %
29.05.2016 21:44 19,1 C 70 % 999,9 hPa 0,0 l/m 7,8 km/h (2 Bft) O-SO 119 0 min 0,000 mm 0,0 UV-I 0 W/m 13,5 C 18,5 C 11,3 km/h (2 Bft) 95,65 %
29.05.2016 21:45 19,1 C 70 % 999,9 hPa 0,0 l/m 9,3 km/h (2 Bft) O-SO 123 0 min 0,000 mm 0,0 UV-I 0 W/m 13,5 C 17,9 C 12,9 km/h (3 Bft) 100,00 %
29.05.2016 21:46 19,1 C 70 % 999,9 hPa 0,0 l/m 9,1 km/h (2 Bft) O-SO 119 0 min 0,000 mm 0,0 UV-I 0 W/m 13,5 C 18,0 C 11,3 km/h (2 Bft) 95,83 %
29.05.2016 21:47 19,1 C 70 % 999,9 hPa 0,0 l/m 5,8 km/h (2 Bft) SO 138 0 min 0,000 mm 0,0 UV-I 0 W/m 13,5 C 19,1 C 8,0 km/h (2 Bft) 100,00 %
29.05.2016 21:48 19,2 C 70 % 999,9 hPa 0,0 l/m 7,6 km/h (2 Bft) SO 135 0 min 0,000 mm 0,0 UV-I 0 W/m 13,6 C 18,7 C 11,3 km/h (2 Bft) 95,83 %
29.05.2016 21:49 19,2 C 70 % 999,9 hPa 0,0 l/m 6,4 km/h (2 Bft) O-SO 119 0 min 0,000 mm 0,0 UV-I 0 W/m 13,6 C 19,2 C 8,0 km/h (2 Bft) 86,96 %
29.05.2016 21:50 19,1 C 71 % 999,9 hPa 0,0 l/m 8,6 km/h (2 Bft) O-SO 112 0 min 0,000 mm 0,0 UV-I 0 W/m 13,7 C 18,2 C 11,3 km/h (2 Bft) 100,00 %
29.05.2016 21:51 19,1 C 72 % 999,9 hPa 0,0 l/m 8,7 km/h (2 Bft) O-SO 123 0 min 0,000 mm 0,0 UV-I 0 W/m 13,9 C 18,1 C 11,3 km/h (2 Bft) 96,15 %
29.05.2016 21:52 18,9 C 72 % 999,9 hPa 0,0 l/m 7,6 km/h (2 Bft) SO 124 0 min 0,000 mm 0,0 UV-I 0 W/m 13,7 C 18,4 C 11,3 km/h (2 Bft) 100,00 %
29.05.2016 21:53 18,9 C 71 % 999,9 hPa 0,0 l/m 6,4 km/h (2 Bft) SO 126 0 min 0,000 mm 0,0 UV-I 0 W/m 13,5 C 18,9 C 8,0 km/h (2 Bft) 100,00 %
29.05.2016 21:54 18,9 C 71 % 1000,0 hPa 0,0 l/m 6,8 km/h (2 Bft) SO 126 0 min 0,000 mm 0,0 UV-I 0 W/m 13,5 C 18,7 C 8,0 km/h (2 Bft) 100,00 %
29.05.2016 21:55 18,8 C 71 % 1000,0 hPa 0,0 l/m 7,4 km/h (2 Bft) O-SO 117 0 min 0,000 mm 0,0 UV-I 0 W/m 13,4 C 18,4 C 12,9 km/h (3 Bft) 95,65 %
29.05.2016 21:56 18,8 C 72 % 1000,0 hPa 0,0 l/m 7,9 km/h (2 Bft) SO 146 0 min 0,000 mm 0,0 UV-I 0 W/m 13,6 C 18,1 C 11,3 km/h (2 Bft) 100,00 %
29.05.2016 21:57 18,8 C 72 % 1000,1 hPa 0,0 l/m 8,0 km/h (2 Bft) SO 134 0 min 0,000 mm 0,0 UV-I 0 W/m 13,6 C 18,1 C 11,3 km/h (2 Bft) 100,00 %
29.05.2016 21:58 18,8 C 71 % 1000,1 hPa 0,0 l/m 7,4 km/h (2 Bft) O-SO 123 0 min 0,000 mm 0,0 UV-I 0 W/m 13,4 C 18,4 C 11,3 km/h (2 Bft) 100,00 %
29.05.2016 21:59 18,8 C 72 % 1000,1 hPa 0,0 l/m 6,2 km/h (2 Bft) O-SO 122 0 min 0,000 mm 0,0 UV-I 0 W/m 13,6 C 18,8 C 9,7 km/h (2 Bft) 100,00 %
29.05.2016 22:00 18,8 C 71 % 1000,2 hPa 0,0 l/m 5,7 km/h (1 Bft) SO 135 0 min 0,000 mm 0,0 UV-I 0 W/m 13,4 C 18,8 C 8,0 km/h (2 Bft) 100,00 %
29.05.2016 22:02 18,8 C 72 % 1000,2 hPa 0,0 l/m 5,4 km/h (1 Bft) S-SO 161 0 min 0,026 mm 0,0 UV-I 0 W/m 13,6 C 18,8 C 8,0 km/h (2 Bft) 100,00 %
29.05.2016 22:03 18,8 C 72 % 1000,2 hPa 0,0 l/m 4,8 km/h (1 Bft) S-SO 153 0 min 0,000 mm 0,0 UV-I 0 W/m 13,6 C 18,8 C 9,7 km/h (2 Bft) 100,00 %
29.05.2016 22:04 18,8 C 71 % 1000,2 hPa 0,0 l/m 5,1 km/h (1 Bft) S-SO 150 0 min 0,000 mm 0,0 UV-I 0 W/m 13,4 C 18,8 C 9,7 km/h (2 Bft) 100,00 %
29.05.2016 22:05 18,9 C 70 % 1000,2 hPa 0,0 l/m 7,5 km/h (2 Bft) SO 142 0 min 0,000 mm 0,0 UV-I 0 W/m 13,3 C 18,4 C 11,3 km/h (2 Bft) 100,00 %
29.05.2016 22:06 18,9 C 71 % 1000,2 hPa 0,0 l/m 7,0 km/h (2 Bft) SO 135 0 min 0,000 mm 0,0 UV-I 0 W/m 13,5 C 18,6 C 12,9 km/h (3 Bft) 95,83 %
29.05.2016 22:07 18,9 C 71 % 1000,2 hPa 0,0 l/m 6,6 km/h (2 Bft) SO 141 0 min 0,000 mm 0,0 UV-I 0 W/m 13,5 C 18,8 C 11,3 km/h (2 Bft) 100,00 %
29.05.2016 22:08 18,9 C 71 % 1000,2 hPa 0,0 l/m 4,7 km/h (1 Bft) S-SO 151 0 min 0,000 mm 0,0 UV-I 0 W/m 13,5 C 18,9 C 8,0 km/h (2 Bft) 100,00 %
29.05.2016 22:09 18,9 C 70 % 1000,3 hPa 0,0 l/m 5,8 km/h (2 Bft) S 172 0 min 0,000 mm 0,0 UV-I 0 W/m 13,3 C 18,9 C 9,7 km/h (2 Bft) 100,00 %
29.05.2016 22:10 18,9 C 69 % 1000,2 hPa 0,0 l/m 4,5 km/h (1 Bft) S-SO 151 0 min 0,000 mm 0,0 UV-I 0 W/m 13,1 C 18,9 C 6,4 km/h (2 Bft) 100,00 %
29.05.2016 22:11 19,0 C 69 % 1000,3 hPa 0,0 l/m 3,0 km/h (1 Bft) S-SO 159 0 min 0,000 mm 0,0 UV-I 0 W/m 13,2 C 19,0 C 4,8 km/h (1 Bft) 100,00 %
29.05.2016 22:12 19,1 C 68 % 1000,3 hPa 0,0 l/m 5,4 km/h (1 Bft) S-SO 161 0 min 0,000 mm 0,0 UV-I 0 W/m 13,1 C 19,1 C 8,0 km/h (2 Bft) 100,00 %
29.05.2016 22:13 19,2 C 66 % 1000,4 hPa 0,0 l/m 5,3 km/h (1 Bft) S 175 0 min 0,000 mm 0,0 UV-I 0 W/m 12,7 C 19,2 C 9,7 km/h (2 Bft) 100,00 %
29.05.2016 22:14 19,3 C 66 % 1000,4 hPa 0,0 l/m 4,5 km/h (1 Bft) S-SO 152 0 min 0,000 mm 0,0 UV-I 0 W/m 12,8 C 19,3 C 9,7 km/h (2 Bft) 100,00 %
29.05.2016 22:15 19,3 C 65 % 1000,4 hPa 0,0 l/m 4,6 km/h (1 Bft) S-SO 160 0 min 0,000 mm 0,0 UV-I 0 W/m 12,6 C 19,3 C 8,0 km/h (2 Bft) 100,00 %
29.05.2016 22:16 19,4 C 65 % 1000,4 hPa 0,0 l/m 4,5 km/h (1 Bft) S-SO 155 0 min 0,000 mm 0,0 UV-I 0 W/m 12,6 C 19,4 C 8,0 km/h (2 Bft) 100,00 %
29.05.2016 22:17 19,6 C 64 % 1000,4 hPa 0,0 l/m 6,9 km/h (2 Bft) S-SO 155 0 min 0,000 mm 0,0 UV-I 0 W/m 12,6 C 19,4 C 12,9 km/h (3 Bft) 95,83 %
29.05.2016 22:18 19,6 C 64 % 1000,4 hPa 0,0 l/m 5,1 km/h (1 Bft) S-SO 157 0 min 0,000 mm 0,0 UV-I 0 W/m 12,6 C 19,6 C 6,4 km/h (2 Bft) 92,31 %
29.05.2016 22:19 19,6 C 64 % 1000,4 hPa 0,0 l/m 6,0 km/h (2 Bft) SO 146 0 min 0,000 mm 0,0 UV-I 0 W/m 12,6 C 19,6 C 8,0 km/h (2 Bft) 100,00 %
29.05.2016 22:20 19,7 C 63 % 1000,4 hPa 0,0 l/m 3,9 km/h (1 Bft) S-SO 162 0 min 0,000 mm 0,0 UV-I 0 W/m 12,5 C 19,7 C 8,0 km/h (2 Bft) 100,00 %
29.05.2016 22:21 19,7 C 64 % 1000,4 hPa 0,0 l/m 5,0 km/h (1 Bft) S 175 0 min 0,000 mm 0,0 UV-I 0 W/m 12,7 C 19,7 C 8,0 km/h (2 Bft) 100,00 %
29.05.2016 22:22 19,8 C 63 % 1000,6 hPa 0,0 l/m 5,0 km/h (1 Bft) S-SO 163 0 min 0,000 mm 0,0 UV-I 0 W/m 12,5 C 19,8 C 9,7 km/h (2 Bft) 95,65 %
29.05.2016 22:23 19,8 C 62 % 1000,6 hPa 0,0 l/m 4,6 km/h (1 Bft) S-SW 192 0 min 0,000 mm 0,0 UV-I 0 W/m 12,3 C 19,8 C 8,0 km/h (2 Bft) 100,00 %
29.05.2016 22:24 19,9 C 62 % 1000,6 hPa 0,0 l/m 7,1 km/h (2 Bft) S 190 0 min 0,000 mm 0,0 UV-I 0 W/m 12,4 C 19,6 C 14,5 km/h (3 Bft) 95,65 %
29.05.2016 22:25 19,9 C 62 % 1000,7 hPa 0,0 l/m 2,5 km/h (1 Bft) S-SO 163 0 min 0,000 mm 0,0 UV-I 0 W/m 12,4 C 19,9 C 6,4 km/h (2 Bft) 100,00 %
29.05.2016 22:26 19,9 C 62 % 1000,7 hPa 0,0 l/m 1,5 km/h (1 Bft) S 185 0 min 0,000 mm 0,0 UV-I 0 W/m 12,4 C 19,9 C 3,2 km/h (1 Bft) 100,00 %
29.05.2016 22:27 19,9 C 63 % 1000,8 hPa 0,0 l/m 2,0 km/h (1 Bft) S 185 0 min 0,000 mm 0,0 UV-I 0 W/m 12,6 C 19,9 C 3,2 km/h (1 Bft) 100,00 %
29.05.2016 22:28 19,9 C 65 % 1000,8 hPa 0,0 l/m 2,1 km/h (1 Bft) S 189 0 min 0,000 mm 0,0 UV-I 0 W/m 13,1 C 19,9 C 3,2 km/h (1 Bft) 100,00 %
29.05.2016 22:29 19,8 C 65 % 1000,8 hPa 0,0 l/m 2,7 km/h (1 Bft) SW 215 0 min 0,000 mm 0,0 UV-I 0 W/m 13,0 C 19,8 C 4,8 km/h (1 Bft) 95,65 %
29.05.2016 22:30 19,7 C 65 % 1000,8 hPa 0,0 l/m 3,0 km/h (1 Bft) SW 215 0 min 0,000 mm 0,0 UV-I 0 W/m 12,9 C 19,7 C 3,2 km/h (1 Bft) 100,00 %
29.05.2016 22:31 19,6 C 66 % 1000,9 hPa 0,0 l/m 3,1 km/h (1 Bft) W 271 0 min 0,000 mm 0,0 UV-I 0 W/m 13,1 C 19,6 C 4,8 km/h (1 Bft) 95,65 %
29.05.2016 22:32 19,5 C 65 % 1000,9 hPa 0,0 l/m 3,4 km/h (1 Bft) W 273 0 min 0,000 mm 0,0 UV-I 0 W/m 12,7 C 19,5 C 4,8 km/h (1 Bft) 100,00 %
29.05.2016 22:33 19,4 C 67 % 1001,0 hPa 0,0 l/m 4,9 km/h (1 Bft) NW 304 0 min 0,000 mm 0,0 UV-I 0 W/m 13,1 C 19,4 C 6,4 km/h (2 Bft) 95,65 %
29.05.2016 22:34 19,3 C 67 % 1001,0 hPa 0,0 l/m 4,4 km/h (1 Bft) W-NW 300 0 min 0,000 mm 0,0 UV-I 0 W/m 13,0 C 19,3 C 6,4 km/h (2 Bft) 95,83 %
29.05.2016 22:35 19,2 C 68 % 1001,1 hPa 0,0 l/m 6,2 km/h (2 Bft) W-NW 298 0 min 0,000 mm 0,0 UV-I 0 W/m 13,1 C 19,2 C 8,0 km/h (2 Bft) 100,00 %
29.05.2016 22:36 19,1 C 68 % 1001,2 hPa 0,0 l/m 5,4 km/h (1 Bft) NW 314 0 min 0,000 mm 0,0 UV-I 0 W/m 13,1 C 19,1 C 8,0 km/h (2 Bft) 100,00 %
29.05.2016 22:37 18,9 C 69 % 1001,3 hPa 0,0 l/m 2,3 km/h (1 Bft) W-SW 256 0 min 0,000 mm 0,0 UV-I 0 W/m 13,1 C 18,9 C 4,8 km/h (1 Bft) 100,00 %
29.05.2016 22:38 18,9 C 69 % 1001,3 hPa 0,0 l/m 1,7 km/h (1 Bft) W 267 0 min 0,000 mm 0,0 UV-I 0 W/m 13,1 C 18,9 C 3,2 km/h (1 Bft) 95,83 %
29.05.2016 22:39 18,8 C 69 % 1001,3 hPa 0,0 l/m 1,1 km/h (1 Bft) W 267 0 min 0,000 mm 0,0 UV-I 0 W/m 13,0 C 18,8 C 1,6 km/h (1 Bft) 100,00 %
29.05.2016 22:40 18,8 C 69 % 1001,3 hPa 0,0 l/m 0,7 km/h (0 Bft) W 267 0 min 0,000 mm 0,0 UV-I 0 W/m 13,0 C 18,8 C 1,6 km/h (1 Bft) 100,00 %
29.05.2016 22:41 18,8 C 69 % 1001,3 hPa 0,0 l/m 1,1 km/h (1 Bft) W 267 0 min 0,000 mm 0,0 UV-I 0 W/m 13,0 C 18,8 C 3,2 km/h (1 Bft) 100,00 %
29.05.2016 22:42 18,7 C 70 % 1001,4 hPa 0,0 l/m 0,1 km/h (0 Bft) W 267 0 min 0,000 mm 0,0 UV-I 0 W/m 13,1 C 18,7 C 1,6 km/h (1 Bft) 100,00 %
29.05.2016 22:43 18,7 C 70 % 1001,4 hPa 0,0 l/m 0,1 km/h (0 Bft) W 267 0 min 0,000 mm 0,0 UV-I 0 W/m 13,1 C 18,7 C 1,6 km/h (1 Bft) 100,00 %
29.05.2016 22:44 18,7 C 71 % 1001,4 hPa 0,0 l/m 1,7 km/h (1 Bft) NW 318 0 min 0,000 mm 0,0 UV-I 0 W/m 13,3 C 18,7 C 6,4 km/h (2 Bft) 100,00 %
29.05.2016 22:45 18,7 C 70 % 1001,4 hPa 0,0 l/m 4,0 km/h (1 Bft) W-NW 290 0 min 0,000 mm 0,0 UV-I 0 W/m 13,1 C 18,7 C 6,4 km/h (2 Bft) 100,00 %
29.05.2016 22:46 18,7 C 71 % 1001,4 hPa 0,0 l/m 4,2 km/h (1 Bft) W 263 0 min 0,000 mm 0,0 UV-I 0 W/m 13,3 C 18,7 C 11,3 km/h (2 Bft) 100,00 %
29.05.2016 22:47 18,6 C 70 % 1001,4 hPa 0,0 l/m 2,3 km/h (1 Bft) W-SW 252 0 min 0,000 mm 0,0 UV-I 0 W/m 13,0 C 18,6 C 4,8 km/h (1 Bft) 100,00 %
29.05.2016 22:48 18,7 C 70 % 1001,4 hPa 0,0 l/m 0,5 km/h (0 Bft) W-SW 252 0 min 0,000 mm 0,0 UV-I 0 W/m 13,1 C 18,7 C 1,6 km/h (1 Bft) 100,00 %
29.05.2016 22:49 18,7 C 70 % 1001,4 hPa 0,0 l/m 0,0 km/h (0 Bft) W-SW 252 0 min 0,000 mm 0,0 UV-I 0 W/m 13,1 C 18,7 C 0,0 km/h (0 Bft) 100,00 %
29.05.2016 22:50 18,7 C 71 % 1001,4 hPa 0,0 l/m 0,0 km/h (0 Bft) W-SW 252 0 min 0,000 mm 0,0 UV-I 0 W/m 13,3 C 18,7 C 0,0 km/h (0 Bft) 95,65 %
29.05.2016 22:51 18,7 C 69 % 1001,4 hPa 0,0 l/m 1,4 km/h (1 Bft) SW 215 0 min 0,000 mm 0,0 UV-I 0 W/m 12,9 C 18,7 C 3,2 km/h (1 Bft) 100,00 %
29.05.2016 22:52 18,7 C 69 % 1001,4 hPa 0,0 l/m 0,6 km/h (0 Bft) SW 215 0 min 0,000 mm 0,0 UV-I 0 W/m 12,9 C 18,7 C 1,6 km/h (1 Bft) 90,91 %
29.05.2016 22:53 18,7 C 70 % 1001,5 hPa 0,0 l/m 3,1 km/h (1 Bft) SW 215 0 min 0,000 mm 0,0 UV-I 0 W/m 13,1 C 18,7 C 4,8 km/h (1 Bft) 100,00 %
29.05.2016 22:54 18,7 C 70 % 1001,6 hPa 0,0 l/m 4,0 km/h (1 Bft) S-SW 206 0 min 0,000 mm 0,0 UV-I 0 W/m 13,1 C 18,7 C 4,8 km/h (1 Bft) 100,00 %
29.05.2016 22:55 18,8 C 69 % 1001,5 hPa 0,0 l/m 2,4 km/h (1 Bft) S 179 0 min 0,000 mm 0,0 UV-I 0 W/m 13,0 C 18,8 C 4,8 km/h (1 Bft) 100,00 %
29.05.2016 22:56 18,8 C 69 % 1001,6 hPa 0,0 l/m 3,7 km/h (1 Bft) S 188 0 min 0,000 mm 0,0 UV-I 0 W/m 13,0 C 18,8 C 4,8 km/h (1 Bft) 100,00 %
29.05.2016 22:57 18,8 C 69 % 1001,7 hPa 0,0 l/m 3,0 km/h (1 Bft) S 178 0 min 0,000 mm 0,0 UV-I 0 W/m 13,0 C 18,8 C 6,4 km/h (2 Bft) 100,00 %
29.05.2016 22:58 18,8 C 69 % 1001,6 hPa 0,0 l/m 5,4 km/h (1 Bft) S 171 0 min 0,000 mm 0,0 UV-I 0 W/m 13,0 C 18,8 C 8,0 km/h (2 Bft) 100,00 %
29.05.2016 22:59 18,8 C 69 % 1001,7 hPa 0,0 l/m 4,2 km/h (1 Bft) S 189 0 min 0,000 mm 0,0 UV-I 0 W/m 13,0 C 18,8 C 6,4 km/h (2 Bft) 100,00 %
29.05.2016 23:00 18,8 C 69 % 1001,7 hPa 0,0 l/m 6,2 km/h (2 Bft) S 182 0 min 0,000 mm 0,0 UV-I 0 W/m 13,0 C 18,8 C 8,0 km/h (2 Bft) 100,00 %
29.05.2016 23:02 18,8 C 69 % 1001,7 hPa 0,0 l/m 5,7 km/h (1 Bft) S 183 0 min 0,025 mm 0,0 UV-I 0 W/m 13,0 C 18,8 C 8,0 km/h (2 Bft) 100,00 %
29.05.2016 23:03 18,8 C 68 % 1001,7 hPa 0,0 l/m 7,2 km/h (2 Bft) S-SW 204 0 min 0,000 mm 0,0 UV-I 0 W/m 12,8 C 18,4 C 9,7 km/h (2 Bft) 95,83 %
29.05.2016 23:04 18,8 C 68 % 1001,7 hPa 0,0 l/m 8,7 km/h (2 Bft) SW 221 0 min 0,000 mm 0,0 UV-I 0 W/m 12,8 C 17,8 C 12,9 km/h (3 Bft) 100,00 %
29.05.2016 23:05 18,9 C 68 % 1001,8 hPa 0,0 l/m 5,8 km/h (2 Bft) S 190 0 min 0,000 mm 0,0 UV-I 0 W/m 12,9 C 18,9 C 8,0 km/h (2 Bft) 100,00 %
29.05.2016 23:06 18,9 C 68 % 1001,9 hPa 0,0 l/m 7,8 km/h (2 Bft) SW 219 0 min 0,000 mm 0,0 UV-I 0 W/m 12,9 C 18,3 C 11,3 km/h (2 Bft) 100,00 %
29.05.2016 23:07 18,9 C 67 % 1001,9 hPa 0,0 l/m 7,4 km/h (2 Bft) SW 228 0 min 0,000 mm 0,0 UV-I 0 W/m 12,6 C 18,5 C 11,3 km/h (2 Bft) 100,00 %
29.05.2016 23:08 19,0 C 68 % 1002,0 hPa 0,0 l/m 8,9 km/h (2 Bft) SW 215 0 min 0,000 mm 0,0 UV-I 0 W/m 13,0 C 17,9 C 12,9 km/h (3 Bft) 100,00 %
29.05.2016 23:09 19,0 C 68 % 1002,0 hPa 0,0 l/m 11,7 km/h (2 Bft) S-SW 210 0 min 0,000 mm 0,0 UV-I 0 W/m 13,0 C 17,0 C 17,7 km/h (3 Bft) 100,00 %
29.05.2016 23:10 19,1 C 68 % 1002,0 hPa 0,0 l/m 11,4 km/h (2 Bft) W-SW 240 0 min 0,000 mm 0,0 UV-I 0 W/m 13,1 C 17,2 C 19,3 km/h (3 Bft) 100,00 %
29.05.2016 23:11 19,1 C 68 % 1002,0 hPa 0,0 l/m 11,2 km/h (2 Bft) SW 223 0 min 0,000 mm 0,0 UV-I 0 W/m 13,1 C 17,2 C 19,3 km/h (3 Bft) 100,00 %
29.05.2016 23:12 19,1 C 68 % 1002,0 hPa 0,0 l/m 14,9 km/h (3 Bft) S-SW 201 0 min 0,000 mm 0,0 UV-I 0 W/m 13,1 C 16,2 C 22,5 km/h (4 Bft) 95,83 %
29.05.2016 23:13 19,1 C 69 % 1002,0 hPa 0,0 l/m 12,3 km/h (3 Bft) W-SW 242 0 min 0,000 mm 0,0 UV-I 0 W/m 13,3 C 16,9 C 17,7 km/h (3 Bft) 100,00 %
29.05.2016 23:14 19,0 C 69 % 1002,1 hPa 0,0 l/m 10,5 km/h (2 Bft) W-NW 289 0 min 0,000 mm 0,0 UV-I 0 W/m 13,2 C 17,4 C 22,5 km/h (4 Bft) 95,83 %
29.05.2016 23:15 19,0 C 69 % 1002,1 hPa 0,0 l/m 9,9 km/h (2 Bft) W-SW 255 0 min 0,000 mm 0,0 UV-I 0 W/m 13,2 C 17,6 C 14,5 km/h (3 Bft) 100,00 %
29.05.2016 23:16 18,9 C 70 % 1002,1 hPa 0,0 l/m 8,6 km/h (2 Bft) W-SW 257 0 min 0,000 mm 0,0 UV-I 0 W/m 13,3 C 18,0 C 12,9 km/h (3 Bft) 87,50 %
29.05.2016 23:17 18,8 C 70 % 1002,1 hPa 0,0 l/m 9,5 km/h (2 Bft) W-SW 254 0 min 0,000 mm 0,0 UV-I 0 W/m 13,2 C 17,5 C 11,3 km/h (2 Bft) 100,00 %
29.05.2016 23:18 18,8 C 70 % 1002,1 hPa 0,0 l/m 11,1 km/h (2 Bft) W-SW 247 0 min 0,000 mm 0,0 UV-I 0 W/m 13,2 C 16,9 C 14,5 km/h (3 Bft) 95,83 %
29.05.2016 23:19 18,7 C 70 % 1002,1 hPa 0,0 l/m 11,3 km/h (2 Bft) W-SW 252 0 min 0,000 mm 0,0 UV-I 0 W/m 13,1 C 16,8 C 14,5 km/h (3 Bft) 96,15 %
29.05.2016 23:20 18,7 C 71 % 1002,2 hPa 0,0 l/m 10,8 km/h (2 Bft) W-SW 258 0 min 0,000 mm 0,0 UV-I 0 W/m 13,3 C 16,9 C 14,5 km/h (3 Bft) 100,00 %
29.05.2016 23:21 18,6 C 71 % 1002,2 hPa 0,0 l/m 6,4 km/h (2 Bft) W-SW 256 0 min 0,000 mm 0,0 UV-I 0 W/m 13,2 C 18,6 C 11,3 km/h (2 Bft) 91,30 %
29.05.2016 23:22 18,6 C 71 % 1002,2 hPa 0,0 l/m 7,2 km/h (2 Bft) W 265 0 min 0,000 mm 0,0 UV-I 0 W/m 13,2 C 18,2 C 14,5 km/h (3 Bft) 100,00 %
29.05.2016 23:23 18,6 C 71 % 1002,2 hPa 0,0 l/m 7,0 km/h (2 Bft) W 262 0 min 0,000 mm 0,0 UV-I 0 W/m 13,2 C 18,3 C 11,3 km/h (2 Bft) 95,65 %
29.05.2016 23:24 18,6 C 71 % 1002,2 hPa 0,0 l/m 5,3 km/h (1 Bft) W 265 0 min 0,000 mm 0,0 UV-I 0 W/m 13,2 C 18,6 C 9,7 km/h (2 Bft) 100,00 %
29.05.2016 23:25 18,6 C 72 % 1002,3 hPa 0,0 l/m 3,2 km/h (1 Bft) W-SW 244 0 min 0,000 mm 0,0 UV-I 0 W/m 13,4 C 18,6 C 6,4 km/h (2 Bft) 95,83 %
29.05.2016 23:26 18,6 C 73 % 1002,3 hPa 0,0 l/m 9,8 km/h (2 Bft) SW 236 0 min 0,000 mm 0,0 UV-I 0 W/m 13,7 C 17,2 C 17,7 km/h (3 Bft) 95,65 %
29.05.2016 23:27 18,6 C 73 % 1002,4 hPa 0,0 l/m 4,8 km/h (1 Bft) W-NW 290 0 min 0,000 mm 0,0 UV-I 0 W/m 13,7 C 18,6 C 14,5 km/h (3 Bft) 100,00 %
29.05.2016 23:28 18,6 C 74 % 1002,4 hPa 0,0 l/m 3,8 km/h (1 Bft) SW 231 0 min 0,000 mm 0,0 UV-I 0 W/m 13,9 C 18,6 C 8,0 km/h (2 Bft) 95,65 %
29.05.2016 23:29 18,6 C 74 % 1002,5 hPa 0,0 l/m 7,4 km/h (2 Bft) S-SW 200 0 min 0,000 mm 0,0 UV-I 0 W/m 13,9 C 18,1 C 11,3 km/h (2 Bft) 100,00 %
29.05.2016 23:30 18,5 C 74 % 1002,5 hPa 0,0 l/m 7,2 km/h (2 Bft) W 269 0 min 0,000 mm 0,0 UV-I 0 W/m 13,8 C 18,1 C 12,9 km/h (3 Bft) 95,65 %
29.05.2016 23:31 18,5 C 74 % 1002,6 hPa 0,0 l/m 9,1 km/h (2 Bft) W-SW 244 0 min 0,000 mm 0,0 UV-I 0 W/m 13,8 C 17,3 C 12,9 km/h (3 Bft) 100,00 %
29.05.2016 23:32 18,5 C 75 % 1002,6 hPa 0,0 l/m 7,1 km/h (2 Bft) SW 232 0 min 0,000 mm 0,0 UV-I 0 W/m 14,0 C 18,2 C 9,7 km/h (2 Bft) 95,65 %
29.05.2016 23:33 18,4 C 75 % 1002,6 hPa 0,0 l/m 6,8 km/h (2 Bft) W-SW 247 0 min 0,000 mm 0,0 UV-I 0 W/m 13,9 C 18,2 C 11,3 km/h (2 Bft) 100,00 %
29.05.2016 23:34 18,4 C 75 % 1002,6 hPa 0,0 l/m 7,4 km/h (2 Bft) W 270 0 min 0,000 mm 0,0 UV-I 0 W/m 13,9 C 17,9 C 11,3 km/h (2 Bft) 95,65 %
29.05.2016 23:35 18,4 C 75 % 1002,6 hPa 0,0 l/m 6,4 km/h (2 Bft) S-SW 209 0 min 0,000 mm 0,0 UV-I 0 W/m 13,9 C 18,4 C 9,7 km/h (2 Bft) 100,00 %
29.05.2016 23:36 18,4 C 75 % 1002,6 hPa 0,0 l/m 6,6 km/h (2 Bft) SW 221 0 min 0,000 mm 0,0 UV-I 0 W/m 13,9 C 18,3 C 8,0 km/h (2 Bft) 91,30 %
29.05.2016 23:37 18,3 C 76 % 1002,6 hPa 0,0 l/m 7,1 km/h (2 Bft) W 277 0 min 0,000 mm 0,0 UV-I 0 W/m 14,0 C 18,0 C 11,3 km/h (2 Bft) 95,83 %
29.05.2016 23:38 18,3 C 76 % 1002,7 hPa 0,0 l/m 10,2 km/h (2 Bft) SW 214 0 min 0,000 mm 0,0 UV-I 0 W/m 14,0 C 16,7 C 16,1 km/h (3 Bft) 100,00 %
29.05.2016 23:39 18,3 C 77 % 1002,7 hPa 0,0 l/m 9,7 km/h (2 Bft) W 267 0 min 0,000 mm 0,0 UV-I 0 W/m 14,2 C 16,9 C 16,1 km/h (3 Bft) 95,65 %
29.05.2016 23:40 18,3 C 77 % 1002,8 hPa 0,0 l/m 10,7 km/h (2 Bft) SW 230 0 min 0,000 mm 0,0 UV-I 0 W/m 14,2 C 16,5 C 14,5 km/h (3 Bft) 100,00 %
29.05.2016 23:41 18,3 C 77 % 1002,8 hPa 0,0 l/m 6,9 km/h (2 Bft) W 273 0 min 0,000 mm 0,0 UV-I 0 W/m 14,2 C 18,1 C 11,3 km/h (2 Bft) 91,30 %
29.05.2016 23:42 18,4 C 77 % 1002,8 hPa 0,0 l/m 6,8 km/h (2 Bft) W 269 0 min 0,000 mm 0,0 UV-I 0 W/m 14,3 C 18,2 C 11,3 km/h (2 Bft) 100,00 %
29.05.2016 23:43 18,4 C 77 % 1002,8 hPa 0,0 l/m 8,9 km/h (2 Bft) SW 219 0 min 0,000 mm 0,0 UV-I 0 W/m 14,3 C 17,3 C 16,1 km/h (3 Bft) 95,65 %
29.05.2016 23:44 18,4 C 77 % 1002,9 hPa 0,0 l/m 11,9 km/h (2 Bft) W-SW 244 0 min 0,000 mm 0,0 UV-I 0 W/m 14,3 C 16,2 C 20,9 km/h (4 Bft) 100,00 %
29.05.2016 23:45 18,3 C 77 % 1002,9 hPa 0,0 l/m 10,7 km/h (2 Bft) W 267 0 min 0,000 mm 0,0 UV-I 0 W/m 14,2 C 16,5 C 16,1 km/h (3 Bft) 100,00 %
29.05.2016 23:46 18,3 C 77 % 1002,9 hPa 0,0 l/m 7,2 km/h (2 Bft) W 263 0 min 0,000 mm 0,0 UV-I 0 W/m 14,2 C 17,9 C 11,3 km/h (2 Bft) 100,00 %
29.05.2016 23:47 18,3 C 77 % 1002,9 hPa 0,0 l/m 8,8 km/h (2 Bft) W-SW 252 0 min 0,000 mm 0,0 UV-I 0 W/m 14,2 C 17,2 C 12,9 km/h (3 Bft) 100,00 %
29.05.2016 23:48 18,3 C 77 % 1002,9 hPa 0,0 l/m 11,3 km/h (2 Bft) W 260 0 min 0,000 mm 0,0 UV-I 0 W/m 14,2 C 16,3 C 17,7 km/h (3 Bft) 100,00 %
29.05.2016 23:49 18,3 C 77 % 1002,9 hPa 0,0 l/m 9,2 km/h (2 Bft) W 261 0 min 0,000 mm 0,0 UV-I 0 W/m 14,2 C 17,1 C 14,5 km/h (3 Bft) 95,65 %
29.05.2016 23:50 18,3 C 77 % 1003,0 hPa 0,0 l/m 11,8 km/h (2 Bft) W 265 0 min 0,000 mm 0,0 UV-I 0 W/m 14,2 C 16,1 C 14,5 km/h (3 Bft) 100,00 %
29.05.2016 23:51 18,3 C 77 % 1003,1 hPa 0,0 l/m 7,0 km/h (2 Bft) W-SW 255 0 min 0,000 mm 0,0 UV-I 0 W/m 14,2 C 18,0 C 11,3 km/h (2 Bft) 95,65 %
29.05.2016 23:52 18,2 C 77 % 1003,0 hPa 0,0 l/m 8,4 km/h (2 Bft) W 274 0 min 0,000 mm 0,0 UV-I 0 W/m 14,1 C 17,3 C 11,3 km/h (2 Bft) 100,00 %
29.05.2016 23:53 18,2 C 77 % 1003,0 hPa 0,0 l/m 10,4 km/h (2 Bft) SW 229 0 min 0,000 mm 0,0 UV-I 0 W/m 14,1 C 16,5 C 14,5 km/h (3 Bft) 100,00 %
29.05.2016 23:54 18,2 C 77 % 1003,1 hPa 0,0 l/m 14,4 km/h (3 Bft) W-SW 252 0 min 0,000 mm 0,0 UV-I 0 W/m 14,1 C 15,2 C 19,3 km/h (3 Bft) 100,00 %
29.05.2016 23:55 18,2 C 77 % 1003,1 hPa 0,0 l/m 8,2 km/h (2 Bft) W-SW 240 0 min 0,000 mm 0,0 UV-I 0 W/m 14,1 C 17,4 C 12,9 km/h (3 Bft) 100,00 %
29.05.2016 23:56 18,2 C 77 % 1003,1 hPa 0,0 l/m 10,9 km/h (2 Bft) W 259 0 min 0,000 mm 0,0 UV-I 0 W/m 14,1 C 16,3 C 20,9 km/h (4 Bft) 100,00 %
29.05.2016 23:57 18,1 C 77 % 1003,0 hPa 0,0 l/m 11,1 km/h (2 Bft) SW 236 0 min 0,000 mm 0,0 UV-I 0 W/m 14,0 C 16,1 C 14,5 km/h (3 Bft) 100,00 %
29.05.2016 23:58 18,1 C 77 % 1003,0 hPa 0,0 l/m 13,3 km/h (3 Bft) W-SW 257 0 min 0,000 mm 0,0 UV-I 0 W/m 14,0 C 15,4 C 17,7 km/h (3 Bft) 100,00 %
29.05.2016 23:59 18,1 C 77 % 1003,0 hPa 0,0 l/m 9,5 km/h (2 Bft) W 259 0 min 0,000 mm 0,0 UV-I 0 W/m 14,0 C 16,7 C 12,9 km/h (3 Bft) 100,00 %
_ Min-Zeit 02:04 20:07 20:36 - 00:38 - - - - - - 22:23 08:00 00:38 01:17
Minimum _ 13,3 C 57 % 999,2 hPa - 0,0 km/h (0 Bft) - - - - - - 12,3 C 11,0 C 0,0 km/h (0 Bft) 83,33 %
_ Max-Zeit 16:36 02:28 00:00 01:08 16:48 - - 10:02 13:00 12:18 11:40 17:54 16:16 20:00 00:00
Maximum _ 24,1 C 98 % 1008,5 hPa 0,2 l/m 29,6 km/h
O-NO (5 Bft)
- - 2 min 0,533 mm 6,6 UV-I 1222 W/m 20,0 C 23,1 C 41,8 km/h
O-SO (6 Bft)
100,00 %
Durchschnitt _ 18,7 C 84 % 1003,5 hPa #0,2 l/m 9,5 km/h (2 Bft) O-NO - #5:53 h #3,632 mm 2,8 UV-I 331 W/m 15,8 C 17,6 C 13,6 km/h (3 Bft) 98,36 %